[[{"header":{"parameterUnit":"m.s-1","parameterCategory":1,"la1":31.0,"la2":29.5877,"lo1":-88.7671,"lo2":-86.6584,"dy":0.0162,"dx":0.0185,"nx":115,"ny":88,"refTime":"2024-05-25T00:00:00:Z","depth":0,"parameterNumber":2,"parameterNumberName":"U-component_of_WINDS"},"data":[0.0,0.0,0.0,0.0,0.0,0.0,0.0,0.0,0.0,0.0,0.0,0.0,0.0,0.0,0.0,0.0,0.0,0.0,0.0,0.0,0.0,0.0,0.0,0.0,0.0,0.0,0.0,0.0,0.0,0.0,0.0,0.0,0.0,0.0,0.0,0.0,0.0,0.0,0.0,0.0,0.0,0.0,0.0,0.0,0.0,0.0,0.0,0.0,0.0,0.0,0.0,0.0,0.0,0.0,0.0,0.0,0.0,0.0,0.0,0.0,0.0,0.0,0.0,0.0,0.0,0.0,0.0,0.0,0.0,0.0,0.0,0.0,0.0,0.0,0.0,0.0,0.0,0.0,0.0,0.0,0.0,0.0,0.0,0.0,0.0,0.0,0.0,0.0,0.0,0.0,0.0,0.0,0.0,0.0,0.0,0.0,0.0,0.0,0.0,0.0,0.0,0.0,0.0,0.0,0.0,0.0,0.0,0.0,0.0,0.0,0.0,0.0,0.0,0.0,0.0,0.0,0.0,0.0,0.0,0.0,0.0,0.0,0.0,0.0,0.0,0.0,0.0,0.0,0.0,0.0,0.0,0.0,0.0,0.0,0.0,0.0,0.0,0.0,0.0,0.0,0.0,0.0,0.0,0.0,0.0,0.0,0.0,0.0,0.0,0.0,0.0,0.0,0.0,0.0,0.0,0.0,0.0,0.0,0.0,0.0,0.0,0.0,0.0,0.0,0.0,0.0,0.0,0.0,0.0,0.0,0.0,0.0,0.0,0.0,0.0,0.0,0.0,0.0,0.0,0.0,0.0,0.0,0.0,0.0,0.0,0.0,0.0,0.0,0.0,0.0,0.0,0.0,0.0,0.0,0.0,0.0,0.0,0.0,0.0,0.0,0.0,0.0,0.0,0.0,0.0,0.0,0.0,0.0,0.0,0.0,0.0,0.0,0.0,0.0,0.0,0.0,0.0,0.0,0.0,0.0,0.0,0.0,0.0,0.0,0.0,0.0,0.0,0.0,0.0,0.0,0.0,0.0,0.0,0.0,0.0,0.0,0.0,0.0,0.0,0.0,0.0,0.0,0.0,0.0,0.0,0.0,0.0,0.0,0.0,0.0,0.0,0.0,0.0,0.0,0.0,0.0,0.0,0.0,0.0,0.0,0.0,0.0,0.0,0.0,0.0,0.0,0.0,0.0,0.0,0.0,0.0,0.0,0.0,0.0,0.0,0.0,0.0,0.0,0.0,0.0,0.0,0.0,0.0,0.0,0.0,0.0,0.0,0.0,0.0,0.0,0.0,0.0,0.0,0.0,0.0,0.0,0.0,0.0,0.0,0.0,0.0,0.0,0.0,0.0,0.0,0.0,0.0,0.0,0.0,0.0,0.0,0.0,0.0,0.0,0.0,0.0,0.0,0.0,0.0,0.0,0.0,0.0,0.0,0.0,0.0,0.0,0.0,0.0,0.0,0.0,0.0,0.0,0.0,0.0,0.0,0.0,0.0,0.0,0.0,0.0,0.0,0.0,0.0,0.0,0.0,0.0,0.0,0.0,0.0,0.0,0.0,0.0,0.0,0.0,0.0,0.0,0.0,0.0,0.0,0.0,0.0,0.0,0.0,0.0,0.0,0.0,0.0,0.0,0.0,0.0,0.0,0.0,0.0,0.0,0.0,0.0,0.0,0.0,0.0,0.0,0.0,0.0,0.0,0.0,0.0,0.0,0.0,0.0,0.0,0.0,0.0,0.0,0.0,0.0,0.0,0.0,0.0,0.0,0.0,0.0,0.0,0.0,0.0,0.0,0.0,0.0,0.0,0.0,0.0,0.0,0.0,0.0,0.0,0.0,0.0,0.0,0.0,0.0,0.0,0.0,0.0,0.0,0.0,0.0,0.0,0.0,0.0,0.0,0.0,0.0,0.0,0.0,0.0,0.0,0.0,0.0,0.0,0.0,0.0,0.0,0.0,0.0,0.0,0.0,0.0,0.0,0.0,0.0,0.0,0.0,0.0,0.0,0.0,0.0,0.0,0.0,0.0,0.0,0.0,0.0,0.0,0.0,0.0,0.0,0.0,0.0,0.0,0.0,0.0,0.0,0.0,0.0,0.0,0.0,0.0,0.0,0.0,0.0,0.0,0.0,0.0,0.0,0.0,0.0,0.0,0.0,0.0,0.0,0.0,0.0,0.0,0.0,0.0,0.0,0.0,0.0,0.0,0.0,0.0,0.0,0.0,0.0,0.0,0.0,0.0,0.0,0.0,0.0,0.0,0.0,0.0,0.0,0.0,0.0,0.0,0.0,0.0,0.0,0.0,0.0,0.0,0.0,0.0,0.0,0.0,0.0,0.0,0.0,0.0,0.0,0.0,0.0,0.0,0.0,0.0,0.0,0.0,0.0,0.0,0.0,0.0,0.0,0.0,0.0,0.0,0.0,0.0,0.0,0.0,0.0,0.0,0.0,0.0,0.0,0.0,0.0,0.0,0.0,0.0,0.0,0.0,0.0,0.0,0.0,0.0,0.0,0.0,0.0,0.0,0.0,0.0,0.0,0.0,0.0,0.0,0.0,0.0,0.0,0.0,0.0,0.0,0.0,0.0,0.0,0.0,0.0,0.0,0.0,0.0,0.0,0.0,0.0,0.0,0.0,0.0,0.0,0.0,0.0,0.0,0.0,0.0,0.0,0.0,0.0,0.0,0.0,0.0,0.0,0.0,0.0,0.0,0.0,0.0,0.0,0.0,0.0,0.0,0.0,0.0,0.0,0.0,0.0,0.0,0.0,0.0,0.0,0.0,0.0,0.0,0.0,0.0,0.0,0.0,0.0,0.0,0.0,0.0,0.0,0.0,0.0,0.0,0.0,0.0,0.0,0.0,0.0,0.0,0.0,0.0,0.0,0.0,0.0,0.0,0.0,0.0,0.0,0.0,0.0,0.0,0.0,0.0,0.0,0.0,0.0,0.0,0.0,0.0,0.0,0.0,0.0,0.0,0.0,0.0,0.0,0.0,0.0,0.0,0.0,0.0,0.0,0.0,0.0,0.0,0.0,0.0,0.0,0.0,0.0,0.0,0.0,0.0,0.0,0.0,0.0,0.0,0.0,0.0,0.0,0.0,0.0,0.0,0.0,0.0,0.0,0.0,0.0,0.0,0.0,0.0,0.0,0.0,0.0,0.0,0.0,0.0,0.0,0.0,0.0,0.0,0.0,0.0,0.0,0.0,0.0,0.0,0.0,0.0,0.0,0.0,0.0,0.0,0.0,0.0,0.0,0.0,0.0,0.0,0.0,0.0,0.0,0.0,0.0,0.0,0.0,0.0,0.0,0.0,0.0,0.0,0.0,0.0,0.0,0.0,0.0,0.0,0.0,0.0,0.0,0.0,0.0,0.0,0.0,0.0,0.0,0.0,0.0,0.0,0.0,0.0,0.0,0.0,0.0,0.0,0.0,0.0,0.0,0.0,0.0,0.0,0.0,0.0,0.0,0.0,0.0,0.0,0.0,0.0,0.0,0.0,0.0,0.0,0.0,0.0,0.0,0.0,0.0,0.0,0.0,0.0,0.0,0.0,0.0,0.0,0.0,0.0,0.0,0.0,0.0,0.0,0.0,0.0,0.0,0.0,0.0,0.0,0.0,0.0,0.0,0.0,0.0,0.0,0.0,0.0,0.0,0.0,0.0,0.0,0.0,0.0,0.0,0.0,0.0,0.0,0.0,0.0,0.0,0.0,0.0,0.0,0.0,0.0,0.0,0.0,0.0,0.0,0.0,0.0,0.0,0.0,0.0,0.0,0.0,0.0,0.0,0.0,0.0,0.0,0.0,0.0,0.0,0.0,0.0,0.0,0.0,0.0,0.0,0.0,0.0,0.0,0.0,0.0,0.0,0.0,0.0,0.0,0.0,0.0,0.0,0.0,0.0,0.0,0.0,0.0,0.0,0.0,0.0,0.0,0.0,0.0,0.0,0.0,0.0,0.0,0.0,0.0,0.0,0.0,0.0,0.0,0.0,0.0,0.0,0.0,0.0,0.0,0.0,0.0,0.0,0.0,0.0,0.0,0.0,0.0,0.0,0.0,0.0,0.0,0.0,0.0,0.0,0.0,0.0,0.0,0.0,0.0,0.0,0.0,0.0,0.0,0.0,0.0,0.0,0.0,0.0,0.0,0.0,0.0,0.0,0.0,0.0,0.0,0.0,0.0,0.0,0.0,0.0,0.0,0.0,0.0,0.0,0.0,0.0,0.0,0.0,0.0,0.0,0.0,0.0,0.0,0.0,0.0,0.0,0.0,0.0,0.0,0.0,1.8857,0.0,0.0,0.0,0.0,0.0,0.0,0.0,0.0,0.0,0.0,0.0,0.0,0.0,0.0,0.0,0.0,0.0,0.0,0.0,0.0,0.0,0.0,0.0,0.0,0.0,0.0,0.0,0.0,0.0,0.0,0.0,0.0,0.0,0.0,0.0,0.0,0.0,0.0,0.0,0.0,0.0,0.0,0.0,0.0,0.0,0.0,0.0,0.0,0.0,0.0,0.0,0.0,0.0,0.0,0.0,0.0,0.0,0.0,0.0,0.0,0.0,0.0,0.0,0.0,0.0,0.0,0.0,0.0,0.0,0.0,0.0,0.0,0.0,0.0,0.0,0.0,0.0,0.0,0.0,0.0,0.0,0.0,0.0,0.0,0.0,0.0,0.0,0.0,0.0,0.0,0.0,0.0,0.0,0.0,0.0,0.0,0.0,0.0,0.0,0.0,0.0,0.0,0.0,0.0,0.0,0.0,0.0,0.0,0.0,0.0,2.0292,2.0292,2.0292,1.9658,1.8376,0.0,0.0,0.0,0.0,0.0,0.0,0.0,0.0,0.0,0.0,0.0,0.0,0.0,0.0,0.0,0.0,0.0,0.0,0.0,0.0,0.0,0.0,0.0,0.0,0.0,0.0,0.0,0.0,0.0,0.0,0.0,0.0,0.0,0.0,0.0,0.0,0.0,0.0,0.0,0.0,0.0,0.0,0.0,0.0,0.0,0.0,0.0,0.0,0.0,0.0,0.0,0.0,0.0,0.0,0.0,0.0,0.0,0.0,0.0,0.0,0.0,0.0,0.0,0.0,0.0,0.0,0.0,0.0,0.0,0.0,0.0,0.0,0.0,0.0,0.0,0.0,0.0,0.0,0.0,0.0,0.0,0.0,0.0,0.0,0.0,0.0,0.0,0.0,0.0,0.0,0.0,0.0,0.0,0.0,0.0,0.0,0.0,0.0,0.0,0.0,0.0,0.0,0.0,0.0,0.0,0.0,0.0,0.0,0.0,0.0,0.0,0.0,2.0562,1.9869,1.8369,0.0,0.0,0.0,0.0,0.0,0.0,0.0,0.0,0.0,0.0,0.0,0.0,0.0,0.0,0.0,0.0,0.0,0.0,0.0,0.0,0.0,0.0,0.0,0.0,0.0,0.0,0.0,0.0,0.0,0.0,0.0,0.0,0.0,0.0,0.0,0.0,0.0,0.0,0.0,0.0,0.0,0.0,0.0,0.0,0.0,0.0,0.0,0.0,0.0,0.0,0.0,0.0,0.0,0.0,0.0,0.0,0.0,0.0,0.0,0.0,0.0,0.0,0.0,0.0,0.0,0.0,0.0,0.0,0.0,0.0,0.0,0.0,0.0,0.0,0.0,0.0,0.0,0.0,0.0,0.0,0.0,0.0,0.0,0.0,0.0,0.0,0.0,0.0,0.0,0.0,0.0,0.0,0.0,0.0,0.0,0.0,0.0,0.0,0.0,0.0,0.0,0.0,0.0,0.0,0.0,0.0,0.0,0.0,0.0,0.0,2.0658,2.137,2.137,0.0,2.0177,0.0,0.0,0.0,0.0,0.0,0.0,0.0,0.0,0.0,0.0,0.0,0.0,0.0,0.0,0.0,0.0,0.0,0.0,0.0,0.0,0.0,0.0,0.0,0.0,0.0,0.0,0.0,0.0,0.0,0.0,0.0,0.0,0.0,0.0,0.0,0.0,0.0,0.0,0.0,0.0,0.0,0.0,0.0,0.0,0.0,0.0,0.0,0.0,0.0,0.0,0.0,0.0,0.0,0.0,0.0,0.0,0.0,0.0,0.0,0.0,0.0,0.0,0.0,0.0,0.0,0.0,0.0,0.0,0.0,0.0,0.0,0.0,0.0,0.0,0.0,0.0,0.0,0.0,0.0,0.0,0.0,0.0,0.0,0.0,0.0,0.0,0.0,0.0,0.0,0.0,0.0,0.0,0.0,0.0,0.0,0.0,0.0,0.0,0.0,0.0,0.0,0.0,0.0,0.0,0.0,0.0,0.0,0.0,0.0,0.0,2.0688,2.1466,2.0534,2.0092,0.0,0.0,0.0,0.0,0.0,0.0,0.0,0.0,0.0,0.0,0.0,0.0,0.0,0.0,0.0,0.0,0.0,0.0,0.0,0.0,0.0,0.0,0.0,0.0,0.0,0.0,0.0,0.0,0.0,0.0,0.0,0.0,0.0,0.0,0.0,0.0,0.0,0.0,0.0,0.0,0.0,0.0,0.0,0.0,0.0,0.0,0.0,0.0,0.0,0.0,0.0,0.0,0.0,0.0,0.0,0.0,0.0,0.0,0.0,0.0,0.0,0.0,0.0,0.0,0.0,0.0,0.0,0.0,0.0,0.0,0.0,0.0,0.0,0.0,0.0,0.0,0.0,0.0,0.0,0.0,0.0,0.0,0.0,0.0,0.0,0.0,0.0,0.0,0.0,0.0,0.0,0.0,0.0,0.0,0.0,0.0,0.0,0.0,0.0,0.0,0.0,0.0,0.0,0.0,0.0,0.0,0.0,0.0,0.0,0.0,2.0427,0.0,2.1389,2.0323,1.965,1.96,0.0,0.0,0.0,0.0,0.0,0.0,0.0,0.0,0.0,0.0,0.0,0.0,0.0,0.0,0.0,0.0,0.0,0.0,0.0,0.0,0.0,0.0,0.0,0.0,0.0,0.0,0.0,0.0,0.0,0.0,0.0,0.0,0.0,0.0,0.0,0.0,0.0,0.0,0.0,0.0,0.0,0.0,0.0,0.0,0.0,0.0,0.0,0.0,0.0,0.0,0.0,0.0,0.0,0.0,0.0,0.0,0.0,0.0,0.0,0.0,0.0,0.0,0.0,0.0,0.0,0.0,0.0,0.0,0.0,0.0,0.0,0.0,0.0,0.0,0.0,0.0,0.0,0.0,0.0,0.0,0.0,0.0,0.0,0.0,0.0,0.0,0.0,0.0,0.0,0.0,0.0,0.0,0.0,0.0,0.0,0.0,0.0,0.0,0.0,0.0,0.0,0.0,0.0,0.0,0.0,0.0,0.0,0.0,0.0,2.0696,2.0696,2.1485,2.1427,2.0273,0.0,0.0,0.0,0.0,0.0,0.0,0.0,0.0,0.0,0.0,0.0,0.0,0.0,0.0,0.0,0.0,0.0,0.0,0.0,0.0,0.0,0.0,0.0,0.0,0.0,0.0,0.0,0.0,0.0,0.0,0.0,0.0,0.0,0.0,0.0,0.0,0.0,0.0,0.0,0.0,0.0,0.0,0.0,0.0,0.0,0.0,0.0,0.0,0.0,0.0,0.0,0.0,0.0,0.0,0.0,0.0,0.0,0.0,0.0,0.0,0.0,0.0,0.0,0.0,0.0,0.0,0.0,0.0,0.0,0.0,0.0,0.0,0.0,0.0,0.0,0.0,0.0,0.0,0.0,0.0,0.0,0.0,0.0,0.0,0.0,0.0,0.0,0.0,0.0,0.0,0.0,0.0,0.0,0.0,0.0,0.0,0.0,0.0,0.0,0.0,0.0,0.0,0.0,0.0,0.0,0.0,0.0,0.0,0.0,1.9838,2.0658,2.1457,2.2256,2.0765,1.9469,0.0,0.0,0.0,0.0,0.0,0.0,0.0,0.0,0.0,0.0,0.0,0.0,0.0,0.0,0.0,0.0,0.0,0.0,0.0,0.0,0.0,0.0,0.0,0.0,0.0,0.0,0.0,0.0,0.0,0.0,0.0,0.0,0.0,0.0,0.0,0.0,0.0,0.0,0.0,0.0,0.0,0.0,0.0,0.0,0.0,0.0,0.0,0.0,0.0,0.0,0.0,0.0,0.0,0.0,0.0,0.0,0.0,0.0,0.0,0.0,0.0,0.0,0.0,0.0,0.0,0.0,0.0,0.0,0.0,0.0,0.0,0.0,0.0,0.0,0.0,0.0,0.0,0.0,0.0,0.0,0.0,0.0,0.0,0.0,0.0,0.0,0.0,0.0,0.0,0.0,0.0,0.0,0.0,0.0,0.0,0.0,0.0,0.0,0.0,0.0,0.0,0.0,0.0,0.0,0.0,0.0,0.0,0.0,0.0,1.8992,0.0,2.1669,0.0,2.0054,1.8746,0.0,0.0,0.0,0.0,0.0,0.0,0.0,0.0,0.0,0.0,0.0,0.0,0.0,0.0,0.0,0.0,0.0,0.0,0.0,0.0,0.0,0.0,0.0,0.0,0.0,0.0,0.0,0.0,0.0,0.0,0.0,0.0,0.0,0.0,0.0,0.0,0.0,0.0,0.0,0.0,0.0,0.0,0.0,0.0,0.0,0.0,0.0,0.0,0.0,0.0,0.0,0.0,0.0,0.0,0.0,0.0,0.0,0.0,0.0,0.0,0.0,0.0,0.0,0.0,0.0,0.0,0.0,0.0,0.0,0.0,0.0,0.0,0.0,0.0,0.0,0.0,0.0,0.0,0.0,0.0,0.0,0.0,0.0,0.0,0.0,0.0,0.0,0.0,0.0,0.0,0.0,0.0,0.0,0.0,0.0,0.0,0.0,0.0,0.0,0.0,0.0,0.0,0.0,0.0,0.0,0.0,0.0,0.0,1.8138,1.9016,2.0639,2.1158,2.035,1.9511,1.8248,0.0,0.0,0.0,0.0,0.0,0.0,0.0,0.0,0.0,0.0,0.0,0.0,0.0,0.0,0.0,0.0,0.0,0.0,0.0,0.0,0.0,0.0,0.0,0.0,0.0,0.0,0.0,0.0,0.0,0.0,0.0,0.0,0.0,0.0,0.0,0.0,0.0,0.0,0.0,0.0,0.0,0.0,0.0,0.0,0.0,0.0,0.0,0.0,0.0,0.0,0.0,0.0,0.0,0.0,0.0,0.0,0.0,0.0,0.0,0.0,0.0,0.0,0.0,0.0,0.0,0.0,0.0,0.0,0.0,0.0,0.0,0.0,0.0,0.0,0.0,0.0,0.0,0.0,0.0,0.0,0.0,0.0,0.0,0.0,0.0,0.0,0.0,0.0,0.0,0.0,0.0,0.0,0.0,0.0,0.0,0.0,0.0,0.0,0.0,0.0,0.0,0.0,0.0,0.0,0.0,0.0,0.0,0.0,0.0,1.9023,2.0619,2.1378,2.1097,1.975,1.9032,0.0,0.0,0.0,0.0,0.0,0.0,0.0,0.0,0.0,0.0,0.0,0.0,0.0,0.0,0.0,0.0,0.0,0.0,0.0,0.0,0.0,0.0,0.0,0.0,0.0,0.0,0.0,0.0,0.0,0.0,0.0,0.0,0.0,0.0,0.0,0.0,0.0,0.0,0.0,0.0,0.0,0.0,0.0,0.0,0.0,0.0,0.0,0.0,0.0,0.0,0.0,0.0,0.0,0.0,0.0,0.0,0.0,0.0,0.0,0.0,0.0,0.0,0.0,0.0,0.0,0.0,0.0,0.0,0.0,0.0,0.0,0.0,0.0,0.0,0.0,0.0,0.0,0.0,0.0,0.0,0.0,0.0,0.0,0.0,0.0,0.0,0.0,0.0,0.0,0.0,0.0,0.0,0.0,0.0,0.0,0.0,0.0,0.0,0.0,0.0,0.0,0.0,0.0,0.0,0.0,0.0,0.0,0.0,0.0,1.9973,2.0946,2.1493,2.1479,2.0192,1.9576,1.9752,0.0,0.0,0.0,0.0,0.0,0.0,0.0,0.0,0.0,0.0,0.0,0.0,0.0,0.0,0.0,0.0,0.0,0.0,0.0,0.0,0.0,0.0,0.0,0.0,0.0,0.0,0.0,0.0,0.0,0.0,0.0,0.0,0.0,0.0,0.0,0.0,0.0,0.0,0.0,0.0,0.0,0.0,0.0,0.0,0.0,0.0,0.0,0.0,0.0,0.0,0.0,0.0,0.0,0.0,0.0,0.0,0.0,0.0,0.0,0.0,0.0,0.0,0.0,0.0,0.0,0.0,0.0,0.0,0.0,0.0,0.0,0.0,0.0,0.0,0.0,0.0,0.0,0.0,0.0,0.0,0.0,0.0,0.0,0.0,0.0,0.0,0.0,0.0,0.0,0.0,0.0,0.0,0.0,0.0,0.0,0.0,0.0,0.0,0.0,0.0,0.0,0.0,0.0,0.0,0.0,0.0,0.0,0.0,2.1581,2.162,2.1666,2.1671,2.082,2.0007,0.0,0.0,0.0,0.0,0.0,0.0,0.0,0.0,0.0,0.0,0.0,0.0,0.0,0.0,0.0,0.0,0.0,0.0,0.0,0.0,0.0,0.0,0.0,0.0,0.0,0.0,0.0,0.0,0.0,0.0,0.0,0.0,0.0,0.0,0.0,0.0,0.0,0.0,0.0,0.0,0.0,0.0,0.0,0.0,0.0,0.0,0.0,0.0,0.0,0.0,0.0,0.0,0.0,0.0,0.0,0.0,0.0,0.0,0.0,0.0,0.0,0.0,0.0,0.0,0.0,0.0,0.0,0.0,0.0,0.0,0.0,0.0,0.0,0.0,0.0,0.0,0.0,0.0,0.0,0.0,0.0,0.0,0.0,0.0,0.0,0.0,0.0,0.0,0.0,0.0,0.0,0.0,0.0,0.0,0.0,0.0,0.0,0.0,0.0,0.0,0.0,0.0,0.0,0.0,0.0,0.0,0.0,0.0,0.0,2.2447,2.309,2.3426,2.3386,2.1974,2.1386,0.0,0.0,0.0,0.0,0.0,0.0,0.0,0.0,0.0,0.0,0.0,0.0,0.0,0.0,0.0,0.0,0.0,0.0,0.0,0.0,0.0,0.0,0.0,0.0,0.0,0.0,0.0,0.0,0.0,0.0,0.0,0.0,0.0,0.0,0.0,0.0,0.0,0.0,0.0,0.0,0.0,0.0,0.0,0.0,0.0,0.0,0.0,0.0,0.0,0.0,0.0,0.0,0.0,0.0,0.0,0.0,0.0,0.0,0.0,0.0,0.0,0.0,0.0,0.0,0.0,0.0,0.0,0.0,0.0,0.0,0.0,0.0,0.0,0.0,0.0,0.0,0.0,0.0,0.0,0.0,0.0,0.0,0.0,0.0,0.0,0.0,0.0,0.0,0.0,0.0,0.0,0.0,0.0,0.0,0.0,0.0,0.0,0.0,0.0,0.0,0.0,0.0,0.0,0.0,0.0,0.0,0.0,0.0,2.2466,2.3331,2.4159,2.461,2.462,2.3302,2.2483,0.0,0.0,0.0,0.0,0.0,0.0,0.0,0.0,0.0,0.0,0.0,0.0,0.0,0.0,0.0,0.0,0.0,0.0,0.0,0.0,0.0,0.0,0.0,0.0,0.0,0.0,0.0,0.0,0.0,0.0,0.0,0.0,0.0,0.0,0.0,0.0,0.0,0.0,0.0,0.0,0.0,0.0,0.0,0.0,0.0,0.0,0.0,0.0,0.0,0.0,0.0,0.0,0.0,0.0,0.0,0.0,0.0,0.0,0.0,0.0,0.0,0.0,0.0,0.0,0.0,0.0,0.0,0.0,0.0,0.0,0.0,0.0,0.0,0.0,0.0,0.0,0.0,0.0,0.0,0.0,0.0,0.0,0.0,0.0,0.0,0.0,0.0,0.0,0.0,0.0,0.0,0.0,0.0,0.0,0.0,0.0,0.0,0.0,0.0,0.0,0.0,0.0,0.0,0.0,0.0,0.0,0.0,0.0,2.3321,2.4091,2.487,2.5313,2.5284,2.4524,2.333,0.0,0.0,0.0,0.0,0.0,0.0,0.0,0.0,0.0,0.0,0.0,0.0,0.0,0.0,0.0,0.0,0.0,0.0,0.0,0.0,0.0,0.0,0.0,0.0,0.0,0.0,0.0,0.0,0.0,0.0,0.0,0.0,0.0,0.0,0.0,0.0,0.0,0.0,0.0,0.0,0.0,0.0,0.0,0.0,0.0,0.0,0.0,0.0,0.0,0.0,0.0,0.0,0.0,0.0,0.0,0.0,0.0,0.0,0.0,0.0,0.0,0.0,0.0,0.0,0.0,0.0,0.0,0.0,0.0,0.0,0.0,0.0,0.0,0.0,0.0,0.0,0.0,0.0,0.0,0.0,0.0,0.0,0.0,0.0,0.0,0.0,0.0,0.0,0.0,0.0,0.0,0.0,0.0,0.0,0.0,0.0,0.0,0.0,0.0,0.0,0.0,0.0,0.0,0.0,0.0,0.0,0.0,0.0,2.3898,2.411,2.4889,2.5313,2.5313,2.4524,2.361,0.0,0.0,0.0,0.0,0.0,0.0,0.0,0.0,0.0,0.0,0.0,0.0,0.0,0.0,0.0,0.0,0.0,0.0,0.0,0.0,0.0,0.0,0.0,0.0,0.0,0.0,0.0,0.0,0.0,0.0,0.0,0.0,0.0,0.0,0.0,0.0,0.0,0.0,0.0,0.0,0.0,0.0,0.0,0.0,0.0,0.0,0.0,0.0,2.1177,0.0,0.0,0.0,0.0,0.0,0.0,0.0,0.0,0.0,0.0,0.0,0.0,0.0,0.0,0.0,0.0,0.0,0.0,0.0,0.0,0.0,0.0,0.0,0.0,0.0,0.0,0.0,0.0,0.0,0.0,0.0,0.0,0.0,0.0,0.0,0.0,0.0,0.0,0.0,0.0,0.0,0.0,0.0,0.0,0.0,0.0,0.0,0.0,0.0,0.0,0.0,0.0,0.0,0.0,0.0,0.0,0.0,0.0,0.0,2.4302,2.4659,2.5082,2.5313,2.5293,2.4928,2.413,0.0,0.0,0.0,0.0,0.0,0.0,0.0,0.0,0.0,0.0,0.0,0.0,0.0,0.0,0.0,0.0,0.0,0.0,0.0,0.0,0.0,0.0,0.0,0.0,0.0,0.0,0.0,0.0,0.0,0.0,0.0,0.0,0.0,0.0,0.0,0.0,0.0,0.0,0.0,0.0,0.0,0.0,0.0,0.0,0.0,0.0,0.0,0.0,0.0,0.0,0.0,0.0,0.0,0.0,0.0,0.0,0.0,0.0,0.0,0.0,0.0,0.0,0.0,0.0,0.0,0.0,0.0,0.0,0.0,0.0,0.0,0.0,0.0,0.0,0.0,0.0,0.0,0.0,0.0,0.0,0.0,0.0,0.0,0.0,0.0,0.0,0.0,0.0,0.0,0.0,0.0,0.0,0.0,0.0,0.0,0.0,0.0,0.0,0.0,0.0,0.0,0.0,0.0,0.0,0.0,0.0,0.0,2.3725,2.4495,2.5245,2.5313,2.5313,2.5313,2.537,2.463,2.3,0.0,0.0,0.0,0.0,0.0,0.0,0.0,0.0,0.0,0.0,0.0,0.0,0.0,0.0,0.0,0.0,0.0,0.0,0.0,0.0,0.0,0.0,0.0,0.0,0.0,0.0,0.0,0.0,0.0,0.0,0.0,0.0,0.0,0.0,0.0,0.0,0.0,0.0,2.0666,2.2013,0.0,0.0,0.0,0.0,0.0,0.0,0.0,0.0,2.2389,0.0,0.0,0.0,0.0,0.0,0.0,0.0,0.0,0.0,0.0,0.0,0.0,0.0,0.0,0.0,0.0,0.0,0.0,0.0,0.0,0.0,0.0,0.0,0.0,0.0,0.0,0.0,0.0,0.0,0.0,0.0,0.0,0.0,0.0,0.0,0.0,0.0,0.0,0.0,0.0,0.0,0.0,0.0,0.0,0.0,0.0,0.0,0.0,0.0,0.0,0.0,0.0,0.0,0.0,0.0,0.0,2.3841,2.4033,2.4485,2.5264,2.5313,2.5332,2.539,2.5447,2.4721,2.3181,0.0,0.0,0.0,0.0,0.0,0.0,0.0,0.0,0.0,0.0,0.0,0.0,0.0,0.0,0.0,0.0,0.0,0.0,0.0,0.0,0.0,0.0,0.0,0.0,0.0,0.0,0.0,0.0,0.0,0.0,0.0,0.0,0.0,0.0,0.0,0.0,0.0,0.0,0.0,2.3242,2.4225,0.0,0.0,0.0,0.0,0.0,0.0,0.0,0.0,2.3043,0.0,0.0,0.0,0.0,0.0,0.0,0.0,0.0,0.0,0.0,0.0,0.0,0.0,0.0,0.0,0.0,0.0,0.0,0.0,0.0,0.0,0.0,0.0,0.0,0.0,0.0,0.0,0.0,0.0,0.0,0.0,0.0,0.0,0.0,0.0,0.0,0.0,0.0,0.0,0.0,0.0,0.0,0.0,0.0,0.0,0.0,0.0,0.0,0.0,0.0,0.0,0.0,0.0,0.0,0.0,2.334,2.4274,2.4909,2.5284,2.5313,2.5332,2.539,2.5015,2.4287,0.0,0.0,0.0,0.0,0.0,0.0,0.0,0.0,0.0,0.0,0.0,0.0,0.0,0.0,0.0,0.0,0.0,0.0,0.0,0.0,0.0,0.0,0.0,0.0,0.0,0.0,0.0,0.0,0.0,0.0,0.0,0.0,0.0,0.0,0.0,0.0,0.0,0.0,0.0,0.0,2.3542,2.4389,2.5187,0.0,0.0,0.0,0.0,0.0,0.0,2.3669,2.3456,0.0,0.0,0.0,0.0,0.0,0.0,0.0,0.0,0.0,0.0,0.0,0.0,0.0,0.0,0.0,0.0,0.0,0.0,0.0,0.0,0.0,0.0,0.0,0.0,0.0,0.0,0.0,0.0,0.0,0.0,0.0,0.0,0.0,0.0,0.0,0.0,0.0,0.0,0.0,0.0,0.0,0.0,0.0,0.0,0.0,0.0,0.0,0.0,0.0,0.0,0.0,0.0,0.0,0.0,0.0,2.2802,2.4312,2.5178,2.5332,2.5332,2.537,2.5428,2.4798,2.4051,0.0,0.0,0.0,0.0,0.0,0.0,0.0,0.0,0.0,0.0,0.0,0.0,0.0,0.0,0.0,0.0,0.0,0.0,0.0,0.0,0.0,0.0,0.0,0.0,0.0,0.0,0.0,0.0,0.0,0.0,0.0,0.0,0.0,0.0,0.0,0.0,0.0,0.0,0.0,0.0,0.0,2.4582,2.5187,2.462,0.0,0.0,0.0,0.0,2.4322,2.4183,0.0,0.0,0.0,0.0,0.0,0.0,0.0,0.0,0.0,0.0,0.0,0.0,0.0,0.0,0.0,0.0,0.0,0.0,0.0,0.0,0.0,0.0,0.0,0.0,0.0,0.0,0.0,0.0,0.0,0.0,0.0,0.0,0.0,0.0,0.0,0.0,0.0,0.0,0.0,0.0,0.0,0.0,0.0,0.0,0.0,0.0,0.0,0.0,0.0,0.0,0.0,0.0,0.0,0.0,0.0,0.0,2.281,2.383,2.4707,2.5428,2.5486,2.5505,2.5582,2.5495,2.4697,0.0,0.0,0.0,0.0,0.0,0.0,0.0,0.0,0.0,0.0,0.0,0.0,0.0,0.0,0.0,0.0,0.0,0.0,0.0,0.0,0.0,0.0,0.0,0.0,0.0,0.0,0.0,0.0,0.0,0.0,0.0,0.0,0.0,0.0,0.0,0.0,0.0,0.0,0.0,0.0,0.0,2.5207,2.5293,2.4601,2.436,0.0,0.0,2.436,2.5043,2.4988,0.0,0.0,0.0,0.0,0.0,0.0,0.0,0.0,0.0,0.0,0.0,0.0,0.0,0.0,0.0,0.0,0.0,0.0,0.0,0.0,0.0,0.0,0.0,0.0,0.0,0.0,0.0,0.0,0.0,0.0,0.0,0.0,0.0,0.0,0.0,0.0,0.0,0.0,0.0,0.0,0.0,0.0,0.0,0.0,0.0,0.0,0.0,0.0,0.0,0.0,0.0,0.0,0.0,0.0,0.0,2.0816,2.2857,2.4242,2.5117,2.5485,2.5505,2.5542,2.5601,2.5111,2.4335,0.0,0.0,0.0,0.0,0.0,0.0,0.0,0.0,0.0,0.0,0.0,0.0,0.0,0.0,0.0,0.0,0.0,0.0,0.0,0.0,0.0,0.0,0.0,0.0,0.0,0.0,0.0,0.0,0.0,0.0,0.0,0.0,0.0,0.0,0.0,0.0,0.0,0.0,0.0,0.0,0.0,0.0,2.5313,2.5005,0.0,0.0,0.0,2.472,2.5064,0.0,0.0,0.0,0.0,0.0,0.0,0.0,0.0,0.0,0.0,0.0,0.0,0.0,0.0,0.0,0.0,0.0,0.0,0.0,0.0,0.0,0.0,0.0,0.0,0.0,0.0,0.0,0.0,0.0,0.0,0.0,0.0,0.0,0.0,0.0,0.0,0.0,0.0,0.0,0.0,0.0,0.0,0.0,0.0,0.0,0.0,0.0,0.0,0.0,0.0,0.0,0.0,0.0,0.0,0.0,0.0,0.0,2.2898,2.4646,2.5532,2.5551,2.5554,2.5571,2.5607,2.4772,0.0,0.0,0.0,0.0,0.0,0.0,0.0,0.0,0.0,0.0,0.0,0.0,0.0,0.0,0.0,0.0,0.0,0.0,0.0,0.0,0.0,0.0,0.0,0.0,0.0,0.0,0.0,1.562,0.0,0.0,0.0,0.0,0.0,0.0,0.0,0.0,0.0,0.0,0.0,0.0,0.0,0.0,2.5313,2.5313,2.5313,2.5274,0.0,0.0,2.4998,2.4949,2.4693,2.4512,0.0,0.0,0.0,0.0,0.0,0.0,0.0,0.0,0.0,0.0,0.0,0.0,0.0,0.0,0.0,0.0,0.0,0.0,0.0,0.0,0.0,0.0,0.0,0.0,0.0,0.0,0.0,0.0,0.0,0.0,0.0,0.0,0.0,0.0,0.0,0.0,0.0,0.0,0.0,0.0,0.0,0.0,0.0,0.0,0.0,0.0,0.0,0.0,0.0,0.0,0.0,0.0,0.0,0.0,0.0,2.2998,2.471,2.5615,2.5682,2.5683,2.5703,2.5682,2.4844,2.4004,0.0,0.0,0.0,0.0,0.0,0.0,0.0,0.0,0.0,0.0,0.0,0.0,0.0,0.0,0.0,0.0,0.0,0.0,0.0,0.0,0.0,0.0,0.0,0.0,0.0,0.0,0.0,0.0,0.0,0.0,0.0,0.0,0.0,0.0,0.0,0.0,0.0,0.0,0.0,0.0,0.0,2.5303,2.5313,2.5313,2.5243,0.0,2.4991,2.4962,2.4828,2.4657,2.4512,2.4512,0.0,0.0,0.0,0.0,0.0,0.0,0.0,0.0,0.0,0.0,0.0,0.0,0.0,0.0,0.0,0.0,0.0,0.0,0.0,0.0,0.0,0.0,0.0,0.0,0.0,0.0,0.0,0.0,0.0,0.0,0.0,0.0,0.0,0.0,0.0,0.0,0.0,0.0,0.0,0.0,0.0,0.0,0.0,0.0,0.0,0.0,0.0,0.0,0.0,0.0,0.0,0.0,0.0,2.1293,2.2995,2.4744,2.5657,2.5703,2.5703,2.5703,2.5703,2.5371,2.4531,0.0,0.0,0.0,0.0,0.0,0.0,0.0,0.0,0.0,0.0,0.0,0.0,0.0,0.0,0.0,0.0,0.0,0.0,0.0,0.0,0.0,0.0,0.0,0.0,0.0,0.0,0.0,0.0,1.7882,1.8369,1.9215,0.0,0.0,0.0,0.0,0.0,0.0,0.0,0.0,0.0,0.0,2.6111,2.61,2.6563,0.0,0.0,2.6417,2.6118,2.5466,2.517,2.4894,2.4395,2.4266,0.0,0.0,0.0,0.0,0.0,0.0,0.0,0.0,0.0,0.0,0.0,0.0,0.0,0.0,0.0,0.0,0.0,0.0,0.0,0.0,0.0,0.0,0.0,0.0,0.0,0.0,0.0,0.0,0.0,0.0,0.0,0.0,0.0,0.0,0.0,0.0,0.0,0.0,0.0,0.0,0.0,0.0,0.0,0.0,0.0,0.0,0.0,0.0,0.0,0.0,0.0,0.0,2.1318,2.2976,2.4778,2.5703,2.5703,2.5703,2.5703,2.5703,2.5449,2.4629,0.0,0.0,0.0,0.0,0.0,0.0,0.0,0.0,0.0,0.0,0.0,0.0,0.0,0.0,0.0,0.0,0.0,0.0,0.0,0.0,0.0,0.0,0.0,0.0,0.0,0.0,0.0,0.0,1.8871,1.9357,2.0196,0.0,0.0,0.0,0.0,0.0,0.0,0.0,0.0,0.0,0.0,2.6688,2.6943,2.7503,2.7785,2.7461,2.7297,2.6843,2.5782,2.5704,2.5474,2.4685,0.0,0.0,0.0,0.0,0.0,0.0,0.0,0.0,0.0,0.0,0.0,0.0,0.0,0.0,0.0,0.0,0.0,0.0,0.0,0.0,0.0,0.0,0.0,0.0,0.0,0.0,0.0,1.4726,0.0,0.0,1.4977,0.0,0.0,0.0,0.0,0.0,0.0,0.0,0.0,0.0,0.0,0.0,0.0,0.0,0.0,0.0,0.0,0.0,0.0,0.0,0.0,0.0,0.0,2.1338,2.2995,2.4796,2.5703,2.5703,2.5703,2.5703,2.5684,2.4883,2.4043,2.3203,0.0,0.0,0.0,0.0,0.0,0.0,0.0,0.0,0.0,0.0,0.0,0.0,0.0,0.0,0.0,0.0,0.0,0.0,0.0,0.0,0.0,0.0,0.0,0.0,0.0,0.0,1.783,1.8511,1.9377,0.0,0.0,0.0,0.0,0.0,0.0,0.0,0.0,0.0,0.0,2.6574,2.6919,2.7746,2.7911,2.7821,2.7358,2.7242,2.6812,2.5667,2.6082,2.6319,0.0,0.0,0.0,0.0,0.0,0.0,0.0,0.0,0.0,0.0,0.0,0.0,0.0,0.0,0.0,0.0,0.0,0.0,0.0,0.0,0.0,0.0,0.0,0.0,0.0,0.0,0.0,1.6618,1.619,0.0,0.0,0.0,0.0,0.0,0.0,0.0,0.0,0.0,0.0,0.0,2.1985,2.284,0.0,0.0,0.0,0.0,0.0,0.0,0.0,0.0,0.0,0.0,0.0,0.0,2.1875,2.3076,2.4803,2.5703,2.5703,2.5703,2.5703,2.5703,2.541,2.4336,2.2402,0.0,0.0,0.0,0.0,0.0,0.0,0.0,0.0,0.0,0.0,0.0,0.0,0.0,0.0,0.0,0.0,0.0,0.0,0.0,0.0,0.0,0.0,0.0,0.0,0.0,1.9439,0.0,0.0,0.0,0.0,0.0,0.0,0.0,0.0,0.0,0.0,0.0,2.5101,2.5669,2.6727,2.7572,2.785,2.8845,2.9461,0.0,0.0,0.0,0.0,0.0,0.0,0.0,0.0,0.0,0.0,0.0,0.0,0.0,0.0,2.7425,2.5765,2.4353,2.3658,2.4335,0.0,0.0,0.0,0.0,0.0,0.0,0.0,0.0,0.0,0.0,0.0,0.0,0.0,0.0,1.8347,1.7944,1.8064,0.0,0.0,0.0,0.0,0.0,0.0,0.0,0.0,2.3043,2.3678,2.3697,2.4255,2.4216,0.0,2.3658,2.2947,0.0,0.0,0.0,0.0,0.0,0.0,0.0,0.0,2.232,2.3555,2.4949,2.5703,2.5703,2.5703,2.5703,2.5703,2.541,2.4473,2.2812,2.166,2.0137,0.0,0.0,0.0,0.0,0.0,0.0,0.0,0.0,0.0,0.0,0.0,0.0,0.0,0.0,0.0,0.0,0.0,0.0,0.0,0.0,0.0,0.0,0.0,2.0292,0.0,0.0,0.0,0.0,0.0,0.0,0.0,0.0,0.0,2.4928,2.5428,2.5967,2.6535,2.7613,2.8431,2.8729,0.0,0.0,0.0,0.0,0.0,0.0,0.0,2.8191,2.7897,2.8081,2.8305,2.839,2.905,2.9388,2.8802,0.0,0.0,2.7361,2.5991,2.5379,2.6335,2.6208,2.5988,2.6248,2.6092,2.5901,0.0,0.0,0.0,0.0,0.0,0.0,0.0,0.0,1.9667,1.9788,0.0,2.0077,0.0,0.0,0.0,0.0,2.0465,2.2043,0.0,0.0,2.487,2.5293,2.5274,2.5264,2.5284,2.5293,2.5245,2.4851,2.4052,2.2427,0.0,0.0,0.0,0.0,0.0,0.0,2.2639,2.4346,2.5247,2.5703,2.5703,2.5703,2.5703,2.5684,2.4902,2.4434,2.4336,2.2832,2.1562,2.0644,1.8924,0.0,0.0,0.0,0.0,0.0,0.0,0.0,0.0,0.0,0.0,0.0,0.0,0.0,0.0,0.0,0.0,0.0,0.0,0.0,0.0,2.0331,0.0,0.0,0.0,0.0,0.0,0.0,0.0,0.0,0.0,0.0,2.6582,2.6659,2.7237,2.8801,0.0,0.0,0.0,0.0,3.0573,3.086,3.0922,3.0789,3.0351,3.0858,3.1035,3.032,0.0,0.0,2.9861,2.9627,2.9366,2.8594,2.8869,2.9279,2.9954,2.8246,2.7147,2.8094,2.7502,2.7063,2.7604,2.7267,2.6809,2.1477,0.0,0.0,0.0,0.0,2.0994,2.1482,2.216,2.2204,2.1981,2.1601,2.163,0.0,0.0,0.0,0.0,0.0,0.0,2.386,2.4149,2.4928,2.5313,2.5313,2.5313,2.5313,2.5313,2.5313,2.5178,2.4947,2.4438,2.3062,2.0831,0.0,0.0,0.0,0.0,2.3893,2.441,2.5252,2.5703,2.5703,2.5703,2.5703,2.5703,2.5469,2.5039,2.4434,2.3926,2.3008,2.1602,2.0395,0.0,0.0,0.0,0.0,0.0,0.0,0.0,0.0,0.0,0.0,0.0,0.0,0.0,0.0,0.0,0.0,0.0,0.0,0.0,2.1023,2.1147,2.1405,0.0,0.0,0.0,0.0,0.0,0.0,0.0,0.0,0.0,2.8275,2.7871,2.7698,0.0,0.0,2.9173,2.9444,3.0528,3.1348,3.144,3.1659,0.0,3.1633,3.101,3.0668,3.098,3.1492,3.1683,3.1266,3.1129,3.0976,3.0466,3.0455,3.0662,3.0748,2.9532,2.8556,2.8728,2.8557,2.8383,2.8569,2.845,2.8163,2.318,2.2666,2.1826,2.1789,2.2299,2.2611,2.3105,2.367,2.3814,2.3667,2.3302,2.3441,2.2778,2.1617,2.2114,0.0,0.0,0.0,2.4582,2.4601,2.5082,2.5313,2.5313,2.5313,2.5313,2.5313,2.5313,2.5313,2.5313,2.5313,2.437,2.2639,0.0,0.0,2.2802,2.3848,2.4588,2.4922,2.543,2.5703,2.5703,2.5703,2.5703,2.5703,2.5703,2.5449,2.4941,2.4922,2.4297,2.2949,2.166,2.0354,0.0,0.0,0.0,0.0,0.0,0.0,0.0,0.0,0.0,0.0,0.0,1.7687,1.6369,0.0,0.0,0.0,1.9215,2.0542,2.1889,2.2013,0.0,0.0,0.0,0.0,0.0,0.0,0.0,2.7063,2.7852,2.8544,2.9055,2.9275,2.941,2.9406,2.9825,3.0248,3.0566,0.0,3.2231,3.2344,3.2538,3.2711,3.2801,3.2144,3.1737,3.2046,3.2157,3.2069,3.1827,3.1694,3.1472,3.1297,3.119,3.119,3.119,3.0446,2.9854,2.9837,2.9634,2.9516,2.9786,2.9664,2.9306,2.419,2.4135,2.3398,2.3087,2.3162,2.3878,2.4209,2.4284,2.4639,2.4818,2.4874,2.516,2.4791,2.3919,2.393,0.0,2.4225,2.4966,2.5293,2.5313,2.5313,2.5313,2.5313,2.5313,2.5313,2.5313,2.5313,2.5313,2.5313,2.5313,2.4966,2.4322,2.4302,2.4338,2.4397,2.4455,2.49,2.5684,2.5684,2.5703,2.5703,2.5703,2.5703,2.5703,2.5703,2.5703,2.5703,2.5703,2.5311,2.4492,2.2831,2.1515,2.0597,0.0,0.0,0.0,0.0,0.0,0.0,0.0,0.0,0.0,0.0,0.0,0.0,0.0,0.0,0.0,2.1139,0.0,2.2812,2.2917,0.0,0.0,0.0,2.5435,2.5495,2.6986,2.7986,2.7986,0.0,0.0,2.9313,3.0756,3.1814,3.1898,3.1845,3.2057,3.2808,3.2917,3.3121,3.3355,3.3487,3.3561,3.3709,3.3658,3.346,3.3128,3.2826,3.2318,3.1863,3.147,3.1213,3.119,3.119,3.119,3.119,3.114,3.119,3.1123,3.0632,3.0395,3.092,3.0617,3.0118,2.419,2.4171,2.3987,2.3914,2.3933,2.4098,2.4375,2.4654,2.476,2.4955,2.5171,2.5264,2.5158,2.4965,2.4946,2.4975,2.5014,2.5226,2.5313,2.5313,2.5313,2.5313,2.5313,2.5313,2.5313,2.5313,2.5313,2.5313,2.5313,2.5351,2.5313,2.5197,2.5255,2.4974,2.4451,2.5056,2.5481,2.5703,2.5703,2.5703,2.5703,2.5703,2.5703,2.5703,2.5703,2.5681,2.5626,2.5631,2.5499,2.5231,2.42,2.3207,2.2329,1.9831,0.0,0.0,0.0,0.0,0.0,0.0,0.0,0.0,0.0,2.0696,1.7927,0.0,2.1927,0.0,2.2004,2.2859,2.3706,2.3773,0.0,0.0,2.6051,2.657,2.7217,2.8179,2.8813,2.8824,3.014,3.1083,3.1064,3.1987,3.2872,3.3487,3.3026,3.2679,3.2878,3.348,3.3839,3.3777,3.4093,3.4325,3.4091,3.3928,3.3662,3.3273,3.2798,3.2353,3.1881,3.1453,3.119,3.119,3.119,3.119,3.119,3.119,3.119,3.119,3.1055,3.097,3.1157,3.1033,3.0779,2.419,2.419,2.419,2.419,2.419,2.419,2.4375,2.467,2.476,2.4936,2.5201,2.5667,2.589,2.5899,2.6274,2.6467,2.6467,2.6467,2.6467,2.6467,2.6447,2.6255,2.589,2.586,2.5687,2.5313,2.5313,2.5313,2.5313,2.537,2.5427,2.5499,2.5581,2.5406,2.5016,2.5479,2.5703,2.5703,2.5703,2.5703,2.5703,2.5703,2.5703,2.5703,2.5671,2.5634,2.5601,2.5563,2.5367,2.4969,2.4119,2.3407,2.2896,2.0792,1.9515,0.0,0.0,0.0,0.0,0.0,0.0,0.0,0.0,0.0,0.0,0.0,2.3158,2.2697,2.3408,2.4274,2.5139,2.5553,2.616,2.7082,2.7503,2.7896,2.839,2.9159,2.9679,2.9679,3.0871,3.1698,3.1718,3.2737,3.3641,3.4141,3.4103,3.4064,3.4083,3.4493,3.4664,3.4296,3.4491,3.4548,3.4093,3.3902,3.3578,3.2996,3.2681,3.2283,3.1666,3.1348,3.119,3.119,3.119,3.119,3.119,3.119,3.119,3.119,3.119,3.119,3.119,3.119,3.1055,2.419,2.419,2.419,2.419,2.419,2.4228,2.4357,2.4561,2.4731,2.4953,2.5275,2.6203,2.6659,2.6794,2.7544,2.789,2.789,2.789,2.789,2.789,2.789,2.7486,2.6774,2.6774,2.637,2.563,2.564,2.564,2.5659,2.5717,2.5777,2.5846,2.5902,2.5982,2.6035,2.5918,2.582,2.5703,2.5703,2.5703,2.5703,2.5703,2.5703,2.5703,2.5635,2.5582,2.5563,2.5524,2.5168,2.4445,2.3647,2.3214,2.3157,2.157,2.0946,0.0,2.0792,0.0,0.0,0.0,0.0,0.0,0.0,0.0,0.0,2.3687,2.4302,2.4418,2.5063,2.5832,2.6697,2.747,2.7942,2.8055,2.8675,2.9144,2.9275,2.9948,3.0448,3.0552,3.1314,3.1872,3.2122,3.341,3.4353,3.4468,3.4911,3.5249,3.5407,3.5364,3.5187,3.4773,3.4632,3.433,3.3928,3.3762,3.3502,3.2902,3.2537,3.2231,3.1806,3.1533,3.1382,3.1382,3.1517,3.1461,3.1258,3.1275,3.1309,3.1224,3.1095,3.1055,3.1151,3.119,3.119,2.419,2.419,2.419,2.419,2.4209,2.4375,2.4561,2.4746,2.479,2.5374,2.629,2.6514,2.6986,2.7659,2.7813,2.789,2.789,2.789,2.789,2.789,2.789,2.7832,2.7659,2.764,2.7563,2.7428,2.7409,2.7439,2.7488,2.7547,2.7624,2.7699,2.7764,2.7788,2.7773,0.0,0.0,0.0,2.5703,2.5703,2.5703,2.5703,2.5664,2.5625,2.5596,0.0,2.5447,2.5428,2.5332,2.513,2.4928,0.0,0.0,0.0,0.0,0.0,0.0,0.0,0.0,0.0,0.0,0.0,2.3611,2.3398,2.2898,2.4197,2.537,2.6043,2.6274,2.6717,2.7544,2.7804,2.8151,2.8794,2.9021,2.9356,3.0052,3.0314,3.066,3.1391,3.216,3.2929,3.3622,3.4622,3.5224,3.5205,3.5205,3.5187,3.5187,3.5169,3.504,3.4751,3.4307,3.3954,3.3834,3.3522,3.3563,3.3633,3.2754,3.2441,3.3161,3.2641,3.21,3.2094,3.2615,3.2527,3.1461,3.1664,3.1816,3.1309,3.0821,3.0601,3.1112,3.119,3.119,2.4557,2.419,2.419,2.419,0.0,2.4428,2.4832,2.5404,2.5489,2.6187,2.7274,2.7659,2.8082,2.8536,2.8948,2.914,2.914,2.914,2.914,2.914,2.914,2.889,2.8506,2.8486,2.8275,2.7909,2.792,2.795,2.7988,2.8106,2.8164,2.8203,2.8262,2.8281,2.8281,2.7851,2.7012,2.5723,2.5703,2.5703,2.5703,2.5662,2.5639,2.5605,2.5538,0.0,0.0,0.0,0.0,0.0,0.0,0.0,0.0,0.0,0.0,2.3849,2.3102,2.2806,2.3178,2.3237,2.3659,2.461,2.5091,2.5159,2.4697,2.5447,2.6313,2.7159,2.7582,2.8005,2.8448,2.8871,2.9294,2.9679,2.9744,2.9925,3.0359,3.0814,3.1198,3.1718,3.2776,3.3718,3.4141,3.4813,3.5266,3.5285,3.5091,3.4898,3.4905,3.4907,3.4806,3.4505,3.4111,3.3716,3.3577,3.3712,3.3633,3.3596,3.3263,3.3184,3.3631,3.3257,3.2848,3.2832,3.2883,3.2544,3.1952,3.1765,3.1647,3.1309,3.0975,3.0699,3.0797,3.0757,3.074,2.5217,2.463,2.463,2.4557,2.443,2.4685,2.5343,2.6337,2.6524,0.0,0.0,2.8824,2.9179,2.9371,3.0083,3.0398,3.0398,3.0398,3.0398,3.0398,3.0398,3.0025,2.9333,2.9333,2.8986,2.839,2.842,2.8469,2.8489,2.8597,2.8657,2.8671,2.8745,2.8691,2.8555,2.8516,2.7754,2.623,2.5996,2.5859,2.5703,2.5635,2.5607,2.5572,2.5466,2.539,2.539,2.5332,2.5005,2.4351,2.4322,2.4302,2.4322,2.4302,2.4543,2.5,2.5022,2.4989,2.499,2.4977,2.5111,2.5454,2.6177,2.6621,2.6621,2.6755,2.7178,2.8025,2.8717,2.9159,2.9313,2.9948,3.0398,3.0343,3.0337,3.035,3.0522,3.1156,3.1706,3.2129,3.3281,3.4216,3.4375,3.4751,3.5035,3.4996,3.4773,3.4568,3.4562,3.4569,3.4505,3.4171,3.3858,3.3587,3.3544,3.3651,3.3876,3.3641,3.3792,3.3894,3.3842,3.37,3.3599,3.3562,3.3076,3.2613,3.2225,3.1655,3.1167,3.0895,3.0797,3.0576,3.0123,2.9995,3.0038,2.6355,2.6264,2.6264,2.5878,2.5277,2.5624,2.6479,2.7624,2.7665,2.8148,2.8929,2.9044,2.9525,3.0237,3.034,3.0398,3.0398,3.0398,3.0398,3.0398,3.0398,3.034,3.0237,3.0237,3.0198,3.014,3.014,3.0217,3.0294,3.0325,3.0397,3.0474,3.0546,3.0137,2.9473,2.9414,2.8926,2.7949,2.7207,2.6465,2.5723,2.5635,2.5572,2.552,2.5428,2.539,2.5313,2.5313,2.5245,2.513,2.5139,2.5139,2.512,2.512,2.5168,2.5234,2.5099,2.5,2.4996,2.4898,2.5219,2.6072,2.6442,2.6621,2.6621,2.7294,2.8044,2.8832,2.9063,2.941,3.0102,3.0302,3.0292,3.0095,3.006,3.0269,3.0779,3.1226,3.1981,3.3242,3.3684,3.42,3.4759,3.4831,3.4754,3.4716,3.4471,3.4196,3.4073,3.4117,3.4141,3.3902,3.3532,3.3563,3.3804,3.3563,3.3731,3.477,3.4069,3.4083,3.4975,3.4684,3.4351,3.4331,3.4112,3.3412,3.1998,3.1487,3.0919,3.0071,2.9496,2.9042,2.8904,2.8873,2.9134,2.6998,2.6631,2.6612,2.6392,2.6103,2.6984,2.7804,2.8582,2.9063,2.9448,2.9794,2.9794,3.0025,3.0379,3.0398,3.0398,3.0398,3.0398,3.0398,3.0398,3.0398,3.0398,3.0398,3.0398,3.0417,3.0498,3.053,3.0617,3.0706,3.0766,3.0837,3.0898,3.0918,3.0703,3.0332,3.0293,2.9883,2.9004,2.8144,2.7483,2.7058,2.6533,2.6215,2.615,2.5649,2.5351,2.5313,2.5313,2.5313,2.5313,2.5313,2.5313,2.5313,2.5313,2.5253,2.5141,2.4981,2.4898,2.4883,2.5242,2.5643,2.6119,2.7166,2.7802,2.7783,2.8269,2.889,2.9698,2.9794,2.9894,3.0171,3.0177,3.0088,2.9861,3.0332,3.0804,3.1189,3.2105,3.295,3.3696,3.4089,3.4453,3.4851,3.4614,3.4423,3.4383,3.4157,3.3957,3.3823,3.3902,3.3858,3.3532,3.3321,3.3293,3.3562,3.3665,3.396,3.4727,3.4729,3.4861,3.5537,3.5267,3.5138,3.5049,3.4516,3.3539,3.2133,3.1328,3.0509,2.9733,2.9225,2.8919,2.8638,2.8497,2.8825,2.7714,2.7163,2.7145,2.708,2.7115,2.8067,2.8732,2.9198,3.0006,3.0398,3.0398,3.0398,3.0398,3.0398,3.0398,3.0398,3.0398,3.0398,3.0398,3.0398,3.0398,3.0398,3.0398,3.0417,3.0467,3.0529,3.0585,3.0665,3.0746,3.0849,3.0918,3.0918,3.0918,3.0918,3.0918,3.0918,3.0544,2.986,2.9194,2.8635,2.8192,2.7442,2.6958,2.667,2.5976,2.5505,2.5322,2.5313,2.5313,2.5313,2.5313,2.5274,2.5224,2.5243,2.5217,2.5197,2.495,2.4861,2.5042,2.577,2.6279,2.651,2.7843,2.8779,2.9003,2.9148,2.9525,3.0183,3.0203,3.0122,2.9984,2.9942,2.9918,2.9942,3.0621,3.1222,3.1654,3.2822,3.3711,3.3865,3.4319,3.4553,3.4529,3.4311,3.4141,3.4093,3.3928,3.3834,3.3807,3.3917,3.388,3.3467,3.3376,3.3655,3.3577,3.4029,3.4461,3.4694,3.5199,3.547,3.5622,3.5622,3.5622,3.5414,3.4571,3.3458,3.2475,3.1345,3.013,2.9186,2.8826,2.8732,2.8319,2.8242,2.8466,2.881,2.8796,2.87,2.8563,2.8253,2.8449,2.877,2.9206,3.0025,3.0398,3.0398,3.0398,3.0398,3.0398,3.0398,3.0398,3.0398,3.0398,3.0398,3.0398,3.0398,3.0398,3.0398,3.0467,3.0544,3.0595,3.0648,3.0739,3.0879,3.0898,3.0918,3.0918,3.0918,3.0918,3.0918,3.0918,3.0778,3.0606,3.0527,2.9751,2.8295,2.7984,2.7507,2.6718,2.6573,2.6101,2.5437,2.5313,2.5303,2.5313,2.5322,2.5214,2.5084,2.5022,2.5298,2.5857,2.5238,2.5023,2.5596,2.6388,2.7126,2.7811,2.8198,2.8806,2.9485,2.9616,2.975,2.9973,2.988,2.978,2.9729,2.9746,2.9979,3.0368,3.0683,3.114,3.2249,3.2823,3.334,3.4083,3.4218,3.4265,3.4218,3.4018,3.3868,3.3895,3.3842,3.3807,3.3862,3.4321,3.4495,3.3942,3.3963,3.459,3.5134,3.5304,3.515,3.5355,3.5537,3.5639,3.5639,3.5639,3.5594,3.5321,3.4841,3.3682,3.2187,3.0973,2.9896,2.8593,2.8084,2.7795,2.771,2.773,2.7978,2.8975,2.8975,2.8975,2.9087,2.9168,2.9317,2.9579,2.9898,3.0225,3.0398,3.0398,3.0398,3.0398,3.0398,3.0398,3.0398,3.0398,3.0398,3.0398,3.0398,3.0398,3.0398,3.0398,3.0487,3.0527,3.0595,3.0672,3.0777,3.0898,3.0918,3.0918,3.0918,3.0918,3.0918,3.0918,3.0918,3.0829,3.0702,3.066,3.0283,2.9598,2.8994,2.8514,2.8129,2.764,2.7236,2.6832,2.6351,2.6063,2.6072,2.5929,2.581,2.573,2.6086,2.642,2.666,2.63,2.611,2.6225,2.6998,2.7567,2.7904,2.8593,2.9139,2.9476,2.9514,2.9551,2.9644,2.9697,2.9661,2.9608,2.9944,3.0265,3.0506,3.1336,3.2228,3.2741,3.3361,3.3883,3.4139,3.4087,3.3961,3.3979,3.3868,3.3807,3.3807,3.3807,3.378,3.3835,3.4243,3.4612,3.4745,3.5057,3.5117,3.5191,3.4947,3.5087,3.5474,3.5639,3.5639,3.5639,3.5639,3.5508,3.51,3.4508,3.3518,3.1902,3.1016,2.9968,2.8644,2.7805,2.756,2.756,2.756,2.776,2.8975,2.9017,2.9067,2.9334,2.9713,2.9924,3.015,3.0379,3.0398,3.0398,3.0398,3.0398,3.0398,3.0398,3.0398,3.0398,3.0398,3.0398,3.0398,3.0398,3.0398,3.0398,3.0436,3.0506,3.0558,3.0618,3.0715,3.0817,3.0898,3.0918,3.0918,3.0918,3.0918,3.0918,3.0898,3.0866,3.0798,3.0695,3.0609,3.0544,3.039,2.9852,2.9398,2.9106,2.8552,2.814,2.7907,2.7283,2.6907,2.6845,2.6657,2.6502,2.6427,2.6874,2.7112,2.7165,2.7365,2.7324,2.7056,2.771,2.8137,2.8172,2.8867,2.9289,2.9289,2.9289,2.9289,2.931,2.9435,2.9472,2.9706,3.0129,3.0553,3.0888,3.2151,3.2915,3.3228,3.3777,3.4056,3.4068,3.3928,3.3734,3.3662,3.3606,3.3616,3.3606,3.3634,3.3769,3.3975,3.4352,3.486,3.5363,3.5755,3.5758,3.5147,3.5173,3.5317,3.5368,3.5639,3.5639,3.5639,3.5639,3.5392,3.4906,3.4216,3.3291,3.1977,3.1022,3.0358,2.9259,2.8472,2.8113,2.8293,2.806,2.7916,2.8975,2.904,2.9267,2.9513,2.9712,2.9924,3.015,3.0398,3.0398,3.0398,3.0398,3.0398,3.0398,3.0398,3.0398,3.0398,3.0398,3.0398,3.0398,3.0398,3.0398,3.0448,3.0506,3.0564,3.0633,3.0683,3.0813,3.0879,3.0918,3.0918,3.0918,3.0918,3.0918,3.0918,3.0879,3.0787,3.0675,3.0622,3.0549,3.0487,3.0417,3.034,2.9906,2.924,2.9091,2.8714,2.8073,2.7876,2.7727,2.7458,2.7418,2.726,2.6933,2.6972,2.7047,2.7102,2.8167,2.8614,2.8182,2.8547,2.8883,2.8902,2.8966,2.904,2.9044,2.9044,2.9044,2.9021,2.914,2.9416,3.0079,3.0341,3.0946,3.2162,3.2517,3.3038,3.3668,3.3776,3.3815,3.3842,3.3788,3.3578,3.3273,3.3214,3.3299,3.3304,3.3291,3.3525,3.4191,3.4912,3.526,3.5346,3.5763,3.6305,3.6281,3.5916,3.5831,3.5766,3.5639,3.5622,3.5639,3.5537,3.5179,3.4824,3.4415,3.3561,3.2201,3.1297,3.0738,3.0023,2.9469,2.9205,2.8996,2.8807,2.8641,2.8975,2.9044,2.9416,2.9625,2.9748,3.0095,3.0311,3.0398,3.0398,3.0398,3.0398,3.0398,3.0398,3.0398,3.0398,3.0398,3.0398,3.0398,3.0398,3.0398,3.0448,3.0487,3.0525,3.0621,3.0679,3.0711,3.082,3.0918,3.0918,3.0918,3.0918,3.0918,3.0918,3.0918,3.0879,3.077,3.0659,3.0598,3.0532,3.0467,3.0398,3.0398,3.0244,2.9963,2.9936,2.9802,2.9509,2.8842,2.844,2.8322,2.8048,2.7828,2.7716,2.8038,2.8249,2.8283,2.8732,2.8915,2.8732,2.8883,2.8975,2.8975,2.8975,2.8975,2.8975,2.8975,2.8975,2.9067,2.9531,3.0118,3.0723,3.095,3.1415,3.2394,3.3065,3.3468,3.3733,3.3807,3.3807,3.378,3.3578,3.3243,3.2934,3.3014,3.3244,3.3453,3.3736,3.4071,3.4482,3.5028,3.5276,3.529,3.5582,3.5915,3.5881,3.5837,3.5766,3.5694,3.5622,3.556,3.556,3.5515,3.5252,3.4183,3.3971,3.3431,3.1967,3.1217,3.0754,3.0548,3.0058,2.9894,2.9579,2.9402,2.9297,2.9062,2.9181,2.9551,2.9748,2.9829,3.0228,3.0398,3.0398,3.0398,3.0398,3.0398,3.0398,3.0533,3.0737,3.0525,3.0571,3.0756,3.0552,3.0417,3.0436,3.0487,3.0525,3.0583,3.066,3.0741,3.0777,3.0852,3.0918,3.0918,3.0918,3.0918,3.0918,3.0918,3.0871,3.0821,3.0734,3.0635,3.0568,3.0506,3.0467,3.0398,3.0398,3.0398,3.0379,3.033,3.0273,3.026,2.9574,2.9121,2.8966,2.8671,2.8476,2.8447,2.8776,2.8975,2.8975,2.8998,2.8975,2.8975,2.8975,2.8975,2.8975,2.8975,2.8975,2.8975,2.8975,2.8975,2.9163,2.9732,3.0522,3.1219,3.1629,3.2125,3.2852,3.3476,3.3807,3.3807,3.3807,3.3753,3.355,3.3196,3.2809,3.2453,3.2831,3.3143,3.3413,3.387,3.4341,3.4795,3.504,3.5266,3.5307,3.547,3.5661,3.5711,3.5694,3.5694,3.5622,3.5515,3.5498,3.5352,3.5323,3.4878,3.3774,3.3019,3.2579,3.1952,3.1189,3.0926,3.0791,3.0731,3.0597,3.0317,3.0052,2.9958,2.9156,2.9394,2.9607,2.9813,3.0018,3.0286,3.0398,3.0398,3.0467,3.0564,3.0583,3.0513,3.1083,3.1429,3.1006,3.0948,3.1352,3.0852,3.0525,3.0506,3.0506,3.0583,3.0679,3.07,3.078,3.0879,3.0879,3.0918,3.0918,3.0918,3.0918,3.0918,3.0898,3.082,3.0694,3.0651,3.0582,3.0505,3.0436,3.0398,3.0398,3.0398,3.0379,3.0355,3.015,3.0022,2.9984,2.992,2.9685,2.94,2.9319,2.9249,2.8975,2.898,2.8975,2.8975,2.8975,2.8975,2.8975,2.8975,2.8975,2.8975,2.8975,2.8975,2.8975,2.8975,2.9012,2.9255,2.9861,3.0613,3.1421,3.2162,3.2878,3.3623,3.3788,3.3807,3.378,3.3762,3.3606,3.3166,3.2745,3.2298,3.2107,3.2524,3.3018,3.3231,3.3789,3.4466,3.507,3.524,3.5334,3.5494,3.5599,3.5605,3.5639,3.5622,3.5577,3.5515,3.5436,3.5311,3.494,3.4751,3.4153,3.3224,3.2602,3.216,3.1894,3.1285,3.133,3.1255,3.1213,3.1153,3.0974,3.0693,3.0604,2.9156,2.9415,2.96,2.9817,3.0028,3.0279,3.0398,3.0475,3.1025,3.1295,3.1391,3.1872,3.2275,3.2429,3.2218,3.1948,3.1698,3.1383,3.1018,3.0583,3.0583,3.0652,3.0711,3.0808,3.086,3.0898,3.0918,3.0918,3.0918,3.0918,3.0918,3.0898,3.0792,3.0732,3.0683,3.0595,3.0527,3.0498,3.0417,3.0398,3.0398,3.0398,3.0311,3.0117,3.0047,2.9896,2.9626,2.9589,2.9532,2.9373,2.9243,2.9108,2.9017,2.8975,2.8975,2.8975,2.8975,2.8975,2.8975,2.8975,2.8975,2.8975,2.8975,2.8975,2.8975,2.8975,2.9232,2.9769,3.0558,3.1347,3.2155,3.2944,3.3476,3.3788,3.3807,3.368,3.3419,3.3136,3.2727,3.2332,3.2092,3.1842,3.172,3.2324,3.3062,3.3365,3.418,3.4998,3.5331,3.5467,3.546,3.5588,3.5622,3.5622,3.5577,3.547,3.5299,3.5207,3.5098,3.4775,3.4419,3.4071,3.3451,3.2841,3.2272,3.1894,3.164,3.1467,3.1467,3.1467,3.1362,3.1377,3.1437,3.1317,3.1051,2.9299,2.9532,2.9723,2.9927,3.015,3.0343,3.0398,3.0525,3.1333,3.1698,3.1852,3.2545,3.3103,3.3199,3.2763,3.2359,3.2083,3.1576,3.1037,3.0606,3.0617,3.0703,3.078,3.0836,3.0918,3.0918,3.0918,3.0918,3.0918,3.0918,3.0879,3.0801,3.0733,3.0671,3.0621,3.0544,3.0487,3.0467,3.0417,3.0398,3.0398,3.0398,3.0267,3.0028,2.9924,2.9731,2.9414,2.931,2.9265,2.9225,2.9089,2.8998,2.8975,2.8975,2.8975,2.8975,2.8975,2.8975,2.8975,2.8975,2.8975,2.8975,2.8975,2.8975,2.8975,2.8975,2.9365,3.0136,3.0907,3.1715,3.2522,3.333,3.3698,3.3578,3.3707,3.3606,3.3196,3.2616,3.2213,3.1897,3.1696,3.1606,3.1827,3.2423,3.3305,3.3794,3.4686,3.5377,3.5576,3.5605,3.5622,3.5622,3.5622,3.5577,3.5577,3.5362,3.5035,3.4894,3.4736,3.4233,3.373,3.3393,3.2949,3.2342,3.1784,3.1754,3.1467,3.1467,3.1467,3.1467,3.1467,3.1467,3.1467,3.1467,3.1332,2.9516,2.975,2.9915,3.0128,3.0386,3.0494,3.0571,3.0679,3.1564,3.2025,3.2141,3.2949,3.3603,3.3814,3.2878,3.2474,3.2564,3.1499,3.0794,3.0651,3.0623,3.0714,3.0871,3.0898,3.0918,3.0918,3.0918,3.0918,3.0918,3.0918,3.0845,3.0712,3.0687,3.0621,3.0544,3.0487,3.0467,3.0398,3.0398,3.0379,3.0355,3.0355,3.0228,2.9939,2.9763,2.957,2.9332,2.9156,2.9021,2.9017,2.9017,2.8975,2.8975,2.8975,2.8975,2.8975,2.8975,2.8975,2.8975,2.8975,2.8975,2.8975,2.8975,2.903,2.914,2.9232,2.9641,3.0522,3.1201,3.1854,3.2635,3.3268,3.3496,3.3255,3.3314,3.3284,3.3075,3.2298,3.1806,3.1696,3.1483,3.1444,3.2087,3.2872,3.3617,3.4304,3.5043,3.548,3.5571,3.5639,3.5639,3.5577,3.5532,3.5532,3.547,3.4769,3.4496,3.4333,3.4104,3.3579,3.3118,3.2819,3.2477,3.194,3.1584,3.1539,3.1467,3.1467,3.1467,3.1467,3.1467,3.1467,3.1467,3.1467,3.1467,2.9602,2.992,2.9978,3.0157,3.0475,3.1064,3.1371,3.1564,3.2891,3.343,3.368,3.4449,3.4795,3.4988,3.3987,3.3378,3.2724,3.1884,3.1153,3.0729,3.0689,3.0749,3.0879,3.0898,3.0898,3.0898,3.0898,3.0918,3.0918,3.0898,3.0817,3.0702,3.0641,3.0583,3.0506,3.0448,3.0398,3.0398,3.0398,3.0279,3.0136,3.0103,2.9908,2.9589,2.9513,2.9353,2.9115,2.9021,2.8975,2.8975,2.8975,2.8975,2.8975,2.8975,2.8975,2.8975,2.8975,2.8975,2.8975,2.8975,2.8975,2.8975,2.9067,2.9274,2.9843,2.9898,3.0577,3.1604,3.221,3.2428,3.2946,3.3187,3.3118,3.2745,3.2565,3.2382,3.2196,3.1714,3.1351,3.1351,3.1252,3.1602,3.2256,3.2949,3.3727,3.444,3.5128,3.5639,3.5639,3.5508,3.5434,3.535,3.5316,3.5362,3.5115,3.435,3.3887,3.3735,3.3415,3.294,3.2567,3.2214,3.1931,3.1554,3.1554,3.1524,3.1467,3.1467,3.1467,3.1467,3.1467,3.1467,3.1467,3.1467,3.1394,2.9795,3.0052,3.0516,3.0809,3.1044,3.1833,3.2218,3.2449,3.3583,3.4199,3.4334,3.4699,3.4949,3.4834,3.3711,3.2929,3.2404,3.1691,3.1114,3.0794,3.0754,3.0825,3.0898,3.0898,3.087,3.0818,3.0818,3.0801,3.0781,3.078,3.0716,3.0623,3.0583,3.0525,3.0467,3.0417,3.0398,3.0367,3.0299,3.015,3.0013,2.9908,2.9713,2.9435,2.9373,2.9267,2.9044,2.8975,2.8975,2.8975,2.8975,2.8975,2.8975,2.8975,2.8975,2.8975,2.8975,2.8975,2.8975,2.8994,2.9177,2.9428,2.9507,2.9934,3.0503,3.0723,3.1304,3.2092,3.232,3.2524,3.2768,3.2723,3.2479,3.223,3.1806,3.164,3.177,3.1487,3.1213,3.119,3.1241,3.163,3.256,3.3152,3.3872,3.4711,3.5294,3.5554,3.5594,3.5404,3.5188,3.5118,3.4752,3.4544,3.435,3.37,3.3235,3.3077,3.2795,3.2322,3.2087,3.181,3.169,3.1539,3.1524,3.1467,3.1467,3.1467,3.1467,3.1467,3.1467,3.1467,3.1467,3.101,3.0982,3.0092,3.0266,3.1283,3.1751,3.1929,3.2679,3.3045,3.3199,3.4026,3.4334,3.4237,3.4218,3.4237,3.3968,3.2724,3.1853,3.1827,3.1167,3.0865,3.0765,3.084,3.0898,3.0879,3.0859,3.0798,3.0723,3.0702,3.0675,3.0664,3.062,3.0552,3.0524,3.0525,3.0467,3.0417,3.0398,3.0398,3.0355,3.015,3.0013,2.9889,2.9763,2.9551,2.9353,2.931,2.9203,2.9044,2.8975,2.8975,2.8975,2.8975,2.8975,2.8975,2.8975,2.8975,2.8975,2.8975,2.8975,2.8975,2.8994,2.9302,2.9817,3.002,3.0497,3.1042,3.1263,3.152,3.2133,3.2049,3.2232,3.229,3.2039,3.1793,3.1716,3.1428,3.1411,3.1565,3.1411,3.119,3.119,3.119,3.1918,3.2865,3.3508,3.3914,3.5074,3.552,3.5571,3.5434,3.5162,3.4919,3.4769,3.4235,3.3582,3.3339,3.3039,3.268,3.2422,3.2104,3.1792,3.1777,3.1622,3.1537,3.1467,3.1467,3.1467,3.1467,3.1467,3.1467,3.1409,3.1278,3.1278,3.1233,3.044,3.0133,3.0529,3.136,3.1584,3.2077,3.2737,3.3526,3.3891,3.3987,3.4814,3.4661,3.4295,3.4199,3.3814,3.3211,3.2238,3.184,3.177,3.1099,3.075,3.0858,3.0873,3.0898,3.085,3.0787,3.0723,3.0698,3.0641,3.0609,3.0586,3.0588,3.0554,3.0479,3.0487,3.0467,3.0398,3.0398,3.0398,3.0355,3.0136,2.9908,2.9729,2.957,2.9353,2.9134,2.9112,2.9067,2.9021,2.8975,2.8975,2.8975,2.8975,2.8975,2.8975,2.8975,2.8975,2.8975,2.8975,2.8975,2.8994,2.902,2.9221,2.9719,2.9952,3.017,3.1189,3.138,3.1724,3.2204,3.2367,3.2221,3.1951,3.1585,3.1414,3.1334,3.1291,3.123,3.1291,3.1252,3.119,3.119,3.1224,3.1749,3.3169,3.3372,3.4083,3.5284,3.5622,3.5622,3.5298,3.4906,3.4546,3.4252,3.3479,3.2879,3.2826,3.2516,3.2216,3.2007,3.1682,3.1467,3.1467,3.1467,3.1467,3.1467,3.1467,3.1467,3.1467,3.1467,3.1467,3.1278,3.1102,3.097,3.069,2.99,2.9256,3.0762,3.1686,3.1712,3.2385,3.341,3.3583,3.4045,3.4603,3.4372,3.4282,3.407,3.3513,3.2859,3.2423,3.1686,3.1328,3.1303,3.1014,3.0821,3.0879,3.0843,3.0812,3.0781,3.0684,3.0621,3.0621,3.0583,3.0544,3.0525,3.0525,3.0479,3.0448,3.0448,3.0448,3.0398,3.0379,3.0323,3.0182,2.9988,2.9782,2.9551,2.9332,2.9178,2.904,2.8975,2.8975,2.8975,2.8975,2.8975,2.8975,2.8975,2.8975,2.8975,2.8975,2.8975,2.8975,2.8975,2.8883,2.8805,2.9077,2.9458,2.9859,3.016,3.0894,3.1593,3.1865,3.1874,3.2107,3.2109,3.1986,3.1565,3.1372,3.119,3.119,3.119,3.119,3.119,3.119,3.119,3.119,3.119,3.2002,3.278,3.3271,3.415,3.5334,3.5543,3.5515,3.4851,3.4447,3.3861,3.3423,3.2625,3.2216,3.2256,3.2104,3.1739,3.1625,3.1582,3.1467,3.1467,3.1467,3.1467,3.1467,3.1467,3.1467,3.1467,3.1467,3.1467,3.1409,3.1161,3.0777,3.0257,2.9622,2.894,3.091,3.1718,3.1712,3.2609,3.3737,3.3256,3.3699,3.4661,3.3564,3.3359,3.357,3.2365,3.1969,3.1571,3.1064,3.0722,3.0784,3.0841,3.0879,3.0837,3.0773,3.0723,3.067,3.0579,3.0544,3.0583,3.0506,3.0467,3.0417,3.0398,3.0417,3.0398,3.0398,3.0398,3.0398,3.0323,3.0222,3.0028,2.9799,2.9607,2.9414,2.9178,2.904,2.8998,2.8975,2.8975,2.8975,2.8975,2.8975,2.8975,2.8975,2.8975,2.8975,2.8975,2.8929,2.891,2.8863,2.8662,2.856,2.9003,2.9619,3.0085,3.0715,3.1436,3.1967,3.2057,3.1934,3.179,3.1696,3.1603,3.1269,3.119,3.119,3.119,3.119,3.119,3.119,3.119,3.119,3.119,3.1258,3.185,3.2747,3.344,3.4387,3.5138,3.5357,3.5253,3.4594,3.3928,3.3356,3.2926,3.2272,3.1853,3.1894,3.1879,3.1524,3.1467,3.1467,3.1467,3.1467,3.1467,3.1467,3.1467,3.1467,3.1467,3.1467,3.1467,3.1467,3.1482,3.097,3.0208,2.9642,2.9254,2.8492,3.0898,3.1718,3.1712,3.225,3.3026,3.2929,3.3045,3.3276,3.3071,3.2673,3.2249,3.198,3.1458,3.1039,3.0825,3.0757,3.084,3.0859,3.0825,3.0754,3.0706,3.066,3.0602,3.0525,3.0506,3.0506,3.0467,3.0398,3.0398,3.0398,3.0398,3.0398,3.0398,3.0398,3.0323,3.0196,3.0056,2.9924,2.9661,2.9454,2.933,2.9156,2.8975,2.8975,2.8975,2.8975,2.8975,2.8975,2.8975,2.8975,2.8975,2.8975,2.8952,2.8952,2.8797,2.8615,2.8515,2.8347,2.8161,2.8712,2.9228,2.9674,3.0364,3.0938,3.1339,3.1449,3.1487,3.1428,3.1351,3.1291,3.123,3.119,3.119,3.119,3.119,3.119,3.119,3.119,3.119,3.119,3.1326,3.1698,3.2696,3.3516,3.4199,3.4779,3.502,3.4795,3.4201,3.3504,3.2848,3.2415,3.2007,3.1739,3.1582,3.1567,3.1467,3.1467,3.1467,3.1467,3.1467,3.1467,3.1467,3.1467,3.1467,3.1467,3.1467,3.1467,3.1351,3.1292,3.045,2.9504,2.8989,2.8542,2.7657,3.091,3.1641,3.1225,3.1763,3.2602,3.1948,3.2148,3.2763,3.2109,3.1796,3.1744,3.1476,3.1134,3.086,3.0806,3.0843,3.0859,3.0818,3.0754,3.0691,3.0641,3.0602,3.0544,3.0487,3.0448,3.0436,3.0398,3.0398,3.0398,3.0398,3.0398,3.0398,3.0398,3.0398,3.0323,3.015,2.9954,2.9813,2.9551,2.933,2.9203,2.9044,2.8998,2.8975,2.8975,2.8975,2.8975,2.8975,2.8975,2.8975,2.8975,2.8863,2.8749,2.8658,2.859,2.8376,2.8219,2.7978,2.7879,2.8523,2.9248,2.9357,3.023,3.0908,3.1133,3.123,3.119,3.119,3.119,3.119,3.119,3.119,3.119,3.119,3.119,3.119,3.119,3.119,3.1207,3.1224,3.1309,3.185,3.2949,3.3609,3.4061,3.4376,3.4667,3.4297,3.3764,3.3091,3.2376,3.2065,3.1739,3.1682,3.1467,3.1467,3.1467,3.1467,3.1467,3.1467,3.1467,3.1467,3.1467,3.1467,3.1467,3.1336,3.1467,3.1467,3.1278,3.097,3.0269,2.9504,2.8529,2.7696,2.7002,3.0814,3.1371,3.0686,3.1179,3.2064,3.1025,3.1186,3.2039,3.1148,3.1027,3.1578,3.11,3.0856,3.0879,3.0898,3.0877,3.0875,3.0742,3.0706,3.0633,3.0564,3.0506,3.0467,3.0417,3.0398,3.0398,3.0398,3.0398,3.0398,3.0398,3.0398,3.0398,3.0398,3.0355,3.0267,3.0032,2.9864,2.9643,2.9415,2.9203,2.9044,2.8975,2.8975,2.8975,2.8975,2.8975,2.8975,2.8975,2.8975,2.8952,2.8905,2.8725,2.8464,2.8272,2.8174,2.8139,2.7926,2.7595,2.7622,2.8531,2.9208,2.9126,3.0387,3.0999,3.119,3.119,3.119,3.119,3.119,3.119,3.119,3.119,3.119,3.119,3.119,3.119,3.119,3.1224,3.1376,3.1376,3.136,3.1996,3.3069,3.3517,3.3918,3.4008,3.4261,3.3663,3.3114,3.2622,3.204,3.176,3.1524,3.1582,3.1467,3.1467,3.1467,3.1467,3.1467,3.1467,3.1467,3.1467,3.1467,3.1424,3.1087,3.1029,3.1219,3.1278,3.0955,3.0524,3.0147,2.938,2.8285,2.7498,2.6921,3.0467,3.0552,3.0448,3.0533,3.0706,3.0564,3.0583,3.0802,3.0756,3.0737,3.0981,3.0898,3.0879,3.0898,3.0898,3.0837,3.0759,3.07,3.0641,3.0564,3.0506,3.0467,3.0417,3.0398,3.0398,3.0398,3.0398,3.0398,3.0398,3.0398,3.0398,3.0398,3.0343,3.0279,3.0089,2.9864,2.9625,2.9415,2.9181,2.9044,2.9017,2.8975,2.8975,2.8975,2.8975,2.8975,2.8975,2.8952,2.8929,2.891,2.8633,2.8446,2.8316,2.7747,2.7482,2.7439,2.7348,2.721,2.7142,2.8254,2.911,2.9254,3.037,3.1016,3.119,3.119,3.119,3.119,3.119,3.119,3.119,3.119,3.119,3.119,3.119,3.1151,3.1151,3.1207,3.136,3.1623,3.1625,3.2278,3.3177,3.3411,3.37,3.3777,3.3712,3.3101,3.2555,3.2114,3.185,3.1584,3.1467,3.1467,3.1467,3.1467,3.1467,3.1467,3.1467,3.1467,3.1467,3.1482,3.1395,3.1264,3.0881,3.0598,3.0703,3.0644,3.045,2.9889,2.9254,2.8556,2.7855,2.7258,2.6731,3.0398,3.0398,3.0417,3.0467,3.0467,3.0525,3.0583,3.0621,3.066,3.0723,3.0803,3.0879,3.0918,3.0898,3.0841,3.0757,3.0675,3.0621,3.0564,3.0506,3.0467,3.0417,3.0398,3.0398,3.0398,3.0398,3.0398,3.0398,3.0398,3.0398,3.0398,3.0374,3.0251,3.0132,2.9924,2.9678,2.9513,2.9332,2.9156,2.8998,2.8975,2.8975,2.8975,2.8975,2.8975,2.8994,2.8947,2.8749,2.8682,2.8608,2.8308,2.7992,2.7805,2.7452,2.7224,2.6971,2.6971,2.6873,2.6945,2.8215,2.8807,2.9343,3.0264,3.1157,3.119,3.119,3.119,3.119,3.119,3.119,3.119,3.119,3.119,3.119,3.1055,3.0821,3.0838,3.1145,3.1274,3.1592,3.1907,3.2453,3.2966,3.3261,3.3307,3.3179,3.3101,3.2635,3.2143,3.1754,3.1599,3.1554,3.1467,3.1467,3.1467,3.1467,3.1467,3.1467,3.1467,3.1467,3.1467,3.1482,3.1205,3.0939,3.0519,3.0355,3.0222,2.9875,2.9504,2.8876,2.8247,2.7736,2.7284,2.7027,2.6564,3.0448,3.0467,3.0487,3.0502,3.0528,3.0617,3.0641,3.0691,3.0742,3.0798,3.0879,3.0918,3.0898,3.0852,3.074,3.0687,3.0652,3.0544,3.0487,3.0467,3.0436,3.0398,3.0398,3.0398,3.0398,3.0398,3.0398,3.0398,3.0379,3.034,3.0259,3.0279,3.0057,2.9912,2.9786,2.9589,2.9392,2.9246,2.9108,2.9017,2.8975,2.8975,2.8975,2.8975,2.8994,2.8965,2.8834,2.8626,2.8438,2.821,2.7936,2.7619,2.7391,2.7192,2.7004,2.6825,2.6758,2.691,2.7335,2.8198,2.8841,2.9432,3.023,3.119,3.119,3.119,3.119,3.119,3.119,3.119,3.1173,3.1067,3.0897,3.0811,3.074,3.046,3.0267,3.0518,3.099,3.1462,3.1797,3.2176,3.2611,3.2983,3.2969,3.267,3.2377,3.2059,3.1779,3.1522,3.1509,3.1437,3.1467,3.1467,3.1467,3.1467,3.1467,3.1467,3.1467,3.1289,3.1157,3.097,3.0717,3.0384,2.995,2.9429,2.9002,2.8748,2.8492,2.8117,2.7736,2.7229,2.6769,2.6589,2.6521,3.0544,3.0583,3.0525,3.053,3.0581,3.0655,3.0702,3.0723,3.0825,3.0879,3.0898,3.0898,3.0818,3.0752,3.0692,3.0621,3.0506,3.0487,3.0467,3.0417,3.0398,3.0398,3.0398,3.0398,3.0398,3.0398,3.0355,3.0355,3.0321,3.0079,3.003,2.998,2.9825,2.9626,2.9513,2.9414,2.9265,2.9134,2.9017,2.9017,2.8975,2.9017,2.9017,2.903,2.9007,2.8852,2.8459,2.8443,2.8219,2.7943,2.756,2.7317,2.7178,2.6954,2.6791,2.6725,2.686,2.7097,2.7709,2.825,2.8841,2.9415,3.018,3.1089,3.119,3.119,3.119,3.1151,3.1095,3.1055,3.0954,3.0785,3.0436,3.0302,3.0119,2.9819,2.9685,2.9851,3.0351,3.1149,3.1661,3.1969,3.2113,3.2447,3.2541,3.225,3.1987,3.1738,3.1591,3.1387,3.1405,3.1392,3.1452,3.1467,3.1467,3.1467,3.1467,3.1467,3.1467,3.1025,3.06,3.0367,3.0372,2.938,2.8848,2.8249,2.7802,2.7802,2.767,2.755,2.7229,2.6837,2.6645,2.6521,2.6521,3.0608,3.066,3.0641,3.0632,3.0684,3.0761,3.0828,3.0821,3.0879,3.0918,3.0878,3.0813,3.075,3.0687,3.0602,3.0564,3.0506,3.0467,3.0436,3.0417,3.0398,3.0398,3.0398,3.0398,3.0398,3.0355,3.0254,3.0169,3.0112,2.9851,2.9688,2.96,2.9568,2.9507,2.9405,2.9246,2.9112,2.9044,2.8975,2.8975,2.8975,2.9035,2.9127,2.9352,2.9373,2.9142,2.8823,2.8517,2.8099,2.7592,2.7147,2.7019,2.6971,2.6791,2.6725,2.6793,2.7046,2.7453,2.7726,2.8201,2.8648,2.9656,3.0234,3.0717,3.1106,3.119,3.119,3.1095,3.0821,3.0658,3.0551,3.0125,2.9739,2.9675,2.9462,2.9155,2.9218,2.9391,2.9831,3.0685,3.1192,3.1564,3.1735,3.1875,3.1905,3.1853,3.158,3.142,3.1357,3.1312,3.1345,3.1332,3.1377,3.1467,3.1467,3.1467,3.1467,3.1409,3.1394,3.0776,3.0134,3.0337,3.004,2.8922,2.7934,2.759,2.7284,2.7027,2.6973,2.6973,2.6905,2.6645,2.6521,2.6521,2.6521,3.0684,3.0748,3.0756,3.077,3.0777,3.086,3.0918,3.0918,3.0918,3.0859,3.0829,3.0743,3.066,3.0621,3.0564,3.0487,3.0467,3.0417,3.0398,3.0398,3.0398,3.0398,3.0398,3.0379,3.0355,3.0286,3.0122,3.0018,2.9905,2.9565,2.9472,2.9418,2.9307,2.927,2.9215,2.9093,2.8975,2.8975,2.8975,2.8975,2.8975,2.9156,2.9282,2.9582,2.9673,2.9302,2.8877,2.8473,2.7912,2.7356,2.6873,2.6758,2.6708,2.6708,2.6708,2.6945,2.7317,2.7775,2.786,2.8168,2.8827,3.0192,3.0137,3.0598,3.097,3.1055,3.0838,3.0838,3.0377,3.0021,2.9989,2.9515,2.9156,2.9071,2.8745,2.8495,2.8839,2.9107,2.9592,3.0205,3.0585,3.0921,3.1541,3.1682,3.1682,3.1697,3.1567,3.1435,3.1357,3.1285,3.1345,3.1317,3.1302,3.1392,3.1467,3.1467,3.1336,3.0896,3.0719,3.0192,2.9769,2.9846,2.9303,2.7947,2.7172,2.6985,2.6905,2.6782,2.6645,2.6521,2.6521,2.6521,2.6521,2.6521,2.6521,3.0764,3.0883,3.0906,3.0897,3.0898,3.0918,3.0918,3.0898,3.0879,3.0828,3.0723,3.0679,3.0621,3.0525,3.0506,3.0467,3.0417,3.0398,3.0398,3.0398,3.0398,3.0398,3.0379,3.0355,3.0241,3.0061,2.9924,2.9832,2.9713,2.9451,2.9345,2.928,2.9171,2.9076,2.9017,2.8998,2.8975,2.8975,2.897,2.9057,2.9083,2.9347,2.9606,2.9805,2.998,2.9662,2.8836,2.8612,2.7979,2.7011,2.6808,2.6708,2.6708,2.6708,2.6708,2.6759,2.7486,2.782,2.7897,2.8544,2.9346,3.0273,2.9933,3.0253,3.0774,3.0699,3.0309,3.0251,2.9761,2.9451,2.9217,2.8923,2.8637,2.8419,2.808,2.8182,2.8525,2.9031,2.9531,3.0168,3.0038,3.0113,3.0983,3.1524,3.1524,3.1524,3.1524,3.1435,3.1285,3.1315,3.1317,3.124,3.1225,3.1392,3.1467,3.1409,3.1146,3.0644,3.011,2.9557,2.8919,2.8602,2.7826,2.6794,2.6696,2.6714,2.6645,2.6521,2.6521,2.6521,2.6521,2.6521,2.6521,2.6521,2.6521,3.0864,3.0903,3.0923,3.0916,3.0918,3.0918,3.0918,3.0898,3.0803,3.0742,3.0675,3.0621,3.0564,3.0506,3.0467,3.0417,3.0398,3.0398,3.0398,3.0398,3.0398,3.0398,3.0355,3.0209,3.0089,2.9939,2.9799,2.9607,2.9494,2.9263,2.9156,2.9071,2.9067,2.8998,2.8998,2.8975,2.8887,2.8767,2.9036,2.9313,2.9115,2.9583,3.0018,3.022,3.036,2.9886,2.8892,2.8783,2.8083,2.6928,2.6708,2.6708,2.6708,2.6708,2.6708,2.7012,2.774,2.8639,2.8444,2.8457,2.8163,2.8858,2.9453,2.9632,2.9933,2.9832,2.9717,2.9569,2.9134,2.8873,2.8717,2.8259,2.7966,2.7932,2.7825,2.8075,2.8471,2.9087,2.9693,3.0313,3.0522,3.0657,3.1255,3.1452,3.1467,3.1409,3.1409,3.1172,3.0951,3.1243,3.1317,3.112,3.1076,3.136,3.1409,3.0955,3.0584,3.0072,2.9496,2.8914,2.828,2.7653,2.7209,2.6671,2.6602,2.6521,2.6521,2.6521,2.6521,2.6521,2.6521,2.6521,2.6521,2.6521,2.6521,3.0918,3.0918,3.0918,3.0907,3.0907,3.0919,3.088,3.0823,3.0707,3.0664,3.0625,3.0525,3.0487,3.0467,3.0417,3.0398,3.0398,3.0398,3.0398,3.0398,3.0398,3.0323,3.0209,3.0075,2.9908,2.9782,2.957,2.9353,2.9267,2.9089,2.9021,2.9021,2.8975,2.8887,2.8839,2.8707,2.8658,2.8637,2.8945,2.9237,2.9308,2.9739,3.0363,3.0557,3.0525,3.0253,2.9372,2.8755,2.8315,2.7215,2.6725,2.6708,2.6708,2.6708,2.6826,2.7368,2.7683,2.8298,2.7833,2.7473,2.7254,2.7533,2.8315,2.8942,2.9195,2.9271,2.9134,2.8904,2.8511,2.8319,2.814,2.766,2.766,2.7625,2.7942,2.8256,2.8831,2.946,3.0088,3.0731,3.0881,3.1135,3.1228,3.1407,3.1467,3.1351,3.1219,3.0925,3.0661,3.0822,3.0984,3.0748,3.0426,3.0364,3.0329,3.0072,2.969,2.9456,2.887,2.8278,2.7709,2.7061,2.6841,2.6645,2.6589,2.6521,2.6521,2.6521,2.6521,2.6521,2.6521,2.6521,2.6521,2.6521,2.6452,3.0918,3.0898,3.0879,3.0896,3.0893,3.0874,3.0813,3.0687,3.0626,3.0574,3.0487,3.0506,3.0467,3.0398,3.0398,3.0398,3.0398,3.0398,3.0367,3.0355,3.0311,3.0196,3.0047,2.9939,2.9748,2.9532,2.9351,2.9203,2.904,2.9017,2.8998,2.8923,2.8876,2.87,2.8515,2.8298,2.8335,2.8495,2.8912,2.9198,2.9417,3.0108,3.0559,3.0803,3.0848,3.036,2.9651,2.911,2.8247,2.7402,2.681,2.6759,2.6674,2.6657,2.713,2.7362,2.7261,2.6918,2.676,2.6529,2.6522,2.6886,2.7586,2.8394,2.8793,2.8701,2.8559,2.8367,2.8042,2.7845,2.761,2.761,2.761,2.7831,2.8218,2.8732,2.943,3.0028,3.0657,3.0986,3.0866,3.0926,3.0824,3.0974,3.0984,3.0719,3.0543,3.0499,3.0219,3.0122,3.0194,3.0104,2.9714,2.9247,2.9115,2.9178,2.8862,2.862,2.8051,2.7498,2.6934,2.6676,2.6633,2.6589,2.6521,2.6521,2.6521,2.6521,2.6521,2.6521,2.6452,2.6521,2.6521,2.6465,2.6477,3.0921,3.0901,3.0795,3.0753,3.0741,3.066,3.0621,3.0625,3.0548,3.0524,3.0487,3.0448,3.0417,3.0398,3.0398,3.0398,3.0398,3.0367,3.0235,3.0177,3.0122,2.9973,2.9813,2.9661,2.9513,2.9373,2.9225,2.9089,2.904,2.8994,2.8778,2.8604,2.8605,2.8352,2.8075,2.7747,2.8041,2.8461,2.8987,2.9363,2.9816,3.0529,3.0859,3.1022,3.1103,3.0543,2.996,2.9715,2.8854,2.7807,2.752,2.723,2.6191,2.6208,2.6419,2.6586,2.628,2.6005,2.6314,2.6378,2.6382,2.6595,2.7207,2.7597,2.7946,2.8091,2.7959,2.786,2.781,2.766,2.756,2.756,2.756,2.7793,2.8286,2.9,2.963,3.0101,3.0726,3.0951,3.0832,3.0582,3.0493,3.028,3.0203,2.9941,2.9743,2.9735,2.9617,2.9485,2.9421,2.9331,2.9002,2.8492,2.8492,2.8556,2.8168,2.7789,2.7284,2.6973,2.6769,2.6577,2.6521,2.6521,2.6521,2.6521,2.6521,2.6521,2.6521,2.6452,2.6452,2.6452,2.6452,2.6346,2.6,3.087,3.0799,3.0737,3.066,3.0602,3.0525,3.0506,3.0525,3.0487,3.0467,3.0467,3.0417,3.0398,3.0398,3.0398,3.0355,3.0228,3.0209,3.0098,2.9924,2.9858,2.9729,2.9589,2.9454,2.9351,2.9225,2.9112,2.9021,2.8952,2.881,2.8608,2.8449,2.8309,2.8,2.7707,2.7557,2.7898,2.8457,2.9076,2.9566,3.0187,3.0818,3.1072,3.119,3.119,3.0752,3.023,3.0111,2.9411,2.8294,2.8022,2.7247,2.6385,2.6327,2.5944,2.6118,2.6113,2.5978,2.606,2.6076,2.6264,2.6564,2.694,2.7273,2.7508,2.771,2.766,2.761,2.761,2.756,2.756,2.756,2.756,2.759,2.8375,2.9119,2.9644,3.0095,3.0482,3.0778,3.0617,3.0338,3.006,2.9714,2.9497,2.9299,2.8962,2.8655,2.8621,2.8579,2.8509,2.8492,2.8117,2.7736,2.7802,2.7789,2.7471,2.7149,2.6973,2.6645,2.6521,2.6521,2.6521,2.6521,2.6521,2.6521,2.6521,2.6521,2.6452,2.6383,2.6094,2.5721,2.5648,2.5733,2.5284,3.0806,3.0698,3.0698,3.0602,3.0506,3.0487,3.0448,3.0398,3.0398,3.0398,3.0398,3.0398,3.0367,3.0323,3.0316,3.019,3.0064,2.9988,2.9885,2.9678,2.9678,2.9551,2.9395,2.9351,2.9222,2.9067,2.8975,2.8975,2.8887,2.8676,2.8486,2.8355,2.7993,2.7648,2.7286,2.7192,2.7705,2.873,2.9119,2.9471,3.0247,3.0835,3.119,3.119,3.1123,3.0892,3.0409,3.0056,2.9762,2.8854,2.7977,2.7191,2.646,2.6029,2.5586,2.573,2.5852,2.6045,2.6075,2.6123,2.6408,2.6632,2.6692,2.71,2.7445,2.756,2.756,2.756,2.756,2.756,2.756,2.756,2.756,2.7794,2.8311,2.8832,2.9134,2.9536,2.9763,2.9975,2.9754,2.948,2.9121,2.8802,2.8518,2.8469,2.822,2.7747,2.7639,2.7641,2.7709,2.7657,2.7417,2.7162,2.704,2.696,2.6769,2.6589,2.6521,2.6521,2.6521,2.6521,2.6521,2.6521,2.6521,2.6521,2.6521,2.6302,2.6082,2.5943,2.5511,2.4933,2.4756,2.4661,2.4259,3.0717,3.0679,3.0602,3.0487,3.0417,3.0417,3.0417,3.0398,3.0398,3.0379,3.0398,3.0367,3.0267,3.0131,3.0101,2.9989,2.9803,2.9756,2.9653,2.9527,2.9455,2.9334,2.9156,2.9138,2.9067,2.9021,2.8975,2.8929,2.8815,2.8576,2.8219,2.8006,2.7652,2.7241,2.6939,2.6923,2.7539,2.8721,2.8907,2.955,3.0632,3.0937,3.119,3.119,3.114,3.11,3.0706,3.0416,2.9886,2.9055,2.7932,2.6599,2.5123,2.4601,2.4539,2.4851,2.5545,2.595,2.6414,2.6677,2.7021,2.7171,2.729,2.7445,2.7565,2.7545,2.756,2.756,2.756,2.756,2.756,2.7545,2.7578,2.7912,2.8152,2.8417,2.8639,2.885,2.91,2.899,2.8796,2.8484,2.8166,2.7899,2.7659,2.7386,2.7089,2.682,2.6914,2.6901,2.6969,2.696,2.6837,2.6645,2.6521,2.6521,2.6521,2.6521,2.6521,2.6521,2.6452,2.6521,2.6521,2.6521,2.6521,2.6302,2.6013,2.5652,2.5441,2.5288,2.4624,2.3891,2.3227,2.301,2.2761,3.0645,3.0614,3.0487,3.0436,3.0398,3.0398,3.0398,3.0367,3.0267,3.0222,3.0241,3.0209,3.0136,2.995,2.9913,2.9741,2.9589,2.9558,2.9418,2.9277,2.9225,2.9156,2.904,2.8975,2.8998,2.8975,2.8773,2.87,2.8644,2.8165,2.7736,2.7612,2.727,2.6939,2.6708,2.6793,2.7266,2.8383,2.8501,2.9347,3.0594,3.0915,3.1157,3.119,3.1151,3.1089,3.0749,3.0426,2.9978,2.9004,2.7796,2.5978,2.4614,2.3912,2.4251,2.4866,2.5508,2.5998,2.6816,2.731,2.756,2.756,2.756,2.758,2.758,2.756,2.756,2.756,2.756,2.756,2.7419,2.739,2.7329,2.7511,2.7655,2.7818,2.8052,2.8247,2.8319,2.8228,2.79,2.7415,2.7112,2.6905,2.6713,2.6907,2.6539,2.6496,2.6521,2.6521,2.6521,2.6521,2.6521,2.6521,2.6521,2.6521,2.6521,2.6521,2.6521,2.6452,2.6452,2.6452,2.6521,2.6233,2.5943,2.5734,2.5441,2.4921,2.4552,2.4325,2.3576,2.2691,2.2093,2.1676,2.1576,3.0479,3.0325,3.0244,3.0225,3.0244,3.0359,3.0367,3.0311,3.0103,2.9984,2.9897,2.9787,2.9791,2.9842,2.9742,2.9551,2.9409,2.9337,2.9173,2.9095,2.9021,2.904,2.8998,2.891,2.8815,2.8676,2.8464,2.8396,2.8309,2.7818,2.7438,2.7246,2.6995,2.6708,2.6708,2.6776,2.7182,2.7774,2.8161,2.8716,2.9677,3.06,3.0813,3.0948,3.0952,3.07,3.034,2.9989,2.9733,2.8854,2.7527,2.5705,2.4606,2.3998,2.4672,2.5269,2.5749,2.6467,2.7235,2.7535,2.756,2.756,2.756,2.756,2.756,2.7458,2.7458,2.7408,2.7408,2.7327,2.7172,2.6916,2.689,2.7042,2.7162,2.7209,2.7413,2.7551,2.7538,2.7525,2.709,2.6552,2.6304,2.6108,2.6215,2.6408,2.6521,2.6521,2.6521,2.6521,2.6521,2.6521,2.6521,2.6521,2.6521,2.6452,2.6383,2.6521,2.6452,2.6383,2.627,2.6066,2.5844,2.5652,2.5358,2.4921,2.448,2.3963,2.3588,2.3283,2.2478,2.1811,2.1649,2.1171,2.0914,3.0062,2.9352,2.9367,2.9367,2.9486,3.0102,3.0267,3.0109,3.0013,2.9924,2.9614,2.8912,2.8783,2.9495,2.9472,2.9326,2.916,2.9131,2.9072,2.9017,2.8975,2.8975,2.891,2.8749,2.8386,2.8201,2.8093,2.801,2.7915,2.7535,2.7289,2.7201,2.6876,2.6691,2.6708,2.681,2.6978,2.7417,2.7698,2.8182,2.8853,2.9591,2.9947,3.0037,2.9984,2.9746,2.9478,2.906,2.8858,2.8295,2.7286,2.5546,2.4687,2.4418,2.5076,2.5525,2.5959,2.6677,2.729,2.753,2.756,2.756,2.756,2.7509,2.7357,2.6982,2.6878,2.6654,2.6654,2.6602,2.6419,2.6044,2.5916,2.6351,2.6633,2.6724,2.6876,2.6857,2.6777,2.6739,2.6515,2.619,2.6013,2.6059,2.6375,2.6521,2.6521,2.6452,2.6465,2.6465,2.6408,2.6302,2.6233,2.6465,2.6465,2.6314,2.6233,2.6383,2.6264,2.5763,2.5429,2.5302,2.5062,2.4849,2.4337,2.3891,2.3368,2.2999,2.2553,2.2178,2.1451,2.0857,2.0857,2.0857,2.0644]},{"header":{"parameterUnit":"m.s-1","parameterCategory":1,"la1":31.0,"la2":29.5877,"lo1":-88.7671,"lo2":-86.6584,"dy":0.0162,"dx":0.0185,"nx":115,"ny":88,"refTime":"2024-05-25T00:00:00:Z","depth":0,"parameterNumber":3,"parameterNumberName":"V-component_of_WINDS"},"data":[0.0,0.0,0.0,0.0,0.0,0.0,0.0,0.0,0.0,0.0,0.0,0.0,0.0,0.0,0.0,0.0,0.0,0.0,0.0,0.0,0.0,0.0,0.0,0.0,0.0,0.0,0.0,0.0,0.0,0.0,0.0,0.0,0.0,0.0,0.0,0.0,0.0,0.0,0.0,0.0,0.0,0.0,0.0,0.0,0.0,0.0,0.0,0.0,0.0,0.0,0.0,0.0,0.0,0.0,0.0,0.0,0.0,0.0,0.0,0.0,0.0,0.0,0.0,0.0,0.0,0.0,0.0,0.0,0.0,0.0,0.0,0.0,0.0,0.0,0.0,0.0,0.0,0.0,0.0,0.0,0.0,0.0,0.0,0.0,0.0,0.0,0.0,0.0,0.0,0.0,0.0,0.0,0.0,0.0,0.0,0.0,0.0,0.0,0.0,0.0,0.0,0.0,0.0,0.0,0.0,0.0,0.0,0.0,0.0,0.0,0.0,0.0,0.0,0.0,0.0,0.0,0.0,0.0,0.0,0.0,0.0,0.0,0.0,0.0,0.0,0.0,0.0,0.0,0.0,0.0,0.0,0.0,0.0,0.0,0.0,0.0,0.0,0.0,0.0,0.0,0.0,0.0,0.0,0.0,0.0,0.0,0.0,0.0,0.0,0.0,0.0,0.0,0.0,0.0,0.0,0.0,0.0,0.0,0.0,0.0,0.0,0.0,0.0,0.0,0.0,0.0,0.0,0.0,0.0,0.0,0.0,0.0,0.0,0.0,0.0,0.0,0.0,0.0,0.0,0.0,0.0,0.0,0.0,0.0,0.0,0.0,0.0,0.0,0.0,0.0,0.0,0.0,0.0,0.0,0.0,0.0,0.0,0.0,0.0,0.0,0.0,0.0,0.0,0.0,0.0,0.0,0.0,0.0,0.0,0.0,0.0,0.0,0.0,0.0,0.0,0.0,0.0,0.0,0.0,0.0,0.0,0.0,0.0,0.0,0.0,0.0,0.0,0.0,0.0,0.0,0.0,0.0,0.0,0.0,0.0,0.0,0.0,0.0,0.0,0.0,0.0,0.0,0.0,0.0,0.0,0.0,0.0,0.0,0.0,0.0,0.0,0.0,0.0,0.0,0.0,0.0,0.0,0.0,0.0,0.0,0.0,0.0,0.0,0.0,0.0,0.0,0.0,0.0,0.0,0.0,0.0,0.0,0.0,0.0,0.0,0.0,0.0,0.0,0.0,0.0,0.0,0.0,0.0,0.0,0.0,0.0,0.0,0.0,0.0,0.0,0.0,0.0,0.0,0.0,0.0,0.0,0.0,0.0,0.0,0.0,0.0,0.0,0.0,0.0,0.0,0.0,0.0,0.0,0.0,0.0,0.0,0.0,0.0,0.0,0.0,0.0,0.0,0.0,0.0,0.0,0.0,0.0,0.0,0.0,0.0,0.0,0.0,0.0,0.0,0.0,0.0,0.0,0.0,0.0,0.0,0.0,0.0,0.0,0.0,0.0,0.0,0.0,0.0,0.0,0.0,0.0,0.0,0.0,0.0,0.0,0.0,0.0,0.0,0.0,0.0,0.0,0.0,0.0,0.0,0.0,0.0,0.0,0.0,0.0,0.0,0.0,0.0,0.0,0.0,0.0,0.0,0.0,0.0,0.0,0.0,0.0,0.0,0.0,0.0,0.0,0.0,0.0,0.0,0.0,0.0,0.0,0.0,0.0,0.0,0.0,0.0,0.0,0.0,0.0,0.0,0.0,0.0,0.0,0.0,0.0,0.0,0.0,0.0,0.0,0.0,0.0,0.0,0.0,0.0,0.0,0.0,0.0,0.0,0.0,0.0,0.0,0.0,0.0,0.0,0.0,0.0,0.0,0.0,0.0,0.0,0.0,0.0,0.0,0.0,0.0,0.0,0.0,0.0,0.0,0.0,0.0,0.0,0.0,0.0,0.0,0.0,0.0,0.0,0.0,0.0,0.0,0.0,0.0,0.0,0.0,0.0,0.0,0.0,0.0,0.0,0.0,0.0,0.0,0.0,0.0,0.0,0.0,0.0,0.0,0.0,0.0,0.0,0.0,0.0,0.0,0.0,0.0,0.0,0.0,0.0,0.0,0.0,0.0,0.0,0.0,0.0,0.0,0.0,0.0,0.0,0.0,0.0,0.0,0.0,0.0,0.0,0.0,0.0,0.0,0.0,0.0,0.0,0.0,0.0,0.0,0.0,0.0,0.0,0.0,0.0,0.0,0.0,0.0,0.0,0.0,0.0,0.0,0.0,0.0,0.0,0.0,0.0,0.0,0.0,0.0,0.0,0.0,0.0,0.0,0.0,0.0,0.0,0.0,0.0,0.0,0.0,0.0,0.0,0.0,0.0,0.0,0.0,0.0,0.0,0.0,0.0,0.0,0.0,0.0,0.0,0.0,0.0,0.0,0.0,0.0,0.0,0.0,0.0,0.0,0.0,0.0,0.0,0.0,0.0,0.0,0.0,0.0,0.0,0.0,0.0,0.0,0.0,0.0,0.0,0.0,0.0,0.0,0.0,0.0,0.0,0.0,0.0,0.0,0.0,0.0,0.0,0.0,0.0,0.0,0.0,0.0,0.0,0.0,0.0,0.0,0.0,0.0,0.0,0.0,0.0,0.0,0.0,0.0,0.0,0.0,0.0,0.0,0.0,0.0,0.0,0.0,0.0,0.0,0.0,0.0,0.0,0.0,0.0,0.0,0.0,0.0,0.0,0.0,0.0,0.0,0.0,0.0,0.0,0.0,0.0,0.0,0.0,0.0,0.0,0.0,0.0,0.0,0.0,0.0,0.0,0.0,0.0,0.0,0.0,0.0,0.0,0.0,0.0,0.0,0.0,0.0,0.0,0.0,0.0,0.0,0.0,0.0,0.0,0.0,0.0,0.0,0.0,0.0,0.0,0.0,0.0,0.0,0.0,0.0,0.0,0.0,0.0,0.0,0.0,0.0,0.0,0.0,0.0,0.0,0.0,0.0,0.0,0.0,0.0,0.0,0.0,0.0,0.0,0.0,0.0,0.0,0.0,0.0,0.0,0.0,0.0,0.0,0.0,0.0,0.0,0.0,0.0,0.0,0.0,0.0,0.0,0.0,0.0,0.0,0.0,0.0,0.0,0.0,0.0,0.0,0.0,0.0,0.0,0.0,0.0,0.0,0.0,0.0,0.0,0.0,0.0,0.0,0.0,0.0,0.0,0.0,0.0,0.0,0.0,0.0,0.0,0.0,0.0,0.0,0.0,0.0,0.0,0.0,0.0,0.0,0.0,0.0,0.0,0.0,0.0,0.0,0.0,0.0,0.0,0.0,0.0,0.0,0.0,0.0,0.0,0.0,0.0,0.0,0.0,0.0,0.0,0.0,0.0,0.0,0.0,0.0,0.0,0.0,0.0,0.0,0.0,0.0,0.0,0.0,0.0,0.0,0.0,0.0,0.0,0.0,0.0,0.0,0.0,0.0,0.0,0.0,0.0,0.0,0.0,0.0,0.0,0.0,0.0,0.0,0.0,0.0,0.0,0.0,0.0,0.0,0.0,0.0,0.0,0.0,0.0,0.0,0.0,0.0,0.0,0.0,0.0,0.0,0.0,0.0,0.0,0.0,0.0,0.0,0.0,0.0,0.0,0.0,0.0,0.0,0.0,0.0,0.0,0.0,0.0,0.0,0.0,0.0,0.0,0.0,0.0,0.0,0.0,0.0,0.0,0.0,0.0,0.0,0.0,0.0,0.0,0.0,0.0,0.0,0.0,0.0,0.0,0.0,0.0,0.0,0.0,0.0,0.0,0.0,0.0,0.0,0.0,0.0,0.0,0.0,0.0,0.0,0.0,0.0,0.0,0.0,0.0,0.0,0.0,0.0,0.0,0.0,0.0,0.0,0.0,0.0,0.0,0.0,0.0,0.0,0.0,0.0,0.0,0.0,0.0,0.0,0.0,0.0,0.0,0.0,0.0,0.0,0.0,0.0,0.0,0.0,0.0,0.0,0.0,0.0,0.0,0.0,0.0,0.0,0.0,0.0,0.0,0.0,0.0,0.0,0.0,0.0,0.0,0.0,0.0,0.0,0.0,0.0,0.0,0.0,0.0,0.0,0.0,0.0,0.0,0.0,0.0,0.0,0.0,0.0,0.0,0.0,0.0,0.0,0.0,0.0,0.0,0.0,0.0,0.0,0.0,0.0,0.0,0.0,0.0,0.0,0.0,0.0,0.0,0.0,0.0,0.0,0.0,0.0,0.0,0.0,0.0,0.0,0.0,0.0,0.0,0.0,0.3283,0.0,0.0,0.0,0.0,0.0,0.0,0.0,0.0,0.0,0.0,0.0,0.0,0.0,0.0,0.0,0.0,0.0,0.0,0.0,0.0,0.0,0.0,0.0,0.0,0.0,0.0,0.0,0.0,0.0,0.0,0.0,0.0,0.0,0.0,0.0,0.0,0.0,0.0,0.0,0.0,0.0,0.0,0.0,0.0,0.0,0.0,0.0,0.0,0.0,0.0,0.0,0.0,0.0,0.0,0.0,0.0,0.0,0.0,0.0,0.0,0.0,0.0,0.0,0.0,0.0,0.0,0.0,0.0,0.0,0.0,0.0,0.0,0.0,0.0,0.0,0.0,0.0,0.0,0.0,0.0,0.0,0.0,0.0,0.0,0.0,0.0,0.0,0.0,0.0,0.0,0.0,0.0,0.0,0.0,0.0,0.0,0.0,0.0,0.0,0.0,0.0,0.0,0.0,0.0,0.0,0.0,0.0,0.0,0.0,0.0,0.3578,0.3578,0.3578,0.3466,0.3199,0.0,0.0,0.0,0.0,0.0,0.0,0.0,0.0,0.0,0.0,0.0,0.0,0.0,0.0,0.0,0.0,0.0,0.0,0.0,0.0,0.0,0.0,0.0,0.0,0.0,0.0,0.0,0.0,0.0,0.0,0.0,0.0,0.0,0.0,0.0,0.0,0.0,0.0,0.0,0.0,0.0,0.0,0.0,0.0,0.0,0.0,0.0,0.0,0.0,0.0,0.0,0.0,0.0,0.0,0.0,0.0,0.0,0.0,0.0,0.0,0.0,0.0,0.0,0.0,0.0,0.0,0.0,0.0,0.0,0.0,0.0,0.0,0.0,0.0,0.0,0.0,0.0,0.0,0.0,0.0,0.0,0.0,0.0,0.0,0.0,0.0,0.0,0.0,0.0,0.0,0.0,0.0,0.0,0.0,0.0,0.0,0.0,0.0,0.0,0.0,0.0,0.0,0.0,0.0,0.0,0.0,0.0,0.0,0.0,0.0,0.0,0.0,0.3626,0.3503,0.3239,0.0,0.0,0.0,0.0,0.0,0.0,0.0,0.0,0.0,0.0,0.0,0.0,0.0,0.0,0.0,0.0,0.0,0.0,0.0,0.0,0.0,0.0,0.0,0.0,0.0,0.0,0.0,0.0,0.0,0.0,0.0,0.0,0.0,0.0,0.0,0.0,0.0,0.0,0.0,0.0,0.0,0.0,0.0,0.0,0.0,0.0,0.0,0.0,0.0,0.0,0.0,0.0,0.0,0.0,0.0,0.0,0.0,0.0,0.0,0.0,0.0,0.0,0.0,0.0,0.0,0.0,0.0,0.0,0.0,0.0,0.0,0.0,0.0,0.0,0.0,0.0,0.0,0.0,0.0,0.0,0.0,0.0,0.0,0.0,0.0,0.0,0.0,0.0,0.0,0.0,0.0,0.0,0.0,0.0,0.0,0.0,0.0,0.0,0.0,0.0,0.0,0.0,0.0,0.0,0.0,0.0,0.0,0.0,0.0,0.0,0.3643,0.3768,0.3768,0.0,0.3558,0.0,0.0,0.0,0.0,0.0,0.0,0.0,0.0,0.0,0.0,0.0,0.0,0.0,0.0,0.0,0.0,0.0,0.0,0.0,0.0,0.0,0.0,0.0,0.0,0.0,0.0,0.0,0.0,0.0,0.0,0.0,0.0,0.0,0.0,0.0,0.0,0.0,0.0,0.0,0.0,0.0,0.0,0.0,0.0,0.0,0.0,0.0,0.0,0.0,0.0,0.0,0.0,0.0,0.0,0.0,0.0,0.0,0.0,0.0,0.0,0.0,0.0,0.0,0.0,0.0,0.0,0.0,0.0,0.0,0.0,0.0,0.0,0.0,0.0,0.0,0.0,0.0,0.0,0.0,0.0,0.0,0.0,0.0,0.0,0.0,0.0,0.0,0.0,0.0,0.0,0.0,0.0,0.0,0.0,0.0,0.0,0.0,0.0,0.0,0.0,0.0,0.0,0.0,0.0,0.0,0.0,0.0,0.0,0.0,0.0,0.3694,0.3785,0.3667,0.3588,0.0,0.0,0.0,0.0,0.0,0.0,0.0,0.0,0.0,0.0,0.0,0.0,0.0,0.0,0.0,0.0,0.0,0.0,0.0,0.0,0.0,0.0,0.0,0.0,0.0,0.0,0.0,0.0,0.0,0.0,0.0,0.0,0.0,0.0,0.0,0.0,0.0,0.0,0.0,0.0,0.0,0.0,0.0,0.0,0.0,0.0,0.0,0.0,0.0,0.0,0.0,0.0,0.0,0.0,0.0,0.0,0.0,0.0,0.0,0.0,0.0,0.0,0.0,0.0,0.0,0.0,0.0,0.0,0.0,0.0,0.0,0.0,0.0,0.0,0.0,0.0,0.0,0.0,0.0,0.0,0.0,0.0,0.0,0.0,0.0,0.0,0.0,0.0,0.0,0.0,0.0,0.0,0.0,0.0,0.0,0.0,0.0,0.0,0.0,0.0,0.0,0.0,0.0,0.0,0.0,0.0,0.0,0.0,0.0,0.0,0.3602,0.0,0.3771,0.3629,0.3509,0.3456,0.0,0.0,0.0,0.0,0.0,0.0,0.0,0.0,0.0,0.0,0.0,0.0,0.0,0.0,0.0,0.0,0.0,0.0,0.0,0.0,0.0,0.0,0.0,0.0,0.0,0.0,0.0,0.0,0.0,0.0,0.0,0.0,0.0,0.0,0.0,0.0,0.0,0.0,0.0,0.0,0.0,0.0,0.0,0.0,0.0,0.0,0.0,0.0,0.0,0.0,0.0,0.0,0.0,0.0,0.0,0.0,0.0,0.0,0.0,0.0,0.0,0.0,0.0,0.0,0.0,0.0,0.0,0.0,0.0,0.0,0.0,0.0,0.0,0.0,0.0,0.0,0.0,0.0,0.0,0.0,0.0,0.0,0.0,0.0,0.0,0.0,0.0,0.0,0.0,0.0,0.0,0.0,0.0,0.0,0.0,0.0,0.0,0.0,0.0,0.0,0.0,0.0,0.0,0.0,0.0,0.0,0.0,0.0,0.0,0.3649,0.3649,0.3788,0.3778,0.3575,0.0,0.0,0.0,0.0,0.0,0.0,0.0,0.0,0.0,0.0,0.0,0.0,0.0,0.0,0.0,0.0,0.0,0.0,0.0,0.0,0.0,0.0,0.0,0.0,0.0,0.0,0.0,0.0,0.0,0.0,0.0,0.0,0.0,0.0,0.0,0.0,0.0,0.0,0.0,0.0,0.0,0.0,0.0,0.0,0.0,0.0,0.0,0.0,0.0,0.0,0.0,0.0,0.0,0.0,0.0,0.0,0.0,0.0,0.0,0.0,0.0,0.0,0.0,0.0,0.0,0.0,0.0,0.0,0.0,0.0,0.0,0.0,0.0,0.0,0.0,0.0,0.0,0.0,0.0,0.0,0.0,0.0,0.0,0.0,0.0,0.0,0.0,0.0,0.0,0.0,0.0,0.0,0.0,0.0,0.0,0.0,0.0,0.0,0.0,0.0,0.0,0.0,0.0,0.0,0.0,0.0,0.0,0.0,0.0,0.3453,0.3643,0.3832,0.4025,0.3708,0.3521,0.0,0.0,0.0,0.0,0.0,0.0,0.0,0.0,0.0,0.0,0.0,0.0,0.0,0.0,0.0,0.0,0.0,0.0,0.0,0.0,0.0,0.0,0.0,0.0,0.0,0.0,0.0,0.0,0.0,0.0,0.0,0.0,0.0,0.0,0.0,0.0,0.0,0.0,0.0,0.0,0.0,0.0,0.0,0.0,0.0,0.0,0.0,0.0,0.0,0.0,0.0,0.0,0.0,0.0,0.0,0.0,0.0,0.0,0.0,0.0,0.0,0.0,0.0,0.0,0.0,0.0,0.0,0.0,0.0,0.0,0.0,0.0,0.0,0.0,0.0,0.0,0.0,0.0,0.0,0.0,0.0,0.0,0.0,0.0,0.0,0.0,0.0,0.0,0.0,0.0,0.0,0.0,0.0,0.0,0.0,0.0,0.0,0.0,0.0,0.0,0.0,0.0,0.0,0.0,0.0,0.0,0.0,0.0,0.0,0.3306,0.0,0.387,0.0,0.3581,0.3348,0.0,0.0,0.0,0.0,0.0,0.0,0.0,0.0,0.0,0.0,0.0,0.0,0.0,0.0,0.0,0.0,0.0,0.0,0.0,0.0,0.0,0.0,0.0,0.0,0.0,0.0,0.0,0.0,0.0,0.0,0.0,0.0,0.0,0.0,0.0,0.0,0.0,0.0,0.0,0.0,0.0,0.0,0.0,0.0,0.0,0.0,0.0,0.0,0.0,0.0,0.0,0.0,0.0,0.0,0.0,0.0,0.0,0.0,0.0,0.0,0.0,0.0,0.0,0.0,0.0,0.0,0.0,0.0,0.0,0.0,0.0,0.0,0.0,0.0,0.0,0.0,0.0,0.0,0.0,0.0,0.0,0.0,0.0,0.0,0.0,0.0,0.0,0.0,0.0,0.0,0.0,0.0,0.0,0.0,0.0,0.0,0.0,0.0,0.0,0.0,0.0,0.0,0.0,0.0,0.0,0.0,0.0,0.0,0.3198,0.3396,0.3639,0.3731,0.3588,0.3396,0.3136,0.0,0.0,0.0,0.0,0.0,0.0,0.0,0.0,0.0,0.0,0.0,0.0,0.0,0.0,0.0,0.0,0.0,0.0,0.0,0.0,0.0,0.0,0.0,0.0,0.0,0.0,0.0,0.0,0.0,0.0,0.0,0.0,0.0,0.0,0.0,0.0,0.0,0.0,0.0,0.0,0.0,0.0,0.0,0.0,0.0,0.0,0.0,0.0,0.0,0.0,0.0,0.0,0.0,0.0,0.0,0.0,0.0,0.0,0.0,0.0,0.0,0.0,0.0,0.0,0.0,0.0,0.0,0.0,0.0,0.0,0.0,0.0,0.0,0.0,0.0,0.0,0.0,0.0,0.0,0.0,0.0,0.0,0.0,0.0,0.0,0.0,0.0,0.0,0.0,0.0,0.0,0.0,0.0,0.0,0.0,0.0,0.0,0.0,0.0,0.0,0.0,0.0,0.0,0.0,0.0,0.0,0.0,0.0,0.0,0.3354,0.3636,0.3721,0.3625,0.3394,0.3185,0.0,0.0,0.0,0.0,0.0,0.0,0.0,0.0,0.0,0.0,0.0,0.0,0.0,0.0,0.0,0.0,0.0,0.0,0.0,0.0,0.0,0.0,0.0,0.0,0.0,0.0,0.0,0.0,0.0,0.0,0.0,0.0,0.0,0.0,0.0,0.0,0.0,0.0,0.0,0.0,0.0,0.0,0.0,0.0,0.0,0.0,0.0,0.0,0.0,0.0,0.0,0.0,0.0,0.0,0.0,0.0,0.0,0.0,0.0,0.0,0.0,0.0,0.0,0.0,0.0,0.0,0.0,0.0,0.0,0.0,0.0,0.0,0.0,0.0,0.0,0.0,0.0,0.0,0.0,0.0,0.0,0.0,0.0,0.0,0.0,0.0,0.0,0.0,0.0,0.0,0.0,0.0,0.0,0.0,0.0,0.0,0.0,0.0,0.0,0.0,0.0,0.0,0.0,0.0,0.0,0.0,0.0,0.0,0.0,0.3477,0.3693,0.3741,0.3594,0.347,0.3364,0.3261,0.0,0.0,0.0,0.0,0.0,0.0,0.0,0.0,0.0,0.0,0.0,0.0,0.0,0.0,0.0,0.0,0.0,0.0,0.0,0.0,0.0,0.0,0.0,0.0,0.0,0.0,0.0,0.0,0.0,0.0,0.0,0.0,0.0,0.0,0.0,0.0,0.0,0.0,0.0,0.0,0.0,0.0,0.0,0.0,0.0,0.0,0.0,0.0,0.0,0.0,0.0,0.0,0.0,0.0,0.0,0.0,0.0,0.0,0.0,0.0,0.0,0.0,0.0,0.0,0.0,0.0,0.0,0.0,0.0,0.0,0.0,0.0,0.0,0.0,0.0,0.0,0.0,0.0,0.0,0.0,0.0,0.0,0.0,0.0,0.0,0.0,0.0,0.0,0.0,0.0,0.0,0.0,0.0,0.0,0.0,0.0,0.0,0.0,0.0,0.0,0.0,0.0,0.0,0.0,0.0,0.0,0.0,0.0,0.3805,0.3812,0.3772,0.3627,0.3624,0.3618,0.0,0.0,0.0,0.0,0.0,0.0,0.0,0.0,0.0,0.0,0.0,0.0,0.0,0.0,0.0,0.0,0.0,0.0,0.0,0.0,0.0,0.0,0.0,0.0,0.0,0.0,0.0,0.0,0.0,0.0,0.0,0.0,0.0,0.0,0.0,0.0,0.0,0.0,0.0,0.0,0.0,0.0,0.0,0.0,0.0,0.0,0.0,0.0,0.0,0.0,0.0,0.0,0.0,0.0,0.0,0.0,0.0,0.0,0.0,0.0,0.0,0.0,0.0,0.0,0.0,0.0,0.0,0.0,0.0,0.0,0.0,0.0,0.0,0.0,0.0,0.0,0.0,0.0,0.0,0.0,0.0,0.0,0.0,0.0,0.0,0.0,0.0,0.0,0.0,0.0,0.0,0.0,0.0,0.0,0.0,0.0,0.0,0.0,0.0,0.0,0.0,0.0,0.0,0.0,0.0,0.0,0.0,0.0,0.0,0.3958,0.402,0.4025,0.3913,0.3825,0.3675,0.0,0.0,0.0,0.0,0.0,0.0,0.0,0.0,0.0,0.0,0.0,0.0,0.0,0.0,0.0,0.0,0.0,0.0,0.0,0.0,0.0,0.0,0.0,0.0,0.0,0.0,0.0,0.0,0.0,0.0,0.0,0.0,0.0,0.0,0.0,0.0,0.0,0.0,0.0,0.0,0.0,0.0,0.0,0.0,0.0,0.0,0.0,0.0,0.0,0.0,0.0,0.0,0.0,0.0,0.0,0.0,0.0,0.0,0.0,0.0,0.0,0.0,0.0,0.0,0.0,0.0,0.0,0.0,0.0,0.0,0.0,0.0,0.0,0.0,0.0,0.0,0.0,0.0,0.0,0.0,0.0,0.0,0.0,0.0,0.0,0.0,0.0,0.0,0.0,0.0,0.0,0.0,0.0,0.0,0.0,0.0,0.0,0.0,0.0,0.0,0.0,0.0,0.0,0.0,0.0,0.0,0.0,0.0,0.3961,0.4114,0.426,0.4284,0.423,0.4056,0.3863,0.0,0.0,0.0,0.0,0.0,0.0,0.0,0.0,0.0,0.0,0.0,0.0,0.0,0.0,0.0,0.0,0.0,0.0,0.0,0.0,0.0,0.0,0.0,0.0,0.0,0.0,0.0,0.0,0.0,0.0,0.0,0.0,0.0,0.0,0.0,0.0,0.0,0.0,0.0,0.0,0.0,0.0,0.0,0.0,0.0,0.0,0.0,0.0,0.0,0.0,0.0,0.0,0.0,0.0,0.0,0.0,0.0,0.0,0.0,0.0,0.0,0.0,0.0,0.0,0.0,0.0,0.0,0.0,0.0,0.0,0.0,0.0,0.0,0.0,0.0,0.0,0.0,0.0,0.0,0.0,0.0,0.0,0.0,0.0,0.0,0.0,0.0,0.0,0.0,0.0,0.0,0.0,0.0,0.0,0.0,0.0,0.0,0.0,0.0,0.0,0.0,0.0,0.0,0.0,0.0,0.0,0.0,0.0,0.406,0.4194,0.4385,0.4463,0.4515,0.4324,0.4009,0.0,0.0,0.0,0.0,0.0,0.0,0.0,0.0,0.0,0.0,0.0,0.0,0.0,0.0,0.0,0.0,0.0,0.0,0.0,0.0,0.0,0.0,0.0,0.0,0.0,0.0,0.0,0.0,0.0,0.0,0.0,0.0,0.0,0.0,0.0,0.0,0.0,0.0,0.0,0.0,0.0,0.0,0.0,0.0,0.0,0.0,0.0,0.0,0.0,0.0,0.0,0.0,0.0,0.0,0.0,0.0,0.0,0.0,0.0,0.0,0.0,0.0,0.0,0.0,0.0,0.0,0.0,0.0,0.0,0.0,0.0,0.0,0.0,0.0,0.0,0.0,0.0,0.0,0.0,0.0,0.0,0.0,0.0,0.0,0.0,0.0,0.0,0.0,0.0,0.0,0.0,0.0,0.0,0.0,0.0,0.0,0.0,0.0,0.0,0.0,0.0,0.0,0.0,0.0,0.0,0.0,0.0,0.0,0.416,0.4197,0.4389,0.4463,0.4463,0.4324,0.411,0.0,0.0,0.0,0.0,0.0,0.0,0.0,0.0,0.0,0.0,0.0,0.0,0.0,0.0,0.0,0.0,0.0,0.0,0.0,0.0,0.0,0.0,0.0,0.0,0.0,0.0,0.0,0.0,0.0,0.0,0.0,0.0,0.0,0.0,0.0,0.0,0.0,0.0,0.0,0.0,0.0,0.0,0.0,0.0,0.0,0.0,0.0,0.0,-0.3734,0.0,0.0,0.0,0.0,0.0,0.0,0.0,0.0,0.0,0.0,0.0,0.0,0.0,0.0,0.0,0.0,0.0,0.0,0.0,0.0,0.0,0.0,0.0,0.0,0.0,0.0,0.0,0.0,0.0,0.0,0.0,0.0,0.0,0.0,0.0,0.0,0.0,0.0,0.0,0.0,0.0,0.0,0.0,0.0,0.0,0.0,0.0,0.0,0.0,0.0,0.0,0.0,0.0,0.0,0.0,0.0,0.0,0.0,0.0,0.4231,0.4348,0.4423,0.4463,0.446,0.4395,0.4309,0.0,0.0,0.0,0.0,0.0,0.0,0.0,0.0,0.0,0.0,0.0,0.0,0.0,0.0,0.0,0.0,0.0,0.0,0.0,0.0,0.0,0.0,0.0,0.0,0.0,0.0,0.0,0.0,0.0,0.0,0.0,0.0,0.0,0.0,0.0,0.0,0.0,0.0,0.0,0.0,0.0,0.0,0.0,0.0,0.0,0.0,0.0,0.0,0.0,0.0,0.0,0.0,0.0,0.0,0.0,0.0,0.0,0.0,0.0,0.0,0.0,0.0,0.0,0.0,0.0,0.0,0.0,0.0,0.0,0.0,0.0,0.0,0.0,0.0,0.0,0.0,0.0,0.0,0.0,0.0,0.0,0.0,0.0,0.0,0.0,0.0,0.0,0.0,0.0,0.0,0.0,0.0,0.0,0.0,0.0,0.0,0.0,0.0,0.0,0.0,0.0,0.0,0.0,0.0,0.0,0.0,0.0,0.413,0.4264,0.4508,0.4463,0.4463,0.4463,0.4473,0.4287,0.3849,0.0,0.0,0.0,0.0,0.0,0.0,0.0,0.0,0.0,0.0,0.0,0.0,0.0,0.0,0.0,0.0,0.0,0.0,0.0,0.0,0.0,0.0,0.0,0.0,0.0,0.0,0.0,0.0,0.0,0.0,0.0,0.0,0.0,0.0,0.0,0.0,0.0,0.0,-0.3597,-0.3832,0.0,0.0,0.0,0.0,0.0,0.0,0.0,0.0,-0.3948,0.0,0.0,0.0,0.0,0.0,0.0,0.0,0.0,0.0,0.0,0.0,0.0,0.0,0.0,0.0,0.0,0.0,0.0,0.0,0.0,0.0,0.0,0.0,0.0,0.0,0.0,0.0,0.0,0.0,0.0,0.0,0.0,0.0,0.0,0.0,0.0,0.0,0.0,0.0,0.0,0.0,0.0,0.0,0.0,0.0,0.0,0.0,0.0,0.0,0.0,0.0,0.0,0.0,0.0,0.0,0.0,0.415,0.4184,0.4317,0.4512,0.4463,0.4467,0.4477,0.4487,0.3309,0.1012,0.0,0.0,0.0,0.0,0.0,0.0,0.0,0.0,0.0,0.0,0.0,0.0,0.0,0.0,0.0,0.0,0.0,0.0,0.0,0.0,0.0,0.0,0.0,0.0,0.0,0.0,0.0,0.0,0.0,0.0,0.0,0.0,0.0,0.0,0.0,0.0,0.0,0.0,0.0,-0.3942,-0.4217,0.0,0.0,0.0,0.0,0.0,0.0,0.0,0.0,-0.4063,0.0,0.0,0.0,0.0,0.0,0.0,0.0,0.0,0.0,0.0,0.0,0.0,0.0,0.0,0.0,0.0,0.0,0.0,0.0,0.0,0.0,0.0,0.0,0.0,0.0,0.0,0.0,0.0,0.0,0.0,0.0,0.0,0.0,0.0,0.0,0.0,0.0,0.0,0.0,0.0,0.0,0.0,0.0,0.0,0.0,0.0,0.0,0.0,0.0,0.0,0.0,0.0,0.0,0.0,0.0,0.4063,0.428,0.4392,0.4515,0.4463,0.4467,0.4477,0.3739,0.2285,0.0,0.0,0.0,0.0,0.0,0.0,0.0,0.0,0.0,0.0,0.0,0.0,0.0,0.0,0.0,0.0,0.0,0.0,0.0,0.0,0.0,0.0,0.0,0.0,0.0,0.0,0.0,0.0,0.0,0.0,0.0,0.0,0.0,0.0,0.0,0.0,0.0,0.0,0.0,0.0,-0.4045,-0.43,-0.4498,0.0,0.0,0.0,0.0,0.0,0.0,-0.444,-0.4719,0.0,0.0,0.0,0.0,0.0,0.0,0.0,0.0,0.0,0.0,0.0,0.0,0.0,0.0,0.0,0.0,0.0,0.0,0.0,0.0,0.0,0.0,0.0,0.0,0.0,0.0,0.0,0.0,0.0,0.0,0.0,0.0,0.0,0.0,0.0,0.0,0.0,0.0,0.0,0.0,0.0,0.0,0.0,0.0,0.0,0.0,0.0,0.0,0.0,0.0,0.0,0.0,0.0,0.0,0.0,0.3969,0.4287,0.444,0.4467,0.4467,0.4473,0.4484,0.332,0.184,0.0,0.0,0.0,0.0,0.0,0.0,0.0,0.0,0.0,0.0,0.0,0.0,0.0,0.0,0.0,0.0,0.0,0.0,0.0,0.0,0.0,0.0,0.0,0.0,0.0,0.0,0.0,0.0,0.0,0.0,0.0,0.0,0.0,0.0,0.0,0.0,0.0,0.0,0.0,0.0,0.0,-0.4334,-0.4498,-0.4341,0.0,0.0,0.0,0.0,-0.4234,-0.4865,0.0,0.0,0.0,0.0,0.0,0.0,0.0,0.0,0.0,0.0,0.0,0.0,0.0,0.0,0.0,0.0,0.0,0.0,0.0,0.0,0.0,0.0,0.0,0.0,0.0,0.0,0.0,0.0,0.0,0.0,0.0,0.0,0.0,0.0,0.0,0.0,0.0,0.0,0.0,0.0,0.0,0.0,0.0,0.0,0.0,0.0,0.0,0.0,0.0,0.0,0.0,0.0,0.0,0.0,0.0,0.0,0.392,0.4095,0.4301,0.4484,0.4494,0.4497,0.4511,0.4324,0.2868,0.0,0.0,0.0,0.0,0.0,0.0,0.0,0.0,0.0,0.0,0.0,0.0,0.0,0.0,0.0,0.0,0.0,0.0,0.0,0.0,0.0,0.0,0.0,0.0,0.0,0.0,0.0,0.0,0.0,0.0,0.0,0.0,0.0,0.0,0.0,0.0,0.0,0.0,0.0,0.0,0.0,-0.4501,-0.446,-0.4338,-0.4241,0.0,0.0,-0.4241,-0.4416,-0.5027,0.0,0.0,0.0,0.0,0.0,0.0,0.0,0.0,0.0,0.0,0.0,0.0,0.0,0.0,0.0,0.0,0.0,0.0,0.0,0.0,0.0,0.0,0.0,0.0,0.0,0.0,0.0,0.0,0.0,0.0,0.0,0.0,0.0,0.0,0.0,0.0,0.0,0.0,0.0,0.0,0.0,0.0,0.0,0.0,0.0,0.0,0.0,0.0,0.0,0.0,0.0,0.0,0.0,0.0,0.0,0.353,0.3876,0.3353,0.314,0.3186,0.3188,0.3646,0.4514,0.4484,0.3096,0.0,0.0,0.0,0.0,0.0,0.0,0.0,0.0,0.0,0.0,0.0,0.0,0.0,0.0,0.0,0.0,0.0,0.0,0.0,0.0,0.0,0.0,0.0,0.0,0.0,0.0,0.0,0.0,0.0,0.0,0.0,0.0,0.0,0.0,0.0,0.0,0.0,0.0,0.0,0.0,0.0,0.0,-0.4463,-0.4409,0.0,0.0,0.0,-0.4973,-0.5042,0.0,0.0,0.0,0.0,0.0,0.0,0.0,0.0,0.0,0.0,0.0,0.0,0.0,0.0,0.0,0.0,0.0,0.0,0.0,0.0,0.0,0.0,0.0,0.0,0.0,0.0,0.0,0.0,0.0,0.0,0.0,0.0,0.0,0.0,0.0,0.0,0.0,0.0,0.0,0.0,0.0,0.0,0.0,0.0,0.0,0.0,0.0,0.0,0.0,0.0,0.0,0.0,0.0,0.0,0.0,0.0,0.0,0.3371,0.2972,0.2402,0.1675,0.1619,0.2181,0.3314,0.3371,0.0,0.0,0.0,0.0,0.0,0.0,0.0,0.0,0.0,0.0,0.0,0.0,0.0,0.0,0.0,0.0,0.0,0.0,0.0,0.0,0.0,0.0,0.0,0.0,0.0,0.0,0.0,-0.2509,0.0,0.0,0.0,0.0,0.0,0.0,0.0,0.0,0.0,0.0,0.0,0.0,0.0,0.0,-0.4463,-0.4463,-0.4463,-0.457,0.0,0.0,-0.5542,-0.576,-0.6848,-0.767,0.0,0.0,0.0,0.0,0.0,0.0,0.0,0.0,0.0,0.0,0.0,0.0,0.0,0.0,0.0,0.0,0.0,0.0,0.0,0.0,0.0,0.0,0.0,0.0,0.0,0.0,0.0,0.0,0.0,0.0,0.0,0.0,0.0,0.0,0.0,0.0,0.0,0.0,0.0,0.0,0.0,0.0,0.0,0.0,0.0,0.0,0.0,0.0,0.0,0.0,0.0,0.0,0.0,0.0,0.0,0.2012,0.3528,0.2919,0.028,0.0168,0.0168,0.028,0.0,0.0,0.0,0.0,0.0,0.0,0.0,0.0,0.0,0.0,0.0,0.0,0.0,0.0,0.0,0.0,0.0,0.0,0.0,0.0,0.0,0.0,0.0,0.0,0.0,0.0,0.0,0.0,0.0,0.0,0.0,0.0,0.0,0.0,0.0,0.0,0.0,0.0,0.0,0.0,0.0,0.0,0.0,-0.4519,-0.4463,-0.4463,-0.4736,0.0,-0.5483,-0.5706,-0.6421,-0.7187,-0.767,-0.767,0.0,0.0,0.0,0.0,0.0,0.0,0.0,0.0,0.0,0.0,0.0,0.0,0.0,0.0,0.0,0.0,0.0,0.0,0.0,0.0,0.0,0.0,0.0,0.0,0.0,0.0,0.0,0.0,0.0,0.0,0.0,0.0,0.0,0.0,0.0,0.0,0.0,0.0,0.0,0.0,0.0,0.0,0.0,0.0,0.0,0.0,0.0,0.0,0.0,0.0,0.0,0.0,0.0,0.2709,0.181,0.173,0.1176,0.0,0.0,0.0,0.0,0.0,0.0,0.0,0.0,0.0,0.0,0.0,0.0,0.0,0.0,0.0,0.0,0.0,0.0,0.0,0.0,0.0,0.0,0.0,0.0,0.0,0.0,0.0,0.0,0.0,0.0,0.0,0.0,0.0,0.0,-0.3073,-0.3239,-0.3388,0.0,0.0,0.0,0.0,0.0,0.0,0.0,0.0,0.0,0.0,-0.4545,-0.472,-0.4684,0.0,0.0,-0.6342,-0.6815,-0.7483,-0.8178,-0.8572,-0.84,-0.8593,0.0,0.0,0.0,0.0,0.0,0.0,0.0,0.0,0.0,0.0,0.0,0.0,0.0,0.0,0.0,0.0,0.0,0.0,0.0,0.0,0.0,0.0,0.0,0.0,0.0,0.0,0.0,0.0,0.0,0.0,0.0,0.0,0.0,0.0,0.0,0.0,0.0,0.0,0.0,0.0,0.0,0.0,0.0,0.0,0.0,0.0,0.0,0.0,0.0,0.0,0.0,0.0,0.2665,0.1808,0.0595,0.0,0.0,0.0,0.0,0.0,0.0,0.0,0.0,0.0,0.0,0.0,0.0,0.0,0.0,0.0,0.0,0.0,0.0,0.0,0.0,0.0,0.0,0.0,0.0,0.0,0.0,0.0,0.0,0.0,0.0,0.0,0.0,0.0,0.0,0.0,-0.32,-0.337,-0.3561,0.0,0.0,0.0,0.0,0.0,0.0,0.0,0.0,0.0,0.0,-0.4646,-0.4994,-0.4973,-0.5275,-0.634,-0.6933,-0.7571,-0.8377,-0.8976,-0.9272,-0.8985,0.0,0.0,0.0,0.0,0.0,0.0,0.0,0.0,0.0,0.0,0.0,0.0,0.0,0.0,0.0,0.0,0.0,0.0,0.0,0.0,0.0,0.0,0.0,0.0,0.0,0.0,0.0,0.4608,0.0,0.0,0.3458,0.0,0.0,0.0,0.0,0.0,0.0,0.0,0.0,0.0,0.0,0.0,0.0,0.0,0.0,0.0,0.0,0.0,0.0,0.0,0.0,0.0,0.0,0.2667,0.181,0.0649,0.0,0.0,0.0,0.0,0.0,0.0,0.0,0.0,0.0,0.0,0.0,0.0,0.0,0.0,0.0,0.0,0.0,0.0,0.0,0.0,0.0,0.0,0.0,0.0,0.0,0.0,0.0,0.0,0.0,0.0,0.0,0.0,0.0,0.0,-0.3144,-0.3222,-0.3373,0.0,0.0,0.0,0.0,0.0,0.0,0.0,0.0,0.0,0.0,-0.4507,-0.4686,-0.5268,-0.5236,-0.5597,-0.7012,-0.7299,-0.7752,-0.8963,-0.9429,-0.9579,0.0,0.0,0.0,0.0,0.0,0.0,0.0,0.0,0.0,0.0,0.0,0.0,0.0,0.0,0.0,0.0,0.0,0.0,0.0,0.0,0.0,0.0,0.0,0.0,0.0,0.0,0.0,0.5966,0.5654,0.0,0.0,0.0,0.0,0.0,0.0,0.0,0.0,0.0,0.0,0.0,0.3877,0.3976,0.0,0.0,0.0,0.0,0.0,0.0,0.0,0.0,0.0,0.0,0.0,0.0,0.3074,0.2936,0.1029,0.0,0.0,0.0,0.0,0.0,0.0,0.0,0.0,0.0,0.0,0.0,0.0,0.0,0.0,0.0,0.0,0.0,0.0,0.0,0.0,0.0,0.0,0.0,0.0,0.0,0.0,0.0,0.0,0.0,0.0,0.0,0.0,0.0,-0.3471,0.0,0.0,0.0,0.0,0.0,0.0,0.0,0.0,0.0,0.0,0.0,-0.4426,-0.4468,-0.4653,-0.4924,-0.535,-0.5346,-0.566,0.0,0.0,0.0,0.0,0.0,0.0,0.0,0.0,0.0,0.0,0.0,0.0,0.0,0.0,-1.3228,-1.1471,-1.1227,-1.1284,-1.1219,0.0,0.0,0.0,0.0,0.0,0.0,0.0,0.0,0.0,0.0,0.0,0.0,0.0,0.0,0.6228,0.583,0.5308,0.0,0.0,0.0,0.0,0.0,0.0,0.0,0.0,0.4063,0.4175,0.4178,0.4277,0.427,0.0,0.4172,0.4046,0.0,0.0,0.0,0.0,0.0,0.0,0.0,0.0,0.2839,0.3468,0.1253,0.0,0.0,0.0,0.0,0.0,0.0,0.0,0.0,0.0,0.0,0.0,0.0,0.0,0.0,0.0,0.0,0.0,0.0,0.0,0.0,0.0,0.0,0.0,0.0,0.0,0.0,0.0,0.0,0.0,0.0,0.0,0.0,0.0,-0.3578,0.0,0.0,0.0,0.0,0.0,0.0,0.0,0.0,0.0,-0.4395,-0.4484,-0.4579,-0.45,-0.4683,-0.4885,-0.5325,0.0,0.0,0.0,0.0,0.0,0.0,0.0,-1.0261,-1.0154,-1.0221,-1.0232,-1.0053,-1.2782,-1.4813,-1.4282,0.0,0.0,-1.3271,-1.2959,-1.3001,-1.3058,-1.3138,-1.3313,-1.3446,-1.3366,-1.3268,0.0,0.0,0.0,0.0,0.0,0.0,0.0,0.0,0.6343,0.5815,0.0,0.4635,0.0,0.0,0.0,0.0,0.3609,0.3887,0.0,0.0,0.4385,0.446,0.4457,0.4512,0.4515,0.446,0.4508,0.4382,0.4187,0.3955,0.0,0.0,0.0,0.0,0.0,0.0,0.208,0.3313,0.1157,0.0,0.0,0.0,0.0,0.0,0.0,0.0,0.0,0.0,0.0,0.0,-0.1739,0.0,0.0,0.0,0.0,0.0,0.0,0.0,0.0,0.0,0.0,0.0,0.0,0.0,0.0,0.0,0.0,0.0,0.0,0.0,0.0,-0.3585,0.0,0.0,0.0,0.0,0.0,0.0,0.0,0.0,0.0,0.0,-0.4687,-0.4701,-0.468,-0.4562,0.0,0.0,0.0,0.0,-0.6081,-0.7981,-0.8358,-0.8974,-1.0599,-1.1155,-1.1296,-1.1035,0.0,0.0,-1.0868,-1.4772,-1.7298,-1.5364,-1.6002,-1.623,-1.4772,-1.4939,-1.5281,-1.5017,-1.5166,-1.5546,-1.5937,-1.5584,-1.5323,0.7976,0.0,0.0,0.0,0.0,0.759,0.7502,0.72,0.7001,0.6459,0.5637,0.5443,0.0,0.0,0.0,0.0,0.0,0.0,0.4153,0.4204,0.4395,0.4463,0.4463,0.4463,0.4463,0.4463,0.4463,0.444,0.4399,0.4364,0.4066,0.3673,0.0,0.0,0.0,0.0,0.2301,0.1066,0.0331,0.0,0.0,0.0,0.0,0.0,0.0,0.0,0.0,0.0,0.0,0.0,-0.2144,0.0,0.0,0.0,0.0,0.0,0.0,0.0,0.0,0.0,0.0,0.0,0.0,0.0,0.0,0.0,0.0,0.0,0.0,0.0,-0.3707,-0.3681,-0.3678,0.0,0.0,0.0,0.0,0.0,0.0,0.0,0.0,0.0,-0.4986,-0.4914,-0.4884,0.0,0.0,-0.4947,-0.5324,-0.5589,-0.5881,-0.6325,-0.7601,0.0,-0.922,-1.0301,-1.1162,-1.1276,-1.2246,-1.3286,-1.4331,-1.6464,-1.7794,-1.7149,-1.7406,-1.7436,-1.7044,-1.6539,-1.6321,-1.6254,-1.6239,-1.6387,-1.6494,-1.6426,-1.626,0.8552,0.825,0.8269,0.8201,0.8116,0.823,0.8125,0.7862,0.7281,0.6675,0.608,0.552,0.4998,0.4546,0.465,0.0,0.0,0.0,0.4334,0.4338,0.4423,0.4463,0.4463,0.4463,0.4463,0.4463,0.4463,0.4463,0.4463,0.4463,0.4297,0.3992,0.0,0.0,0.3611,0.3617,0.2422,0.0,0.0,0.0,0.0,0.0,0.0,0.0,0.0,0.0,0.0,0.0,0.0,0.0,-0.1847,-0.2951,0.0,0.0,0.0,0.0,0.0,0.0,0.0,0.0,0.0,0.0,0.0,-0.3278,-0.2886,0.0,0.0,0.0,-0.3388,-0.3622,-0.386,-0.3832,0.0,0.0,0.0,0.0,0.0,0.0,0.0,-0.4772,-0.4911,-0.5033,-0.5058,-0.5162,-0.5186,-0.5317,-0.5192,-0.5266,-0.5596,0.0,-0.6046,-0.6875,-0.8037,-0.9071,-0.995,-1.0911,-1.1708,-1.2221,-1.3567,-1.4784,-1.5609,-1.6941,-1.7988,-1.7979,-1.8008,-1.8008,-1.8008,-1.7578,-1.7236,-1.7227,-1.7109,-1.7041,-1.7197,-1.7213,-1.7091,0.8804,0.8784,0.8806,0.8632,0.8487,0.8691,0.8752,0.854,0.7182,0.6534,0.6317,0.5062,0.4707,0.5084,0.5032,0.0,0.4217,0.4402,0.446,0.4463,0.4463,0.4463,0.4463,0.4463,0.4463,0.4463,0.4463,0.4463,0.4463,0.4463,0.4402,0.4234,0.4231,0.4018,0.3646,0.3382,0.2233,0.0,0.0,0.0,0.0,0.0,0.0,0.0,0.0,0.0,0.0,0.0,-0.0276,0.0,-0.1346,-0.2499,-0.3539,0.0,0.0,0.0,0.0,0.0,0.0,0.0,0.0,0.0,0.0,0.0,0.0,0.0,0.0,0.0,-0.3727,0.0,-0.4022,-0.3989,0.0,0.0,0.0,-0.4772,-0.4553,-0.4758,-0.4935,-0.4935,0.0,0.0,-0.5169,-0.5423,-0.561,-0.5696,-0.5544,-0.558,-0.5933,-0.5878,-0.6588,-0.8471,-0.8973,-0.9862,-1.1525,-1.2084,-1.251,-1.3469,-1.496,-1.5762,-1.5713,-1.6821,-1.793,-1.8008,-1.8008,-1.8008,-1.8008,-1.7978,-1.8008,-1.7969,-1.7686,-1.7549,-1.7852,-1.7945,-1.783,0.8804,0.8798,0.879,0.8763,0.8711,0.8771,0.8156,0.7128,0.675,0.5991,0.5007,0.4625,0.4549,0.4627,0.4624,0.4573,0.4467,0.4505,0.4463,0.4463,0.4463,0.4463,0.4463,0.4463,0.4463,0.4463,0.4463,0.4463,0.4463,0.447,0.4463,0.4443,0.4453,0.4123,0.3545,0.1752,0.0612,0.0,0.0,0.0,0.0,0.0,0.0,0.0,0.0,-0.1065,-0.3317,-0.3431,-0.2905,-0.1764,-0.2918,-0.3676,-0.3837,-0.3497,0.0,0.0,0.0,0.0,0.0,0.0,0.0,0.0,0.0,-0.3649,-0.3161,0.0,-0.3866,0.0,-0.388,-0.3979,-0.4127,-0.4085,0.0,0.0,-0.477,-0.4865,-0.4799,-0.4969,-0.5081,-0.5018,-0.5315,-0.5481,-0.5477,-0.564,-0.5796,-0.5905,-0.5823,-0.5762,-0.5871,-0.6054,-0.6578,-0.7721,-0.8659,-0.9681,-1.0995,-1.1848,-1.2586,-1.3528,-1.4689,-1.578,-1.713,-1.7705,-1.8008,-1.8008,-1.8008,-1.8008,-1.8008,-1.8008,-1.8008,-1.8008,-1.793,-1.7881,-1.7988,-1.8007,-1.786,0.8804,0.8804,0.8804,0.8804,0.8804,0.8804,0.8156,0.7074,0.675,0.5987,0.4956,0.4699,0.4565,0.4625,0.4633,0.4667,0.4667,0.4667,0.4667,0.4667,0.4663,0.4629,0.4565,0.4618,0.4587,0.4463,0.4463,0.4463,0.4463,0.4473,0.4141,0.3527,0.4166,0.3627,0.2024,0.0667,0.0,0.0,0.0,0.0,0.0,0.0,0.0,0.0,-0.1289,-0.2751,-0.4399,-0.4507,-0.4018,-0.3066,-0.3658,-0.4022,-0.3883,-0.3666,-0.3485,0.0,0.0,0.0,0.0,0.0,0.0,0.0,0.0,0.0,0.0,0.0,-0.4083,-0.4002,-0.4128,-0.428,-0.4433,-0.4333,-0.4378,-0.4775,-0.4973,-0.5107,-0.5006,-0.5142,-0.5233,-0.5233,-0.5443,-0.5589,-0.5593,-0.5772,-0.5932,-0.602,-0.6013,-0.6006,-0.601,-0.616,-0.6738,-0.8076,-0.884,-0.9825,-1.1242,-1.1922,-1.2806,-1.4091,-1.4807,-1.5833,-1.7643,-1.8008,-1.8008,-1.8008,-1.8008,-1.8008,-1.8008,-1.8008,-1.8008,-1.8008,-1.8008,-1.8008,-1.8008,-1.8008,-1.793,0.8804,0.8804,0.8804,0.8804,0.8804,0.8699,0.8209,0.7509,0.6858,0.6164,0.5372,0.4916,0.4701,0.4724,0.4857,0.4918,0.4918,0.4918,0.4918,0.4918,0.4918,0.4847,0.4721,0.4721,0.465,0.4577,0.4521,0.4521,0.4524,0.4535,0.3795,0.2603,0.3468,0.2616,0.0,0.0,0.0,0.0,0.0,0.0,0.0,0.0,0.0,0.0,-0.2921,-0.4511,-0.4507,-0.4501,-0.4381,-0.4091,-0.401,-0.3989,-0.3979,-0.3755,-0.3693,0.0,-0.3666,0.0,0.0,0.0,0.0,0.0,0.0,0.0,0.0,-0.4123,-0.4231,-0.4251,-0.4419,-0.4555,-0.4707,-0.4597,-0.4613,-0.4884,-0.5185,-0.5336,-0.5162,-0.5281,-0.5369,-0.5456,-0.5521,-0.562,-0.5664,-0.5891,-0.6057,-0.6078,-0.6156,-0.6374,-0.6483,-0.6714,-0.7399,-0.9074,-0.9523,-1.0496,-1.1848,-1.2372,-1.3112,-1.4649,-1.5259,-1.5895,-1.7269,-1.7841,-1.8027,-1.8027,-1.8105,-1.8164,-1.8047,-1.8057,-1.8076,-1.8027,-1.8134,-1.8202,-1.8076,-1.8008,-1.8008,0.8804,0.8804,0.8804,0.8804,0.8752,0.8156,0.7509,0.6804,0.6642,0.5916,0.4873,0.4735,0.4758,0.4877,0.4904,0.4918,0.4918,0.4918,0.4918,0.4918,0.4918,0.4908,0.4877,0.4874,0.486,0.4836,0.4833,0.4777,0.4723,0.461,0.4375,0.4016,0.1941,0.0546,0.0,0.0,0.0,0.0,0.0,0.0,0.0,0.0,0.0,0.0,-0.2916,0.0,-0.4487,-0.4484,-0.4467,-0.4375,-0.4395,0.0,0.0,0.0,0.0,0.0,0.0,0.0,0.0,0.0,0.0,0.0,-0.4216,-0.4073,-0.3986,-0.4267,-0.4473,-0.4592,-0.4633,-0.4711,-0.4857,-0.484,-0.49,-0.5077,-0.5248,-0.5375,-0.5367,-0.5345,-0.5406,-0.5535,-0.5671,-0.5806,-0.5928,-0.6105,-0.629,-0.6287,-0.6287,-0.6601,-0.7399,-0.8119,-0.8818,-0.9311,-1.0571,-1.1774,-1.2231,-1.2952,-1.3645,-1.4537,-1.5623,-1.6175,-1.6084,-1.7447,-1.8346,-1.8158,-1.8547,-1.8779,-1.8164,-1.8281,-1.8369,-1.8076,-1.8519,-1.8844,-1.8144,-1.8008,-1.8008,0.8938,0.8804,0.8804,0.8804,0.0,0.7996,0.7356,0.6688,0.6355,0.5686,0.4809,0.4877,0.4952,0.4967,0.5104,0.5138,0.5138,0.5138,0.5138,0.5138,0.5138,0.5094,0.5026,0.5023,0.4986,0.4921,0.486,0.4803,0.4809,0.4577,0.4461,0.4467,0.1481,0.0,0.0,0.0,0.0,0.0,0.0,0.0,0.0,-0.1457,-0.1512,-0.0168,-0.291,0.0,0.0,0.0,0.0,0.0,0.0,0.0,0.0,0.0,0.0,-0.4744,-0.4595,-0.4381,-0.4087,-0.4412,-0.4599,-0.4506,-0.4481,-0.4436,-0.4355,-0.4487,-0.464,-0.4789,-0.4863,-0.4938,-0.5016,-0.5091,-0.5165,-0.5233,-0.5312,-0.5411,-0.5422,-0.5433,-0.5501,-0.5593,-0.5779,-0.5945,-0.602,-0.6688,-0.7015,-0.7019,-0.6583,-0.6863,-0.8219,-0.8946,-0.9408,-0.9976,-1.1248,-1.2439,-1.2973,-1.3535,-1.4537,-1.5577,-1.6584,-1.7,-1.6676,-1.787,-1.8965,-1.9147,-1.9177,-1.8789,-1.8447,-1.834,-1.8271,-1.8076,-1.8337,-1.8721,-1.8596,-1.8664,-1.8654,0.9178,0.8965,0.8965,0.8938,0.8771,0.7961,0.7207,0.6506,0.588,0.0,0.0,0.5018,0.5145,0.5179,0.5304,0.5428,0.5428,0.5428,0.5428,0.5428,0.5428,0.5294,0.5172,0.5172,0.5111,0.5006,0.4947,0.4892,0.4895,0.4721,0.4347,0.352,0.1192,0.0,0.0,0.0,0.0,0.0,0.0,0.0,0.0,-0.2921,-0.3314,-0.0837,-0.3183,-0.4477,-0.4477,-0.4467,-0.4409,-0.4294,-0.4234,-0.4231,-0.4234,-0.4231,-0.4549,-0.5257,-0.5433,-0.5311,-0.4914,-0.5366,-0.5395,-0.4775,-0.4734,-0.4694,-0.4694,-0.4718,-0.4792,-0.4942,-0.5064,-0.5142,-0.5169,-0.5281,-0.5428,-0.5624,-0.576,-0.5899,-0.5933,-0.5845,-0.5876,-0.5955,-0.6168,-0.6264,-0.6371,-0.7387,-0.8089,-0.7999,-0.7471,-0.7585,-0.9261,-0.975,-0.9976,-1.0938,-1.199,-1.2893,-1.3638,-1.4545,-1.5528,-1.7049,-1.7779,-1.8212,-1.8471,-1.8969,-1.9693,-2.0366,-1.9581,-1.9019,-1.8793,-1.8646,-1.8359,-1.8472,-1.8596,-1.8921,-1.9562,-1.9759,-1.9694,0.9593,0.9559,0.9559,0.9419,0.9013,0.7773,0.6418,0.5182,0.5065,0.5027,0.5101,0.5121,0.5206,0.5332,0.5418,0.5428,0.5428,0.5428,0.5428,0.5428,0.5428,0.5418,0.5332,0.5332,0.5325,0.5315,0.5315,0.5328,0.5342,0.5279,0.3732,0.0931,0.02,0.0,0.0,0.0,0.0,0.0,0.0,0.0,0.0,-0.2921,-0.4337,-0.3928,-0.4255,-0.4477,-0.4463,-0.4463,-0.4508,-0.4488,-0.4433,-0.4433,-0.4429,-0.4429,-0.4494,-0.4677,-0.5164,-0.5714,-0.6232,-0.6381,-0.6229,-0.5661,-0.502,-0.4694,-0.4694,-0.4813,-0.4945,-0.5084,-0.5125,-0.5186,-0.5308,-0.5411,-0.5683,-0.6465,-0.7148,-0.7687,-0.7745,-0.7137,-0.6798,-0.7066,-0.7237,-0.7347,-0.7626,-0.8443,-0.9069,-0.9059,-0.8995,-0.9564,-1.0989,-1.1168,-1.1093,-1.1922,-1.2872,-1.3645,-1.4436,-1.574,-1.7002,-1.81,-1.8788,-1.9283,-1.9889,-1.9924,-2.0033,-2.0527,-2.0093,-1.978,-1.9704,-1.9675,-1.9697,-1.9998,-2.0462,-2.1101,-2.129,-2.1365,-2.0974,0.9826,0.9693,0.9686,0.9606,0.9372,0.7929,0.6419,0.504,0.5125,0.5192,0.5254,0.5254,0.5294,0.5425,0.5428,0.5428,0.5428,0.5428,0.5428,0.5428,0.5428,0.5428,0.5428,0.5428,0.5432,0.5309,0.4359,0.4439,0.5138,0.3437,0.1616,0.0,0.0,0.0,0.0,0.0,0.0,0.0,0.0,-0.096,-0.2844,-0.314,-0.3626,-0.4435,-0.4465,-0.447,-0.4463,-0.4463,-0.4463,-0.4463,-0.4463,-0.4463,-0.4463,-0.4463,-0.468,-0.5058,-0.571,-0.6613,-0.7726,-0.808,-0.7779,-0.6573,-0.596,-0.5593,-0.5589,-0.5239,-0.5094,-0.5237,-0.5254,-0.5473,-0.6001,-0.5661,-0.5917,-0.7307,-0.7915,-0.8038,-0.7632,-0.7412,-0.7305,-0.7547,-0.8105,-0.851,-0.8609,-0.9518,-1.0115,-1.0185,-1.0525,-1.1279,-1.2144,-1.1922,-1.199,-1.2872,-1.3462,-1.439,-1.565,-1.6785,-1.7962,-1.9052,-1.9649,-2.0127,-2.0518,-2.0361,-2.0389,-2.0542,-2.0637,-2.0553,-2.0372,-2.054,-2.0676,-2.0531,-2.0846,-2.1302,-2.1678,-2.1768,-2.1232,1.0087,0.9886,0.988,0.9656,0.9138,0.7982,0.6567,0.5148,0.5291,0.5428,0.5428,0.5428,0.5428,0.5428,0.5428,0.5428,0.5428,0.5428,0.5428,0.5428,0.5428,0.5428,0.5428,0.5432,0.5372,0.5246,0.3959,0.3629,0.3775,0.1347,0.0,0.0,0.0,0.0,0.0,0.0,-0.04,-0.1173,-0.1211,-0.2568,-0.5225,-0.3735,-0.337,-0.4403,-0.4522,-0.4497,-0.4522,-0.4463,-0.4463,-0.4463,-0.4463,-0.457,-0.4732,-0.4736,-0.5073,-0.5817,-0.6337,-0.7187,-0.8561,-0.9316,-0.9048,-0.7602,-0.7007,-0.671,-0.6696,-0.6129,-0.5739,-0.5731,-0.5939,-0.6334,-0.6785,-0.6433,-0.6633,-0.8163,-0.8781,-0.8953,-0.8186,-0.8107,-0.8171,-0.8365,-0.9035,-0.9664,-0.982,-1.049,-1.1093,-1.1242,-1.1848,-1.2231,-1.2305,-1.2345,-1.2836,-1.3777,-1.3996,-1.4634,-1.6741,-1.762,-1.8517,-1.9829,-2.0322,-2.0478,-2.0566,-2.0566,-2.0566,-2.0653,-2.0772,-2.0907,-2.0889,-2.1043,-2.1293,-2.1302,-2.1428,-2.1553,-2.2125,-2.2065,-2.1646,1.0557,1.0481,1.0517,0.9488,0.7968,0.7623,0.6576,0.5216,0.5294,0.5428,0.5428,0.5428,0.5428,0.5428,0.5428,0.5428,0.5428,0.5428,0.5428,0.5428,0.5428,0.5428,0.5428,0.5372,0.5386,0.5326,0.5129,0.3502,0.0,0.0,0.0,0.0,0.0,0.0,0.0,0.0,-0.1613,-0.4779,-0.4903,-0.5045,-0.5308,-0.506,-0.4727,-0.4471,-0.4626,-0.4602,-0.4543,-0.4463,-0.4519,-0.4463,-0.4522,-0.4787,-0.5332,-0.5433,-0.5899,-0.6808,-0.6704,-0.7116,-0.8193,-0.9151,-0.9407,-0.8702,-0.8019,-0.7651,-0.7832,-0.7797,-0.7349,-0.692,-0.7312,-0.7632,-0.7827,-0.7762,-0.8103,-0.9357,-1.0415,-1.118,-1.1026,-1.0665,-1.0193,-1.0502,-1.0461,-1.064,-1.0789,-1.1465,-1.2077,-1.2003,-1.215,-1.2305,-1.2325,-1.2662,-1.3414,-1.4758,-1.4856,-1.513,-1.6758,-1.7698,-1.8887,-2.0207,-2.0518,-2.0576,-2.0576,-2.0576,-2.0654,-2.1118,-2.0625,-2.0843,-2.1507,-2.1587,-2.182,-2.244,-2.2641,-2.2811,-2.2944,-2.2859,-2.2555,1.0618,1.0618,1.0618,0.9521,0.7884,0.731,0.6355,0.5339,0.5397,0.5428,0.5428,0.5428,0.5428,0.5428,0.5428,0.5428,0.5428,0.5428,0.5428,0.5428,0.5428,0.5428,0.5428,0.5376,0.4903,0.4028,0.4858,0.3507,0.0,0.0,0.0,0.0,0.0,0.0,0.0,0.0,-0.1751,-0.5276,-0.5406,-0.5408,-0.5352,-0.5178,-0.5092,-0.5023,-0.4874,-0.4802,-0.4731,-0.4646,-0.4596,-0.4656,-0.5099,-0.5486,-0.5763,-0.6383,-0.6894,-0.7206,-0.6072,-0.6449,-0.8902,-0.9826,-1.0033,-0.9608,-0.9015,-0.8701,-0.8731,-0.8742,-0.8613,-0.8291,-0.8096,-0.8156,-0.863,-0.8304,-0.8678,-1.0207,-1.1328,-1.173,-1.1035,-1.084,-1.0683,-1.0846,-1.1323,-1.1694,-1.17,-1.2077,-1.2305,-1.2305,-1.2305,-1.2378,-1.2399,-1.3145,-1.4072,-1.5017,-1.5425,-1.6656,-1.8222,-1.8974,-1.965,-2.0275,-2.0576,-2.0576,-2.0576,-2.0576,-2.0916,-2.2039,-2.1878,-2.208,-2.3178,-2.3585,-2.3945,-2.3929,-2.3228,-2.3125,-2.3125,-2.3125,-2.2884,1.0618,1.0561,1.0364,0.939,0.7962,0.7046,0.6203,0.5425,0.5428,0.5428,0.5428,0.5428,0.5428,0.5428,0.5428,0.5428,0.5428,0.5428,0.5428,0.5428,0.5428,0.5428,0.5435,0.5379,0.4703,0.3692,0.3703,0.2493,0.0,0.0,0.0,0.0,0.0,0.0,0.0,-0.0876,-0.2491,-0.4451,-0.5122,-0.5386,-0.5359,-0.5264,-0.525,-0.5329,-0.5099,-0.4962,-0.5046,-0.4872,-0.4866,-0.5097,-0.5727,-0.624,-0.6712,-0.739,-0.7838,-0.7725,-0.6823,-0.7066,-0.925,-1.0154,-1.052,-1.0254,-0.9869,-0.9658,-0.9658,-0.9658,-0.9658,-0.9594,-0.9069,-0.9081,-0.9509,-0.9139,-0.9487,-1.1014,-1.1941,-1.1899,-1.1118,-1.1138,-1.123,-1.1316,-1.1848,-1.2445,-1.2586,-1.2732,-1.2652,-1.2398,-1.2492,-1.2963,-1.3297,-1.4141,-1.4797,-1.5652,-1.6768,-1.7926,-1.9382,-1.9496,-1.988,-2.042,-2.0576,-2.0576,-2.0576,-2.0576,-2.1265,-2.2453,-2.297,-2.3419,-2.377,-2.4565,-2.5137,-2.4442,-2.3891,-2.359,-2.374,-2.3441,-2.3217,1.0618,1.0498,0.9722,0.8812,0.7892,0.7046,0.6203,0.5428,0.5428,0.5428,0.5428,0.5428,0.5428,0.5428,0.5428,0.5428,0.5428,0.5428,0.5428,0.5428,0.5428,0.5369,0.5379,0.5389,0.5333,0.4791,0.202,0.0,0.0,0.0,0.0,0.0,0.0,0.0,0.0,-0.3236,-0.4311,-0.3489,-0.4634,-0.5376,-0.5432,-0.5418,-0.5408,-0.5353,-0.5195,-0.5192,-0.533,-0.5104,-0.5264,-0.6087,-0.6267,-0.6923,-0.8234,-0.8504,-0.8593,-0.8676,-0.9562,-0.9644,-0.8953,-0.9899,-1.0584,-1.0591,-1.0471,-1.0498,-1.0428,-1.0428,-1.0428,-1.0491,-1.0391,-1.0489,-1.0725,-1.0447,-1.0731,-1.1627,-1.2077,-1.2188,-1.2171,-1.2044,-1.2224,-1.215,-1.2298,-1.2806,-1.3528,-1.3673,-1.3201,-1.2868,-1.3114,-1.4144,-1.5402,-1.5271,-1.5976,-1.7527,-1.8518,-1.9,-1.9088,-1.9399,-1.9759,-2.0235,-2.0576,-2.0566,-2.0576,-2.0829,-2.1876,-2.2615,-2.2671,-2.3066,-2.3828,-2.4342,-2.467,-2.453,-2.4618,-2.4506,-2.433,-2.3641,-2.3505,1.0618,1.0428,0.9064,0.8285,0.7832,0.6465,0.5686,0.5428,0.5428,0.5428,0.5428,0.5428,0.5428,0.5428,0.5428,0.5428,0.5428,0.5428,0.5428,0.5428,0.5369,0.5376,0.5382,0.5399,0.541,0.4864,0.0,0.0,0.0,0.0,0.0,0.0,0.0,0.0,0.0,-0.3574,-0.5062,-0.4573,-0.5109,-0.5372,-0.5428,-0.5428,-0.5401,-0.5418,-0.5346,-0.5322,-0.5403,-0.5672,-0.598,-0.6344,-0.7384,-0.8243,-0.8872,-0.9518,-0.9865,-0.9946,-1.0316,-1.0382,-0.9963,-1.0299,-1.0618,-1.0618,-1.0618,-1.0618,-1.0618,-1.0618,-1.0618,-1.0651,-1.0748,-1.0962,-1.1182,-1.1188,-1.1279,-1.179,-1.2116,-1.2264,-1.2278,-1.2305,-1.2305,-1.2378,-1.2806,-1.36,-1.4235,-1.4099,-1.3855,-1.4114,-1.4147,-1.4903,-1.6079,-1.6707,-1.7492,-1.8371,-1.9319,-2.001,-1.9991,-2.007,-2.0235,-2.0401,-2.0566,-2.0634,-2.0634,-2.0712,-2.1497,-2.2948,-2.2914,-2.3627,-2.4752,-2.5166,-2.5239,-2.5182,-2.5222,-2.5084,-2.482,-2.4453,-2.4366,1.0434,0.9977,0.8613,0.7832,0.7437,0.6013,0.5428,0.5428,0.5428,0.5428,0.5428,0.5428,0.5452,0.542,0.5382,0.5459,0.5423,0.5456,0.5432,0.5435,0.5376,0.5382,0.5393,0.5406,0.48,0.3507,0.128,0.0,0.0,0.0,0.0,0.0,0.0,-0.0674,-0.1885,-0.3706,-0.4715,-0.5252,-0.5379,-0.5372,-0.5428,-0.5428,-0.5428,-0.5425,-0.569,-0.5885,-0.5951,-0.6286,-0.679,-0.7424,-0.8493,-0.9252,-0.9587,-1.019,-1.0618,-1.0618,-1.0555,-1.0618,-1.0618,-1.0618,-1.0618,-1.0618,-1.0618,-1.0618,-1.0618,-1.0618,-1.0618,-1.0615,-1.0822,-1.1109,-1.1363,-1.1434,-1.1613,-1.1957,-1.2184,-1.2305,-1.2305,-1.2305,-1.2452,-1.2879,-1.3665,-1.4522,-1.5392,-1.5135,-1.5017,-1.5227,-1.5258,-1.6105,-1.7538,-1.8047,-1.8751,-1.917,-1.9966,-2.0382,-2.0411,-2.0401,-2.0401,-2.0566,-2.0712,-2.0702,-2.072,-2.0807,-2.1583,-2.2996,-2.41,-2.4886,-2.553,-2.594,-2.595,-2.5837,-2.5787,-2.5674,-2.5552,-2.5441,-2.525,1.011,0.9268,0.835,0.7502,0.6724,0.5818,0.5428,0.5428,0.5372,0.5389,0.5393,0.5449,0.5481,0.5542,0.5467,0.5457,0.5528,0.544,0.5382,0.5379,0.5379,0.5393,0.541,0.4931,0.3303,0.0,0.0,0.0,0.0,0.0,0.0,0.0,0.0,0.0,-0.5205,-0.3899,-0.3823,-0.5036,-0.5435,-0.5428,-0.5428,-0.5428,-0.5425,-0.5557,-0.6203,-0.6793,-0.7129,-0.6976,-0.7608,-0.8918,-0.9244,-0.9716,-1.0332,-1.0548,-1.0618,-1.0618,-1.0618,-1.0618,-1.0618,-1.0618,-1.0618,-1.0618,-1.0618,-1.0618,-1.0618,-1.0618,-1.0631,-1.0648,-1.0868,-1.1142,-1.1436,-1.1627,-1.1886,-1.2238,-1.2298,-1.2305,-1.2378,-1.2372,-1.2732,-1.3738,-1.4665,-1.5579,-1.636,-1.6661,-1.6462,-1.6118,-1.6755,-1.8133,-1.944,-1.9333,-1.9285,-2.0082,-2.045,-2.0557,-2.0576,-2.0566,-2.0644,-2.0712,-2.0769,-2.0904,-2.0994,-2.1192,-2.2606,-2.3918,-2.4791,-2.5581,-2.5943,-2.6251,-2.6289,-2.6226,-2.6307,-2.6257,-2.6105,-2.5984,-2.5908,1.011,0.9134,0.7931,0.7158,0.6588,0.5749,0.5428,0.5442,0.5471,0.5518,0.5535,0.562,0.5691,0.5718,0.5681,0.5633,0.5589,0.5463,0.54,0.5393,0.5393,0.5336,0.4864,0.2831,0.1078,0.0,0.0,0.0,0.0,0.0,0.0,0.0,-0.2559,-0.4182,-0.5272,-0.4846,-0.4903,-0.5309,-0.5432,-0.5428,-0.5428,-0.5428,-0.5686,-0.6264,-0.6593,-0.7246,-0.8495,-0.8554,-0.8748,-0.9332,-0.9856,-1.0308,-1.0561,-1.0618,-1.0618,-1.0618,-1.0618,-1.0618,-1.0618,-1.0618,-1.0618,-1.0618,-1.0618,-1.0618,-1.0618,-1.0618,-1.0712,-1.0835,-1.1122,-1.141,-1.1703,-1.1991,-1.2184,-1.2298,-1.2305,-1.2592,-1.3164,-1.381,-1.4657,-1.5508,-1.6,-1.6576,-1.7222,-1.7459,-1.7487,-1.7834,-1.8174,-1.9002,-2.0091,-2.0169,-2.0062,-2.0547,-2.0566,-2.0566,-2.0644,-2.0789,-2.1001,-2.1155,-2.1298,-2.1415,-2.1507,-2.2126,-2.3531,-2.4636,-2.5441,-2.5943,-2.6314,-2.6521,-2.6521,-2.6521,-2.6433,-2.6445,-2.6496,-2.6395,-2.6287,0.9874,0.8748,0.7618,0.6772,0.6203,0.5624,0.5428,0.5382,0.5525,0.5589,0.5616,0.5739,0.5837,0.5854,0.5851,0.5779,0.5657,0.5497,0.5403,0.5259,0.4576,0.411,0.3303,0.1212,0.0,0.0,0.0,0.0,0.0,0.0,0.0,0.0,-0.4319,-0.5339,-0.5399,-0.5386,-0.5376,-0.5372,-0.5432,-0.5428,-0.5428,-0.5428,-0.5815,-0.6588,-0.7046,-0.7897,-0.9204,-0.9594,-0.9792,-0.9849,-1.0301,-1.0555,-1.0618,-1.0618,-1.0618,-1.0618,-1.0618,-1.0618,-1.0618,-1.0618,-1.0618,-1.0618,-1.0618,-1.0618,-1.0618,-1.0618,-1.0688,-1.0969,-1.1249,-1.1543,-1.1837,-1.2131,-1.2432,-1.2806,-1.2519,-1.2732,-1.3665,-1.495,-1.5799,-1.6428,-1.6853,-1.743,-1.7916,-1.8251,-1.8272,-1.912,-1.9326,-1.9409,-2.0333,-2.0557,-2.0566,-2.0566,-2.0566,-2.0644,-2.0644,-2.0934,-2.1364,-2.1593,-2.1811,-2.2019,-2.2219,-2.3274,-2.4492,-2.5382,-2.6201,-2.6176,-2.6521,-2.6521,-2.6521,-2.6521,-2.6521,-2.6521,-2.6521,-2.6521,-2.6408,0.959,0.7902,0.7251,0.6404,0.5495,0.5446,0.5459,0.541,0.5566,0.5647,0.5667,0.581,0.5925,0.5962,0.5871,0.5799,0.5742,0.5483,0.543,0.4992,0.3964,0.2552,0.0674,0.0,0.0,0.0,0.0,0.0,0.0,0.0,-0.1819,-0.4727,-0.5135,-0.5399,-0.5386,-0.5376,-0.5372,-0.5428,-0.5428,-0.5425,-0.5557,-0.5557,-0.6013,-0.6981,-0.7697,-0.8549,-0.946,-1.011,-1.0491,-1.0561,-1.0561,-1.0618,-1.0618,-1.0618,-1.0618,-1.0618,-1.0618,-1.0618,-1.0618,-1.0618,-1.0618,-1.0618,-1.0618,-1.0638,-1.0678,-1.0712,-1.0788,-1.1109,-1.1356,-1.1673,-1.204,-1.2356,-1.2858,-1.352,-1.3375,-1.3448,-1.3954,-1.5579,-1.6645,-1.6853,-1.7451,-1.8154,-1.8525,-1.8883,-1.9116,-1.9408,-1.9927,-2.0382,-2.0537,-2.0576,-2.0576,-2.0644,-2.0722,-2.0722,-2.0789,-2.1832,-2.2188,-2.2403,-2.268,-2.297,-2.3189,-2.4174,-2.5146,-2.598,-2.6502,-2.6465,-2.6521,-2.6521,-2.6521,-2.6521,-2.6521,-2.6521,-2.6521,-2.6521,-2.6521,0.9192,0.6976,0.6167,0.5657,0.5442,0.5477,0.5532,0.5566,0.58,0.5895,0.5939,0.6074,0.6135,0.6169,0.5993,0.5961,0.5844,0.555,0.5423,0.5349,0.4998,0.2825,0.0,0.0,0.0,0.0,0.0,0.0,0.0,0.0,-0.1952,-0.5276,-0.5403,-0.5393,-0.5379,-0.5369,-0.5428,-0.5428,-0.5428,-0.5749,-0.6268,-0.633,-0.7111,-0.8484,-0.8812,-0.9396,-1.0168,-1.0491,-1.0618,-1.0618,-1.0618,-1.0618,-1.0618,-1.0618,-1.0618,-1.0618,-1.0618,-1.0618,-1.0618,-1.0618,-1.0618,-1.0618,-1.0651,-1.0655,-1.0862,-1.0882,-1.1129,-1.1503,-1.1724,-1.2205,-1.2978,-1.3324,-1.3803,-1.4665,-1.5013,-1.5359,-1.579,-1.6862,-1.7647,-1.7647,-1.7862,-1.8154,-1.8623,-1.9023,-1.9277,-1.9485,-1.9976,-2.0576,-2.0576,-2.0916,-2.1081,-2.1031,-2.1011,-2.0934,-2.1308,-2.2414,-2.3073,-2.3294,-2.3616,-2.4042,-2.4319,-2.4943,-2.5742,-2.6477,-2.6477,-2.6452,-2.6521,-2.6521,-2.6521,-2.6521,-2.6521,-2.6521,-2.6521,-2.6521,-2.6577,0.8403,0.6662,0.5863,0.5571,0.5474,0.5613,0.5681,0.5722,0.5922,0.603,0.6054,0.6118,0.6162,0.6142,0.6096,0.6029,0.586,0.5517,0.5416,0.5084,0.3708,0.1818,0.0,0.0,-0.0741,-0.2223,-0.2223,0.0,0.0,-0.1142,-0.2755,-0.4919,-0.5393,-0.5382,-0.5372,-0.5432,-0.5428,-0.5491,-0.5752,-0.6203,-0.6654,-0.7111,-0.7962,-0.9069,-0.9332,-0.9722,-1.0428,-1.0618,-1.0618,-1.0618,-1.0618,-1.0618,-1.0618,-1.0618,-1.0618,-1.0618,-1.0618,-1.0618,-1.0618,-1.0624,-1.0692,-1.0857,-1.0813,-1.0895,-1.1102,-1.1182,-1.1471,-1.2319,-1.2487,-1.314,-1.4078,-1.4569,-1.5059,-1.572,-1.6645,-1.7001,-1.6715,-1.7364,-1.793,-1.8008,-1.8037,-1.8262,-1.8799,-1.9141,-1.9457,-1.9839,-2.0275,-2.0527,-2.0654,-2.1168,-2.1563,-2.1415,-2.1821,-2.2113,-2.2414,-2.3379,-2.4036,-2.4253,-2.4601,-2.5027,-2.5296,-2.5644,-2.6008,-2.6465,-2.6452,-2.6521,-2.6521,-2.6521,-2.6521,-2.6521,-2.6521,-2.6521,-2.6521,-2.6485,-2.6578,0.7433,0.6502,0.601,0.5741,0.563,0.5762,0.5827,0.5854,0.6,0.6054,0.6037,0.6034,0.6037,0.5989,0.6065,0.6047,0.5755,0.5566,0.4889,0.3777,0.0,0.0,0.0,0.0,-0.2491,-0.4523,-0.5276,-0.4311,-0.3291,-0.2948,-0.3751,-0.504,-0.5382,-0.5372,-0.5432,-0.5428,-0.5428,-0.5557,-0.6203,-0.6654,-0.7107,-0.7697,-0.8613,-0.9396,-0.9594,-0.9913,-1.0428,-1.0618,-1.0618,-1.0618,-1.0618,-1.0618,-1.0618,-1.0618,-1.0618,-1.0618,-1.0618,-1.0618,-1.0618,-1.0624,-1.1028,-1.1595,-1.1448,-1.1402,-1.1838,-1.2079,-1.2495,-1.3474,-1.3522,-1.4183,-1.5143,-1.5887,-1.6374,-1.6775,-1.751,-1.7501,-1.7139,-1.7501,-1.8008,-1.8008,-1.8008,-1.8428,-1.8975,-1.9346,-1.958,-2.0148,-2.0508,-2.0537,-2.1081,-2.1865,-2.2032,-2.1832,-2.2553,-2.3514,-2.3891,-2.4337,-2.485,-2.5217,-2.5652,-2.5975,-2.5963,-2.6183,-2.6346,-2.6521,-2.6521,-2.6521,-2.6521,-2.6521,-2.6521,-2.6589,-2.6714,-2.6714,-2.6676,-2.6578,-2.6543,0.7118,0.5812,0.5783,0.5801,0.5772,0.5911,0.5976,0.5993,0.6139,0.6112,0.6047,0.603,0.5962,0.6006,0.5902,0.5901,0.596,0.5274,0.4048,0.1145,0.0606,0.0,-0.074,-0.2626,-0.4523,-0.5413,-0.5403,-0.5122,-0.4776,-0.464,-0.4976,-0.5306,-0.5376,-0.5372,-0.5428,-0.5428,-0.5428,-0.5557,-0.6268,-0.7111,-0.7827,-0.8549,-0.9396,-1.0174,-1.0238,-1.0364,-1.0491,-1.0618,-1.0618,-1.0618,-1.0618,-1.0618,-1.0618,-1.0618,-1.0618,-1.0618,-1.0618,-1.0618,-1.0624,-1.0778,-1.151,-1.3154,-1.2714,-1.2651,-1.3886,-1.3889,-1.4125,-1.4676,-1.4836,-1.5196,-1.6192,-1.706,-1.7413,-1.7638,-1.7794,-1.794,-1.7794,-1.7862,-1.8008,-1.8008,-1.8027,-1.833,-1.915,-1.9268,-1.9678,-2.0371,-2.0566,-2.0566,-2.142,-2.2453,-2.2649,-2.2563,-2.3661,-2.4552,-2.4624,-2.5063,-2.5511,-2.5804,-2.6233,-2.6521,-2.6521,-2.6521,-2.6521,-2.6521,-2.6521,-2.6521,-2.6521,-2.6521,-2.6521,-2.6714,-2.6918,-2.704,-2.7033,-2.6805,-2.7163,0.6329,0.5658,0.5734,0.5856,0.5891,0.5922,0.6003,0.6101,0.6061,0.6122,0.6084,0.5985,0.5868,0.5863,0.5658,0.5665,0.5238,0.3671,0.1885,-0.0135,-0.1482,-0.256,-0.2693,-0.4244,-0.5399,-0.5399,-0.5393,-0.5386,-0.5382,-0.5382,-0.5306,-0.5369,-0.5369,-0.5369,-0.5428,-0.5425,-0.562,-0.6141,-0.6854,-0.7702,-0.8613,-0.946,-1.0047,-1.0498,-1.0618,-1.0618,-1.0618,-1.0618,-1.0618,-1.0618,-1.0618,-1.0618,-1.0618,-1.0618,-1.0618,-1.0618,-1.0618,-1.0584,-1.0627,-1.1234,-1.2277,-1.4162,-1.3745,-1.416,-1.4648,-1.4944,-1.5289,-1.566,-1.5922,-1.621,-1.7139,-1.7569,-1.8008,-1.8008,-1.8008,-1.8008,-1.8008,-1.8008,-1.8008,-1.8008,-1.8008,-1.8477,-1.8926,-1.9209,-1.9717,-2.04,-2.0624,-2.0712,-2.1883,-2.28,-2.349,-2.3841,-2.4921,-2.5511,-2.5429,-2.5652,-2.6164,-2.6302,-2.6383,-2.6521,-2.6521,-2.6521,-2.6521,-2.6521,-2.6521,-2.6521,-2.6521,-2.6521,-2.6521,-2.6589,-2.685,-2.7229,-2.7604,-2.7744,-2.8315,0.545,0.5593,0.5734,0.5823,0.5949,0.5864,0.5942,0.6112,0.5918,0.5957,0.5995,0.5634,0.5278,0.5638,0.5477,0.5279,0.378,0.1886,-0.0,-0.1616,-0.371,-0.466,-0.4995,-0.5186,-0.5386,-0.5393,-0.5379,-0.5372,-0.5432,-0.5428,-0.5432,-0.5428,-0.5428,-0.5428,-0.5428,-0.562,-0.5943,-0.6588,-0.7637,-0.842,-0.9204,-1.0047,-1.0498,-1.0555,-1.0618,-1.0618,-1.0618,-1.0618,-1.0618,-1.0618,-1.0618,-1.0618,-1.0618,-1.0618,-1.0744,-1.0737,-1.0863,-1.0788,-1.0892,-1.1792,-1.3187,-1.4592,-1.4815,-1.5163,-1.5591,-1.5896,-1.6184,-1.6549,-1.6853,-1.707,-1.7872,-1.8008,-1.8008,-1.8008,-1.8008,-1.8008,-1.8008,-1.8008,-1.8008,-1.8008,-1.8047,-1.8389,-1.8906,-1.9307,-1.9853,-2.0389,-2.0517,-2.1078,-2.2252,-2.3427,-2.4235,-2.4587,-2.5441,-2.6025,-2.5943,-2.5931,-2.6452,-2.6521,-2.6521,-2.6521,-2.6521,-2.6521,-2.6521,-2.6521,-2.6521,-2.6521,-2.6521,-2.6521,-2.6521,-2.6533,-2.704,-2.7802,-2.8376,-2.8748,-2.9504,0.5518,0.5593,0.5734,0.5832,0.5823,0.5806,0.5827,0.5867,0.5906,0.5908,0.5614,0.4281,0.4491,0.4916,0.5366,0.3845,0.1549,-0.0135,-0.1818,-0.3708,-0.5138,-0.5406,-0.5396,-0.5382,-0.5379,-0.5379,-0.5372,-0.5428,-0.5428,-0.5428,-0.5428,-0.5428,-0.5428,-0.5428,-0.562,-0.6075,-0.6457,-0.7046,-0.8156,-0.9075,-0.953,-1.011,-1.0618,-1.0618,-1.0618,-1.0618,-1.0618,-1.0618,-1.0618,-1.0618,-1.0618,-1.0618,-1.0681,-1.0681,-1.0982,-1.1344,-1.1593,-1.1381,-1.1164,-1.2484,-1.4652,-1.6364,-1.6486,-1.645,-1.7104,-1.7432,-1.7364,-1.751,-1.7647,-1.7794,-1.794,-1.8008,-1.8008,-1.8008,-1.8008,-1.8008,-1.8008,-1.8008,-1.8008,-1.8008,-1.8086,-1.8301,-1.8877,-1.9448,-1.9944,-2.0384,-2.0629,-2.1532,-2.2852,-2.423,-2.5433,-2.5669,-2.5804,-2.6164,-2.6383,-2.6371,-2.6521,-2.6521,-2.6521,-2.6521,-2.6521,-2.6521,-2.6521,-2.6521,-2.6521,-2.6521,-2.6521,-2.6521,-2.6658,-2.6726,-2.7537,-2.8492,-2.8989,-2.9428,-3.0315,0.545,0.5579,0.5576,0.5672,0.5749,0.5633,0.5741,0.5851,0.5734,0.5821,0.5669,0.4774,0.3479,0.2904,0.2627,0.1482,0.0067,-0.2223,-0.3708,-0.5343,-0.5403,-0.5396,-0.5386,-0.5376,-0.5369,-0.5435,-0.5428,-0.5428,-0.5428,-0.5428,-0.5428,-0.5428,-0.5428,-0.5428,-0.562,-0.6203,-0.6915,-0.7502,-0.8613,-0.953,-0.9913,-1.0428,-1.0555,-1.0618,-1.0618,-1.0618,-1.0618,-1.0618,-1.0618,-1.0618,-1.0618,-1.0863,-1.1108,-1.1288,-1.1406,-1.1826,-1.2197,-1.231,-1.2195,-1.3605,-1.5633,-1.7466,-1.7366,-1.7398,-1.7794,-1.794,-1.8008,-1.8008,-1.8008,-1.8008,-1.8008,-1.8008,-1.8008,-1.8008,-1.8008,-1.8008,-1.8008,-1.8008,-1.8018,-1.8027,-1.8076,-1.8389,-1.9023,-1.96,-2.0064,-2.0452,-2.0727,-2.1955,-2.3423,-2.4823,-2.6218,-2.6198,-2.6164,-2.6233,-2.6521,-2.6521,-2.6521,-2.6521,-2.6521,-2.6521,-2.6521,-2.6521,-2.6521,-2.6521,-2.6521,-2.6645,-2.6521,-2.6521,-2.6714,-2.704,-2.7736,-2.8492,-2.9414,-3.0225,-3.0925,0.5433,0.5532,0.548,0.5498,0.5654,0.5471,0.5569,0.5794,0.5562,0.5681,0.5924,0.4648,0.2496,0.0,0.0,-0.0337,-0.1213,-0.4252,-0.5138,-0.5333,-0.5389,-0.5379,-0.5372,-0.5432,-0.5428,-0.5428,-0.5428,-0.5428,-0.5428,-0.5428,-0.5428,-0.5428,-0.5428,-0.5557,-0.5815,-0.6658,-0.7377,-0.8221,-0.9134,-0.9913,-1.0428,-1.0618,-1.0618,-1.0618,-1.0618,-1.0618,-1.0618,-1.0618,-1.0618,-1.0681,-1.0807,-1.117,-1.1717,-1.2074,-1.2251,-1.2381,-1.2948,-1.3236,-1.3847,-1.4773,-1.6357,-1.7849,-1.7989,-1.7988,-1.8008,-1.8008,-1.8008,-1.8008,-1.8008,-1.8008,-1.8008,-1.8008,-1.8008,-1.8008,-1.8008,-1.8008,-1.8008,-1.8027,-1.8115,-1.8115,-1.8105,-1.8566,-1.9285,-2.0139,-2.0683,-2.1354,-2.1722,-2.2706,-2.4169,-2.5373,-2.6412,-2.6414,-2.6452,-2.6383,-2.6521,-2.6521,-2.6521,-2.6521,-2.6521,-2.6521,-2.6521,-2.6521,-2.6521,-2.6602,-2.6905,-2.6973,-2.6782,-2.6714,-2.7027,-2.7484,-2.7868,-2.862,-2.9676,-3.0406,-3.097,0.5372,0.5456,0.5369,0.5452,0.5483,0.5389,0.5393,0.55,0.5423,0.542,0.4907,0.0,0.0,0.0,0.0,-0.1954,-0.3981,-0.4931,-0.5403,-0.5389,-0.5379,-0.5372,-0.5432,-0.5428,-0.5428,-0.5428,-0.5428,-0.5428,-0.5428,-0.5428,-0.5428,-0.5428,-0.5624,-0.5749,-0.6396,-0.7377,-0.8285,-0.9134,-0.9977,-1.0428,-1.0561,-1.0618,-1.0618,-1.0618,-1.0618,-1.0618,-1.0618,-1.0681,-1.0744,-1.0737,-1.1351,-1.171,-1.202,-1.3235,-1.3777,-1.3906,-1.4085,-1.4392,-1.4968,-1.5823,-1.6807,-1.7752,-1.7979,-1.7997,-1.8008,-1.8008,-1.8008,-1.8008,-1.8008,-1.8008,-1.8008,-1.8008,-1.8008,-1.8008,-1.8008,-1.8076,-1.8076,-1.8018,-1.8105,-1.8814,-1.9002,-1.9203,-1.964,-2.0575,-2.1366,-2.204,-2.2739,-2.372,-2.4756,-2.5889,-2.6489,-2.6502,-2.6521,-2.6521,-2.6521,-2.6521,-2.6521,-2.6521,-2.6521,-2.6521,-2.6521,-2.6533,-2.6696,-2.682,-2.7201,-2.743,-2.7284,-2.7351,-2.7537,-2.8117,-2.8748,-2.9442,-3.0133,-3.0674,-3.116,0.5428,0.5428,0.5432,0.5372,0.5372,0.5382,0.5393,0.5399,0.5406,0.425,0.2424,0.0,0.0,0.0,-0.1886,-0.3845,-0.5202,-0.5399,-0.5389,-0.5379,-0.5372,-0.5432,-0.5428,-0.5428,-0.5428,-0.5428,-0.5428,-0.5428,-0.5428,-0.5428,-0.5428,-0.5561,-0.6292,-0.6749,-0.7046,-0.8091,-0.8812,-0.946,-1.011,-1.0555,-1.0618,-1.0618,-1.0618,-1.0618,-1.0618,-1.0624,-1.0751,-1.1108,-1.1226,-1.1413,-1.2089,-1.2757,-1.3114,-1.3837,-1.4323,-1.4874,-1.4874,-1.505,-1.54,-1.6208,-1.7053,-1.7718,-1.8005,-1.7988,-1.8008,-1.8008,-1.8008,-1.8008,-1.8008,-1.8008,-1.8008,-1.8008,-1.8008,-1.8008,-1.8202,-1.8519,-1.8529,-1.8163,-1.833,-1.917,-2.0035,-2.0377,-2.0699,-2.1292,-2.2361,-2.334,-2.372,-2.4259,-2.5226,-2.6176,-2.6515,-2.6477,-2.6521,-2.6521,-2.6521,-2.6521,-2.6521,-2.6521,-2.6521,-2.6521,-2.6521,-2.6533,-2.6888,-2.7253,-2.7722,-2.7815,-2.7815,-2.8103,-2.8492,-2.9129,-2.9766,-3.0269,-3.0703,-3.0955,-3.1379,0.5369,0.5372,0.5376,0.5173,0.4767,0.5192,0.5403,0.5343,0.4252,0.2491,0.0,0.0,0.0,-0.1684,-0.3979,-0.5135,-0.5336,-0.5386,-0.5376,-0.5372,-0.5435,-0.5428,-0.5428,-0.5428,-0.5428,-0.5428,-0.5428,-0.5428,-0.5425,-0.5418,-0.554,-0.5749,-0.7077,-0.7666,-0.7842,-0.8484,-0.9338,-0.9786,-1.0308,-1.0561,-1.0618,-1.0618,-1.0618,-1.0618,-1.0624,-1.0758,-1.1213,-1.1421,-1.1779,-1.2266,-1.2879,-1.3545,-1.3957,-1.4382,-1.4815,-1.5177,-1.5294,-1.5303,-1.5623,-1.6198,-1.7073,-1.7684,-1.7985,-1.8008,-1.8008,-1.8008,-1.8008,-1.8008,-1.8008,-1.8008,-1.7998,-1.8027,-1.82,-1.8422,-1.8654,-1.9034,-1.9375,-1.9162,-1.9365,-2.0334,-2.1246,-2.2011,-2.2309,-2.2457,-2.33,-2.4507,-2.4956,-2.5047,-2.562,-2.6333,-2.644,-2.6496,-2.6521,-2.6521,-2.6521,-2.6521,-2.6521,-2.6521,-2.6521,-2.6488,-2.6493,-2.6921,-2.7416,-2.7842,-2.8421,-2.8794,-2.9002,-2.9254,-2.9504,-2.9889,-3.0269,-3.0777,-3.1204,-3.1409,-3.1467,0.5386,0.5393,0.5382,0.4495,0.3147,0.4718,0.5276,0.466,0.1818,0.0,0.0,0.0,-0.2223,-0.4185,-0.4861,-0.5399,-0.5379,-0.5376,-0.5372,-0.5432,-0.5428,-0.5428,-0.5428,-0.5428,-0.5428,-0.5428,-0.5557,-0.5557,-0.5415,-0.5439,-0.5905,-0.6715,-0.7922,-0.8495,-0.8812,-0.9204,-0.9792,-1.0174,-1.0561,-1.0561,-1.0618,-1.0561,-1.0561,-1.0638,-1.0701,-1.122,-1.2671,-1.2367,-1.2343,-1.2956,-1.3666,-1.4145,-1.4451,-1.4864,-1.5235,-1.5352,-1.5508,-1.5487,-1.5597,-1.6146,-1.7073,-1.7674,-1.7955,-1.7949,-1.8008,-1.8008,-1.8008,-1.8076,-1.8134,-1.8202,-1.8142,-1.8044,-1.8288,-1.9212,-1.9747,-2.0303,-2.0497,-2.0325,-2.0665,-2.1609,-2.2376,-2.312,-2.398,-2.4119,-2.4189,-2.531,-2.5673,-2.5701,-2.5697,-2.6221,-2.6352,-2.6458,-2.6508,-2.6521,-2.6521,-2.6521,-2.6521,-2.6521,-2.6521,-2.6498,-2.6483,-2.7103,-2.7709,-2.8871,-2.9485,-2.9898,-3.0208,-3.0208,-3.0329,-3.0464,-3.0777,-3.1146,-3.1336,-3.1467,-3.1467,0.437,0.5406,0.5403,0.4989,0.4244,0.2691,0.2088,0.1885,0.0,0.0,-0.0202,-0.229,-0.4048,-0.5135,-0.5396,-0.5389,-0.5379,-0.5372,-0.5435,-0.5432,-0.5428,-0.5428,-0.5428,-0.5428,-0.5428,-0.5557,-0.5881,-0.6207,-0.6195,-0.5803,-0.6854,-0.7931,-0.8969,-0.9233,-0.9554,-0.9786,-1.0238,-1.0428,-1.0618,-1.0618,-1.0618,-1.0568,-1.0601,-1.0611,-1.1496,-1.2071,-1.2908,-1.3526,-1.3629,-1.3907,-1.451,-1.4746,-1.4874,-1.5235,-1.5352,-1.5469,-1.5615,-1.5691,-1.5527,-1.6036,-1.6707,-1.7382,-1.7632,-1.7734,-1.7959,-1.8008,-1.8008,-1.8134,-1.8519,-1.8787,-1.8813,-1.8461,-1.8493,-1.9922,-2.0918,-2.1475,-2.162,-2.1452,-2.2073,-2.3018,-2.3612,-2.422,-2.5018,-2.5812,-2.5836,-2.6025,-2.6264,-2.6364,-2.6195,-2.6158,-2.6302,-2.6408,-2.6445,-2.6521,-2.6521,-2.6521,-2.6521,-2.6589,-2.6577,-2.6518,-2.666,-2.7196,-2.8012,-2.9303,-3.0352,-3.0507,-3.0703,-3.0955,-3.1029,-3.1029,-3.1087,-3.1336,-3.1467,-3.1467,-3.1467,0.4244,0.5353,0.5423,0.4736,0.3507,0.1078,0.0,0.0,0.0,0.0,-0.1751,-0.4389,-0.5406,-0.5399,-0.5389,-0.5376,-0.5372,-0.5432,-0.5428,-0.5428,-0.5428,-0.5428,-0.5428,-0.5425,-0.5557,-0.5818,-0.6334,-0.6724,-0.7042,-0.6419,-0.7416,-0.8924,-1.0091,-1.0079,-1.006,-1.0231,-1.0618,-1.0618,-1.0618,-1.0618,-1.0618,-1.0973,-1.0803,-1.106,-1.2064,-1.3508,-1.4084,-1.4586,-1.4608,-1.4699,-1.505,-1.5294,-1.542,-1.542,-1.542,-1.5557,-1.5771,-1.5955,-1.5923,-1.5856,-1.6476,-1.7432,-1.7488,-1.7666,-1.7881,-1.8202,-1.8529,-1.8529,-1.9166,-1.9683,-1.9661,-1.9351,-1.9574,-2.0928,-2.1957,-2.2565,-2.2633,-2.2639,-2.3539,-2.446,-2.4767,-2.4817,-2.5541,-2.6233,-2.6233,-2.6245,-2.6371,-2.6377,-2.6195,-2.6251,-2.6302,-2.6395,-2.6382,-2.6458,-2.6521,-2.6521,-2.6645,-2.7095,-2.7059,-2.6712,-2.6922,-2.7589,-2.8671,-3.0233,-3.0984,-3.1043,-3.1087,-3.1219,-3.1336,-3.1467,-3.1467,-3.1467,-3.1467,-3.1467,-3.1467,0.5148,0.5376,0.5241,0.3316,0.0,0.0,0.0,0.0,0.0,-0.2088,-0.4523,-0.541,-0.5399,-0.5382,-0.5379,-0.5372,-0.5432,-0.5428,-0.5428,-0.5428,-0.5428,-0.5428,-0.5425,-0.5557,-0.5947,-0.6527,-0.7046,-0.7507,-0.7962,-0.796,-0.8692,-0.9302,-1.0187,-1.0511,-1.0561,-1.0555,-1.0618,-1.0618,-1.0688,-1.0792,-1.1164,-1.1931,-1.1811,-1.1891,-1.3191,-1.4789,-1.5575,-1.5374,-1.527,-1.5204,-1.5245,-1.542,-1.542,-1.542,-1.542,-1.5449,-1.5869,-1.6305,-1.6597,-1.5904,-1.6351,-1.7566,-1.772,-1.7909,-1.8218,-1.8721,-1.9309,-1.9365,-2.0074,-2.0526,-2.0553,-2.0631,-2.1191,-2.1708,-2.2739,-2.3232,-2.3306,-2.3614,-2.4452,-2.509,-2.5094,-2.5156,-2.5882,-2.6452,-2.6452,-2.6452,-2.6452,-2.6377,-2.6251,-2.6276,-2.6395,-2.6214,-2.6201,-2.6458,-2.6521,-2.6589,-2.6837,-2.7351,-2.7591,-2.7442,-2.7805,-2.8602,-2.984,-3.1234,-3.1395,-3.1278,-3.1336,-3.1467,-3.1467,-3.1467,-3.1467,-3.1467,-3.1467,-3.1467,-3.1467,0.182,0.1822,0.1824,0.1147,0.0,0.0,0.0,0.0,-0.2424,-0.4252,-0.5202,-0.5399,-0.5389,-0.5379,-0.5372,-0.5432,-0.5428,-0.5428,-0.5428,-0.5428,-0.5428,-0.5428,-0.5557,-0.6009,-0.6396,-0.6981,-0.7637,-0.842,-0.8877,-0.9227,-0.9685,-1.0295,-1.0364,-1.0555,-1.0555,-1.0618,-1.08,-1.1331,-1.1658,-1.2067,-1.2584,-1.3171,-1.3443,-1.2983,-1.4562,-1.589,-1.6597,-1.6037,-1.5808,-1.5469,-1.542,-1.542,-1.542,-1.542,-1.542,-1.5596,-1.6016,-1.6954,-1.7091,-1.6763,-1.626,-1.7425,-1.8137,-1.8516,-1.9532,-1.9933,-2.0139,-2.0322,-2.0974,-2.1365,-2.1444,-2.198,-2.2445,-2.2518,-2.3142,-2.3453,-2.3679,-2.4191,-2.4806,-2.5435,-2.5611,-2.5724,-2.6226,-2.6508,-2.6521,-2.6589,-2.6589,-2.6506,-2.6435,-2.6332,-2.6395,-2.6113,-2.6076,-2.6314,-2.6589,-2.7027,-2.7417,-2.792,-2.836,-2.8538,-2.903,-2.9654,-3.0351,-3.1366,-3.1424,-3.1467,-3.1467,-3.1467,-3.1467,-3.1467,-3.1467,-3.1467,-3.1467,-3.1467,-3.1467,0.0,0.0,0.0,-0.0809,-0.1755,-0.1891,-0.1889,-0.2155,-0.377,-0.4788,-0.5262,-0.5382,-0.5376,-0.5372,-0.5432,-0.5428,-0.5428,-0.5428,-0.5428,-0.5428,-0.5428,-0.562,-0.6009,-0.6461,-0.7111,-0.7702,-0.8549,-0.9396,-0.9722,-1.0301,-1.0491,-1.0491,-1.0618,-1.08,-1.0926,-1.1163,-1.1288,-1.1862,-1.2287,-1.2941,-1.3589,-1.4185,-1.4646,-1.4739,-1.5637,-1.6769,-1.6703,-1.6602,-1.6348,-1.5713,-1.543,-1.542,-1.542,-1.542,-1.5488,-1.5801,-1.6307,-1.7256,-1.7561,-1.8012,-1.7954,-1.8835,-1.8652,-1.9156,-2.0348,-2.0782,-2.0974,-2.129,-2.1877,-2.2125,-2.2384,-2.3005,-2.3005,-2.3078,-2.355,-2.3815,-2.4192,-2.472,-2.5247,-2.5787,-2.5912,-2.6126,-2.6319,-2.6471,-2.6521,-2.6658,-2.6782,-2.6764,-2.6771,-2.6793,-2.6815,-2.6729,-2.6801,-2.734,-2.767,-2.792,-2.8298,-2.857,-2.8996,-2.9411,-2.9975,-3.0587,-3.1013,-3.1336,-3.1409,-3.1467,-3.1467,-3.1467,-3.1467,-3.1467,-3.1467,-3.1467,-3.1467,-3.1467,-3.1524,0.0,-0.0135,0.0,-0.2228,-0.4962,-0.4959,-0.5087,-0.5135,-0.3625,-0.3889,-0.5376,-0.5379,-0.5372,-0.5428,-0.5428,-0.5428,-0.5428,-0.5428,-0.5491,-0.5557,-0.5686,-0.6075,-0.6593,-0.6981,-0.7832,-0.8748,-0.9466,-0.9913,-1.0498,-1.0561,-1.0555,-1.0814,-1.094,-1.1233,-1.1593,-1.2012,-1.2174,-1.2687,-1.3328,-1.4005,-1.4667,-1.5507,-1.5655,-1.5865,-1.6575,-1.7177,-1.7119,-1.6807,-1.6309,-1.582,-1.5478,-1.5449,-1.5478,-1.5468,-1.5743,-1.6198,-1.6706,-1.7397,-1.8478,-1.901,-1.9715,-2.0077,-1.9137,-1.9514,-2.0443,-2.1628,-2.1815,-2.2063,-2.2506,-2.275,-2.3065,-2.3065,-2.3065,-2.3561,-2.4101,-2.4431,-2.4695,-2.5197,-2.5724,-2.6,-2.59,-2.595,-2.598,-2.6105,-2.6815,-2.6822,-2.7141,-2.7947,-2.7934,-2.7723,-2.7789,-2.7828,-2.8074,-2.8616,-2.8862,-2.8798,-2.9115,-2.938,-2.995,-3.0406,-3.0984,-3.1233,-3.1321,-3.1409,-3.1467,-3.1467,-3.1467,-3.1467,-3.1467,-3.1467,-3.1524,-3.1467,-3.1467,-3.1539,-3.1554,-0.1485,-0.3794,-0.3849,-0.4459,-0.5282,-0.5406,-0.5399,-0.5262,-0.477,-0.504,-0.5376,-0.5369,-0.5432,-0.5428,-0.5428,-0.5428,-0.5428,-0.5491,-0.5877,-0.6071,-0.6334,-0.692,-0.7502,-0.8156,-0.8812,-0.9332,-0.9849,-1.0301,-1.0498,-1.0624,-1.1409,-1.2142,-1.163,-1.2035,-1.2573,-1.3235,-1.3525,-1.3958,-1.4611,-1.5204,-1.5937,-1.6835,-1.6842,-1.7196,-1.733,-1.7723,-1.756,-1.7243,-1.6743,-1.6055,-1.5889,-1.596,-1.6208,-1.6218,-1.6508,-1.7513,-1.7726,-1.7956,-1.9471,-2.0517,-2.1174,-2.1345,-2.0689,-2.1176,-2.2031,-2.2445,-2.2641,-2.2763,-2.2823,-2.3005,-2.3125,-2.3125,-2.3125,-2.3424,-2.4052,-2.4659,-2.4973,-2.5595,-2.6127,-2.6435,-2.6333,-2.6235,-2.6159,-2.6672,-2.7315,-2.7197,-2.7615,-2.859,-2.9104,-2.8848,-2.8661,-2.8698,-2.9002,-2.9504,-2.9504,-2.9442,-2.9813,-3.0194,-3.0703,-3.1029,-3.1204,-3.1394,-3.1467,-3.1467,-3.1467,-3.1467,-3.1467,-3.1467,-3.1467,-3.1524,-3.1524,-3.1524,-3.1524,-3.1537,-3.1823,-0.3381,-0.5292,-0.542,-0.5406,-0.5396,-0.5382,-0.5379,-0.5382,-0.5376,-0.5372,-0.5372,-0.5432,-0.5428,-0.5428,-0.5428,-0.5557,-0.6013,-0.649,-0.6811,-0.7046,-0.7237,-0.7827,-0.8484,-0.9075,-0.9466,-0.9849,-1.0238,-1.0491,-1.0681,-1.1059,-1.1777,-1.2741,-1.2382,-1.2834,-1.3364,-1.389,-1.4678,-1.529,-1.5952,-1.6558,-1.7166,-1.7793,-1.7939,-1.8008,-1.8008,-1.8024,-1.7985,-1.7649,-1.7066,-1.6501,-1.6424,-1.6616,-1.689,-1.7016,-1.7665,-1.8544,-1.8885,-1.9399,-2.0544,-2.121,-2.1843,-2.2093,-2.1913,-2.2184,-2.2575,-2.2944,-2.3005,-2.3065,-2.3065,-2.3125,-2.3125,-2.3125,-2.3125,-2.315,-2.3915,-2.476,-2.5318,-2.5932,-2.6381,-2.6873,-2.6969,-2.6841,-2.7066,-2.7588,-2.7991,-2.817,-2.8711,-2.9673,-3.0029,-2.9854,-2.9651,-2.9504,-2.9889,-3.0269,-3.0208,-3.0194,-3.051,-3.0822,-3.1029,-3.1336,-3.1467,-3.1467,-3.1467,-3.1467,-3.1467,-3.1467,-3.1467,-3.1467,-3.1524,-3.1582,-3.1796,-3.2048,-3.1957,-3.1637,-3.2072,-0.5363,-0.5413,-0.5413,-0.5396,-0.5379,-0.5376,-0.5369,-0.5428,-0.5428,-0.5428,-0.5428,-0.5428,-0.5491,-0.562,-0.555,-0.6005,-0.6872,-0.7686,-0.8077,-0.8091,-0.8091,-0.8613,-0.9198,-0.9466,-0.9919,-1.0364,-1.0618,-1.0618,-1.08,-1.1296,-1.2018,-1.2997,-1.3128,-1.3485,-1.4204,-1.4382,-1.5121,-1.6172,-1.6475,-1.6844,-1.7375,-1.7803,-1.8008,-1.8008,-1.7969,-1.8016,-1.7912,-1.7704,-1.7357,-1.7166,-1.7144,-1.7406,-1.7597,-1.8057,-1.8846,-1.9566,-2.0017,-2.0625,-2.1304,-2.192,-2.2159,-2.2347,-2.2397,-2.2639,-2.2927,-2.3125,-2.3125,-2.3125,-2.3125,-2.3125,-2.3125,-2.3125,-2.3125,-2.3634,-2.4502,-2.5063,-2.555,-2.6362,-2.7392,-2.7709,-2.7746,-2.7611,-2.7394,-2.7813,-2.8271,-2.8844,-2.9737,-3.0681,-3.0831,-3.0698,-3.0505,-3.0315,-3.0584,-3.0837,-3.097,-3.1014,-3.1204,-3.1409,-3.1467,-3.1467,-3.1467,-3.1467,-3.1467,-3.1467,-3.1467,-3.1467,-3.1467,-3.1625,-3.1781,-3.1894,-3.2216,-3.2641,-3.2555,-3.2284,-3.2635,-0.5416,-0.541,-0.5396,-0.5376,-0.5432,-0.5432,-0.5432,-0.5428,-0.5428,-0.5425,-0.5428,-0.5491,-0.5815,-0.6199,-0.5851,-0.6306,-0.7777,-0.8955,-0.9421,-0.9168,-0.9005,-0.939,-1.011,-1.0104,-1.0364,-1.0491,-1.0618,-1.0744,-1.0989,-1.1545,-1.249,-1.3509,-1.3787,-1.4332,-1.4932,-1.5001,-1.5581,-1.6582,-1.6689,-1.7061,-1.7686,-1.7861,-1.8008,-1.8008,-1.7978,-1.8046,-1.8178,-1.8548,-1.8404,-1.8333,-1.8488,-1.8538,-1.8421,-1.9048,-1.9695,-2.0395,-2.1058,-2.1487,-2.1968,-2.2385,-2.2673,-2.2799,-2.2899,-2.2927,-2.3027,-2.3113,-2.3125,-2.3125,-2.3125,-2.3125,-2.3125,-2.3113,-2.3346,-2.4157,-2.5127,-2.5475,-2.59,-2.714,-2.8348,-2.8488,-2.8546,-2.836,-2.8043,-2.8144,-2.8517,-2.9368,-3.0484,-3.1264,-3.1235,-3.122,-3.1161,-3.1014,-3.1146,-3.1336,-3.1467,-3.1467,-3.1467,-3.1467,-3.1467,-3.1467,-3.1524,-3.1467,-3.1467,-3.1467,-3.1467,-3.1625,-3.1838,-3.2104,-3.2272,-3.2367,-3.2826,-3.3339,-3.3639,-3.348,-3.3744,-0.4648,-0.5329,-0.5376,-0.5435,-0.5428,-0.5428,-0.5428,-0.5491,-0.5815,-0.5943,-0.5947,-0.6009,-0.6268,-0.6846,-0.6563,-0.714,-0.8624,-0.9962,-1.0129,-0.9938,-0.9849,-1.011,-1.0498,-1.0618,-1.0555,-1.0618,-1.1045,-1.1233,-1.1428,-1.2466,-1.3528,-1.4297,-1.4653,-1.4932,-1.542,-1.5469,-1.5742,-1.6387,-1.6455,-1.6943,-1.7752,-1.7939,-1.7988,-1.8008,-1.8076,-1.8221,-1.8751,-1.9198,-1.9283,-1.938,-1.9553,-1.9399,-1.9317,-1.9537,-2.017,-2.0865,-2.1499,-2.2009,-2.2401,-2.2815,-2.3125,-2.3125,-2.3125,-2.304,-2.304,-2.3125,-2.3125,-2.3125,-2.3125,-2.3125,-2.311,-2.3085,-2.3756,-2.4554,-2.5902,-2.6864,-2.7687,-2.887,-2.9454,-2.9487,-2.9529,-2.9528,-2.933,-2.9361,-2.9799,-3.028,-3.1349,-3.1437,-3.1467,-3.1467,-3.1467,-3.1467,-3.1467,-3.1467,-3.1467,-3.1467,-3.1467,-3.1467,-3.1467,-3.1524,-3.1524,-3.1524,-3.1467,-3.1682,-3.1894,-3.2064,-3.2272,-3.2625,-3.2879,-3.3024,-3.3515,-3.412,-3.4348,-3.4521,-3.4698,-0.4013,-0.5279,-0.5401,-0.5397,-0.5401,-0.5422,-0.5491,-0.5686,-0.633,-0.6785,-0.6902,-0.6945,-0.7015,-0.7302,-0.7623,-0.8544,-0.9414,-1.0245,-1.0474,-1.0518,-1.0491,-1.0498,-1.0555,-1.0737,-1.0989,-1.1296,-1.1717,-1.1981,-1.2236,-1.3268,-1.4207,-1.5103,-1.5351,-1.542,-1.542,-1.5459,-1.5693,-1.6035,-1.6341,-1.6747,-1.7307,-1.7935,-1.815,-1.823,-1.8414,-1.8906,-1.9515,-1.9944,-2.015,-2.0392,-2.0556,-2.0173,-2.0015,-2.0047,-2.0611,-2.1297,-2.1606,-2.2209,-2.2752,-2.3002,-2.3125,-2.3125,-2.3125,-2.3125,-2.3125,-2.3245,-2.3245,-2.3305,-2.3305,-2.3339,-2.331,-2.3398,-2.4106,-2.5328,-2.6809,-2.8299,-2.9397,-3.0332,-3.0317,-3.0303,-3.0352,-3.0411,-3.0393,-3.0434,-3.083,-3.1332,-3.1467,-3.1467,-3.1467,-3.1467,-3.1467,-3.1467,-3.1467,-3.1467,-3.1467,-3.1524,-3.1582,-3.1467,-3.1524,-3.1582,-3.1727,-3.2046,-3.2201,-3.2104,-3.2312,-3.2625,-3.2933,-3.3287,-3.3531,-3.3719,-3.4284,-3.4736,-3.4814,-3.5061,-3.5328,-0.4963,-0.5176,-0.531,-0.531,-0.5199,-0.5308,-0.5815,-0.64,-0.6654,-0.7046,-0.7728,-0.8222,-0.8526,-0.8737,-0.8104,-0.8756,-1.004,-1.0531,-1.0581,-1.0561,-1.0618,-1.0618,-1.0737,-1.1108,-1.1903,-1.2336,-1.2581,-1.2765,-1.3017,-1.3803,-1.4282,-1.4616,-1.5283,-1.541,-1.542,-1.5478,-1.5655,-1.5989,-1.6397,-1.6767,-1.803,-1.8581,-1.8895,-1.9228,-1.9846,-2.0444,-2.0929,-2.1308,-2.1451,-2.1614,-2.1607,-2.0965,-2.0532,-2.0489,-2.1041,-2.1418,-2.1782,-2.2385,-2.2899,-2.31,-2.3125,-2.3125,-2.3125,-2.3185,-2.3365,-2.3767,-2.3884,-2.4105,-2.4105,-2.4163,-2.4103,-2.376,-2.4273,-2.6351,-2.8066,-2.9421,-3.0646,-3.0896,-3.094,-3.0895,-3.0908,-3.08,-3.0592,-3.0783,-3.1155,-3.1467,-3.1467,-3.1524,-3.1539,-3.1539,-3.1612,-3.1625,-3.1682,-3.1539,-3.1539,-3.164,-3.1682,-3.1582,-3.158,-3.1814,-3.2256,-3.2974,-3.3107,-3.2827,-3.3039,-3.3339,-3.3684,-3.3937,-3.4235,-3.4479,-3.5005,-3.5407,-3.5407,-3.5407,-3.5577]}]]